Date StartTime U_cm/s V_cm/s W_cm/s Ustd_cm/s Vstd_cm/s Wstd_cm/s Uvar_(cm/s)^2 Vvar_(cm/s)^2 Wvar_(cm/s)^2 KE_(m/s)^2 TurbulentKE_(m/s)^2 HorizWindSpeed_cm/s FrictionSpeec_cm/s DragCoef SpeedOfSound_m/s SonicTemperature_C Pressure_mb 
09/09/2014  00:00:00     -279.041      -79.403       -6.471      135.942       89.161       56.832    18480.272     7949.741     3229.821        5.693        1.483      290.119       68.487        0.056      342.988       18.780      860.669
09/09/2014  00:01:00     -233.143      -54.340       -3.903       94.670       67.822       46.725     8962.338     4599.830     2183.239        3.653        0.787      239.392       51.835        0.047      342.984       18.773      860.666
09/09/2014  00:02:00     -221.051      -32.111      -17.380      117.788       81.147       48.977    13873.941     6584.755     2398.703        3.652        1.143      223.371       53.627        0.058      342.974       18.757      860.662
09/09/2014  00:03:00     -284.327      -61.966      -10.716       94.801       81.340       47.825     8987.228     6616.159     2287.268        5.134        0.895      291.001       49.290        0.029      343.012       18.820      860.690
09/09/2014  00:04:00     -207.081      -42.866       -8.929       69.483       65.381       30.845     4827.929     4274.617      951.384        2.743        0.503      211.471       26.562        0.016      342.981       18.769      860.688
09/09/2014  00:05:00     -214.718      -75.904      -11.462       85.292       86.389       50.567     7274.640     7463.060     2557.071        3.464        0.865      227.740       48.745        0.046      342.887       18.607      860.687
09/09/2014  00:06:00     -264.100      -65.146        1.796      128.579       89.889       53.928    16532.521     8080.054     2908.260        5.075        1.376      272.016       58.280        0.046      342.898       18.629      860.678
09/09/2014  00:07:00     -246.810      -44.088       -3.933       97.742       69.491       47.843     9553.509     4829.021     2288.982        3.977        0.834      250.717       48.217        0.037      342.869       18.577      860.670
09/09/2014  00:08:00     -162.985      -73.988        1.547      112.879       76.799       48.632    12741.567     5898.096     2365.062        2.652        1.050      178.992       47.301        0.070      342.837       18.525      860.662
09/09/2014  00:09:00     -264.121      -82.202      -16.537       70.069      109.845       44.157     4909.710    12065.924     1949.809        4.785        0.946      276.617       28.908        0.011      342.878       18.591      860.656
09/09/2014  00:10:00     -242.478     -114.563        3.569      125.101      120.543       65.429    15650.159    14530.708     4280.982        5.319        1.723      268.179       67.343        0.063      342.892       18.617      860.650
09/09/2014  00:11:00      -85.129      -12.883       15.761       90.826       90.806       54.226     8249.337     8245.737     2940.416        1.355        0.972       86.098       53.607        0.388      342.833       18.517      860.671
09/09/2014  00:12:00     -260.801      -50.678      -14.640       73.088       67.029       43.622     5341.802     4492.881     1902.867        4.127        0.587      265.679       38.759        0.021      342.936       18.689      860.675
09/09/2014  00:13:00     -223.088      -28.330      -10.598       61.414       65.616       27.515     3771.731     4305.519      757.063        2.976        0.442      224.880       24.132        0.012      342.956       18.725      860.662
09/09/2014  00:14:00     -178.852      -18.387       -7.103       41.355       35.516       27.776     1710.213     1261.381      771.493        1.806        0.187      179.794       18.213        0.010      342.888       18.612      860.684
09/09/2014  00:15:00     -227.552      -36.939      -19.548       80.745       63.412       43.583     6519.809     4021.142     1899.467        3.298        0.622      230.531       40.038        0.030      342.878       18.594      860.719
09/09/2014  00:16:00     -145.857      -90.218       -5.077       97.186       85.332       46.435     9445.184     7281.558     2156.210        2.416        0.944      171.504       43.474        0.064      342.857       18.558      860.725
09/09/2014  00:17:00     -179.620      -40.713        2.610       96.748       80.991       46.448     9360.192     6559.465     2157.453        2.600        0.904      184.177       46.144        0.063      342.865       18.571      860.725
09/09/2014  00:18:00     -168.146      -38.875        1.178      100.027       86.318       48.275    10005.359     7450.783     2330.518        2.478        0.989      172.581       45.955        0.071      342.836       18.523      860.721
09/09/2014  00:19:00     -194.817     -102.511        9.533      139.200      118.348       59.620    19376.553    14006.218     3554.546        4.274        1.847      220.141       61.080        0.077      342.899       18.630      860.735
09/09/2014  00:20:00     -239.658       32.610      -19.008      112.839       85.704       60.553    12732.594     7345.108     3666.707        4.130        1.187      241.866       53.005        0.048      342.974       18.755      860.728
09/09/2014  00:21:00     -147.885      -32.865        4.751       87.107       86.282       40.392     7587.675     7444.623     1631.507        1.982        0.833      151.493       38.919        0.066      342.919       18.663      860.710
09/09/2014  00:22:00     -246.850      -39.027       -9.597      124.264      110.380       57.864    15441.587    12183.688     3348.249        4.676        1.549      249.916       58.233        0.054      342.922       18.667      860.700
09/09/2014  00:23:00     -299.124     -139.640      -24.260      148.937      104.794       53.058    22182.129    10981.680     2815.125        7.276        1.799      330.112       56.481        0.029      343.007       18.813      860.706
09/09/2014  00:24:00     -277.074     -200.108       -0.157      124.670      113.451       63.984    15542.568    12871.037     4094.013        7.465        1.625      341.779       56.741        0.028      343.077       18.931      860.702
09/09/2014  00:25:00     -143.534     -109.867       -1.099      140.000      116.679       59.780    19599.889    13614.003     3573.591        3.472        1.839      180.756       75.747        0.176      342.916       18.658      860.686
09/09/2014  00:26:00      -95.080      -69.469       15.556       98.613       86.612       59.807     9724.518     7501.618     3576.903        1.745        1.040      117.755       56.690        0.232      342.882       18.601      860.688
09/09/2014  00:27:00     -245.526      -17.360        1.797      148.090      106.402       61.707    21930.587    11321.363     3807.810        4.882        1.853      246.139       57.198        0.054      342.939       18.697      860.703
09/09/2014  00:28:00     -367.385      -84.157      -20.272      164.707      144.490       83.914    27128.254    20877.466     7041.542        9.875        2.752      376.901       86.445        0.053      343.019       18.832      860.699
09/09/2014  00:29:00     -236.804      -55.860      -12.174      108.508       98.542       50.343    11773.880     9710.599     2534.392        4.168        1.201      243.303       56.353        0.054      342.967       18.745      860.665
09/09/2014  00:30:00     -140.427      -63.576       -2.013       98.219       83.687       42.148     9646.911     7003.533     1776.447        2.109        0.921      154.148       38.587        0.063      342.873       18.587      860.677
09/09/2014  00:31:00     -144.539      -40.702       13.708      141.667       96.054       49.662    20069.667     9226.302     2466.324        2.724        1.588      150.160       58.923        0.154      342.803       18.467      860.686
09/09/2014  00:32:00     -328.897     -183.173      -24.952      150.737       86.895       54.875    22721.679     7550.777     3011.246        8.781        1.664      376.464       49.687        0.017      342.995       18.790      860.675
09/09/2014  00:33:00     -163.003      -85.238      -22.249       82.339       80.089       47.560     6779.680     6414.301     2261.992        2.489        0.773      183.944       29.643        0.026      342.918       18.662      860.662
09/09/2014  00:34:00     -148.450      -68.892       13.853      126.746       87.459       55.027    16064.622     7649.025     3028.014        2.685        1.337      163.656       54.440        0.111      342.856       18.555      860.668
09/09/2014  00:35:00     -202.739      -56.644       -8.961      136.780       94.954       70.547    18708.826     9016.308     4976.930        3.854        1.635      210.504       62.137        0.087      342.878       18.593      860.684
09/09/2014  00:36:00     -343.495     -130.395      -16.482      185.422      117.712       61.972    34381.473    13856.171     3840.565        9.366        2.604      367.412       60.400        0.027      342.898       18.626      860.705
09/09/2014  00:37:00     -199.798      -56.683       -0.537      145.133      112.226       64.507    21063.676    12594.689     4161.179        4.047        1.891      207.683       75.641        0.133      342.842       18.531      860.721
09/09/2014  00:38:00     -257.064      -73.519       -7.737      255.509      114.184       65.926    65284.784    13038.057     4346.191        7.709        4.133      267.370       95.918        0.129      342.795       18.452      860.743
09/09/2014  00:39:00     -324.196      -72.594      -23.031      157.902       92.999       62.547    24932.978     8648.827     3912.103        7.419        1.875      332.224       80.004        0.058      342.869       18.579      860.738
09/09/2014  00:40:00     -281.301      -39.218       -3.016      173.092      106.313       71.592    29960.874    11302.552     5125.386        6.353        2.319      284.021       78.886        0.077      342.935       18.691      860.720
09/09/2014  00:41:00     -164.215     -116.566        9.471       99.759       86.748       56.489     9951.921     7525.181     3190.964        3.065        1.033      201.381       56.743        0.079      342.845       18.538      860.719
09/09/2014  00:42:00     -281.923     -167.793       18.119      238.522      167.590       92.182    56892.934    28086.551     8497.478       10.070        4.674      328.078      116.933        0.127      342.895       18.623      860.727
09/09/2014  00:43:00     -306.674     -115.449       -4.422      124.235      129.764       57.009    15434.313    16838.713     3250.029        7.145        1.776      327.685       63.270        0.037      342.891       18.616      860.790
09/09/2014  00:44:00     -356.999      -21.268        1.095      186.970      130.002       74.284    34957.854    16900.469     5518.135        9.263        2.869      357.632       87.380        0.060      342.953       18.719      860.806
09/09/2014  00:45:00     -300.032      -39.705       -1.961      129.054       87.563       62.542    16655.005     7667.245     3911.457        5.991        1.412      302.648       70.645        0.054      343.018       18.830      860.816
09/09/2014  00:46:00     -122.768      -48.249        1.915       90.220       92.783       43.558     8139.573     8608.731     1897.267        1.802        0.932      131.909       48.995        0.138      342.818       18.494      860.792
09/09/2014  00:47:00     -287.433      -44.888      -10.297      190.698      105.301       59.939    36365.849    11088.279     3592.702        6.788        2.552      290.917       69.486        0.057      342.838       18.525      860.839
09/09/2014  00:48:00     -220.720      -43.888        2.736      105.798       91.047       66.252    11193.320     8289.631     4389.347        3.726        1.194      225.041       55.834        0.062      342.837       18.521      860.867
09/09/2014  00:49:00     -213.983      -38.890      -14.124      143.641       92.536       61.777    20632.843     8562.833     3816.399        4.025        1.651      217.489       62.395        0.082      342.937       18.693      860.860
09/09/2014  00:50:00     -191.146     -102.800       -0.116       86.213       88.151       46.512     7432.676     7770.518     2163.360        3.223        0.868      217.036       47.251        0.047      342.890       18.613      860.857
09/09/2014  00:51:00     -333.850     -117.579       -1.350      170.032      139.004       79.421    28911.048    19322.032     6307.671        8.990        2.727      353.950       84.950        0.058      342.867       18.575      860.867
09/09/2014  00:52:00     -344.181      -97.094      -21.726      127.779      112.272       61.388    16327.353    12605.046     3768.500        8.052        1.635      357.614       63.738        0.032      342.856       18.556      860.846
09/09/2014  00:53:00     -290.331      -59.822       16.532      182.023      112.900       66.487    33132.297    12746.470     4420.528        6.921        2.515      296.430       83.525        0.079      342.762       18.395      860.860
09/09/2014  00:54:00     -429.166     -112.040      -34.308      136.179      123.968       63.855    18544.610    15368.053     4077.477       11.795        1.900      443.549       54.588        0.015      342.861       18.563      860.878
09/09/2014  00:55:00     -248.353      -34.593      -13.920      158.350      133.190       65.780    25074.586    17739.498     4327.037        5.510        2.357      250.751       58.311        0.054      342.836       18.523      860.892
09/09/2014  00:56:00     -286.525      -50.436      -20.825      131.475      112.808       65.017    17285.568    12725.621     4227.159        5.965        1.712      290.930       65.671        0.051      342.893       18.619      860.895
09/09/2014  00:57:00     -274.376      -33.686       -2.791      133.680      104.672       60.768    17870.324    10956.200     3692.771        5.447        1.626      276.436       65.237        0.056      342.899       18.628      860.923
09/09/2014  00:58:00     -289.063      -36.094       -0.729      146.522      109.847       59.090    21468.792    12066.421     3491.577        6.094        1.851      291.308       66.269        0.052      342.871       18.579      860.904
09/09/2014  00:59:00     -303.347      -22.078      -10.305      138.009      126.099       54.431    19046.454    15900.900     2962.763        6.526        1.896      304.150       66.095        0.047      342.863       18.568      860.892
09/09/2014  01:00:00     -174.028        1.743        2.985       88.475       88.011       46.764     7827.908     7746.009     2186.899        2.403        0.888      174.037       44.439        0.065      342.752       18.379      860.917
09/09/2014  01:01:00     -319.001      -45.491      -11.549      190.164       93.795       73.854    36162.475     8797.467     5454.394        7.718        2.521      322.228       93.147        0.084      342.793       18.448      860.956
09/09/2014  01:02:00     -394.591     -134.347      -33.269      220.561      137.194       82.241    48647.211    18822.206     6763.512       12.453        3.712      416.835       98.903        0.056      342.867       18.574      860.975
09/09/2014  01:03:00     -246.466      -50.897      -14.312      118.228      129.934       69.380    13977.813    16882.833     4813.582        4.960        1.784      251.666       56.018        0.050      342.859       18.562      861.021
09/09/2014  01:04:00     -211.654      -61.055       -2.886      121.202      102.897       59.105    14690.019    10587.710     3493.448        3.865        1.439      220.284       64.162        0.085      342.942       18.703      861.051
09/09/2014  01:05:00     -105.074       55.061      -13.970       82.850       58.537       33.634     6864.113     3426.545     1131.273        1.284        0.571      118.626       26.501        0.050      342.965       18.744      861.034
09/09/2014  01:06:00      -30.515       17.360       -1.994       44.935       52.355       28.100     2019.152     2740.998      789.617        0.339        0.277       35.107       33.193        0.894      342.815       18.489      861.052
09/09/2014  01:07:00     -108.051      -84.711       -5.728      111.232       70.018       31.517    12372.489     4902.540      993.302        1.857        0.913      137.299       45.888        0.112      342.745       18.368      861.061
09/09/2014  01:08:00     -118.753      -61.593        0.653       89.727       59.881       39.318     8050.891     3585.711     1545.939        1.554        0.659      133.775       38.380        0.082      342.826       18.507      861.075
09/09/2014  01:09:00     -198.989     -145.799        1.769      135.011       95.541       61.789    18227.940     9128.126     3817.844        4.601        1.559      246.686       67.203        0.074      342.850       18.545      861.091
09/09/2014  01:10:00     -162.729     -101.970        9.501      111.253      101.401       63.053    12377.318    10282.119     3975.694        3.180        1.332      192.038       63.888        0.111      342.802       18.464      861.113
09/09/2014  01:11:00     -211.802      -86.891        2.248       97.044       83.741       57.311     9417.465     7012.483     3284.583        3.606        0.986      228.933       55.592        0.059      342.843       18.532      861.138
09/09/2014  01:12:00     -137.315       -9.033       -2.557       59.635       48.752       36.173     3556.376     2376.758     1308.512        1.309        0.362      137.612       22.890        0.028      342.905       18.641      861.166
09/09/2014  01:13:00     -103.760      -13.203       12.424      107.517       73.214       54.849    11559.826     5360.311     3008.367        1.551        0.996      104.597       61.550        0.346      342.797       18.459      861.203
09/09/2014  01:14:00     -115.642      -40.056       -3.139       85.706       59.792       34.342     7345.476     3575.113     1179.349        1.354        0.605      122.383       41.682        0.116      342.866       18.574      861.248
09/09/2014  01:15:00     -109.926       -6.802        2.594       58.188       48.896       33.062     3385.867     2390.793     1093.119        0.950        0.343      110.136       33.021        0.090      342.883       18.605      861.273
09/09/2014  01:16:00       23.452      -30.226       28.948       37.700       47.874       29.853     1421.254     2291.934      891.185        0.345        0.230       38.257       31.989        0.699      342.319       17.647      861.306
09/09/2014  01:17:00        6.620        7.844       10.383       43.950       25.278       19.421     1931.584      638.985      377.187        0.158        0.147       10.264       21.951        4.574      342.073       17.227      861.346
09/09/2014  01:18:00      -62.393       23.394       -1.307       52.714       41.834       31.867     2778.797     1750.084     1015.486        0.499        0.277       66.635       24.401        0.134      342.686       18.271      861.356
09/09/2014  01:19:00       31.214       63.146        6.694       57.723       34.287       30.464     3331.938     1175.626      928.036        0.522        0.272       70.439       26.652        0.143      342.275       17.572      861.364
09/09/2014  01:20:00      113.643       76.956       49.095       44.707       28.734       31.226     1998.678      825.646      975.049        1.252        0.190      137.248       23.236        0.029      342.030       17.154      861.353
09/09/2014  01:21:00       27.518       48.276      -15.905       29.643       32.079       19.421      878.703     1029.092      377.161        0.281        0.114       55.568       16.420        0.087      342.041       17.173      861.359
09/09/2014  01:22:00       58.101        9.710       25.919       35.580       36.066       37.098     1265.950     1300.745     1376.294        0.404        0.197       58.907       26.785        0.207      342.067       17.218      861.338
09/09/2014  01:23:00       41.828       26.473        2.027       40.368       44.267       38.538     1629.604     1959.565     1485.200        0.376        0.254       49.501       33.151        0.449      341.717       16.624      861.330
09/09/2014  01:24:00        1.229       -9.480       23.677       71.817       35.052       32.257     5157.726     1228.644     1040.518        0.404        0.371        9.559       39.664       17.216      342.039       17.171      861.329
09/09/2014  01:25:00      -29.650       22.701       -2.711       29.495       41.275       25.567      869.972     1703.644      653.651        0.231        0.161       37.342       22.021        0.348      342.094       17.263      861.362
09/09/2014  01:26:00       24.833       33.417       16.551       23.898       28.818       26.678      571.123      830.450      711.713        0.206        0.106       41.634       15.333        0.136      341.820       16.799      861.373
09/09/2014  01:27:00       80.458        7.867        1.420       23.125       23.960       26.240      534.748      574.063      688.562        0.417        0.090       80.842       16.808        0.043      341.324       15.957      861.375
09/09/2014  01:28:00       88.487       28.812        8.622       19.138       23.758       22.085      366.250      564.466      487.741        0.508        0.071       93.060       16.754        0.032      341.559       16.356      861.386
09/09/2014  01:29:00       26.367      -30.522        9.590       33.819       32.038       20.032     1143.699     1026.411      401.291        0.214        0.129       40.333       18.938        0.220      341.031       15.461      861.399
09/09/2014  01:30:00       21.470      -41.247      -11.172       24.273       31.510       19.650      589.194      992.902      386.138        0.213        0.098       46.500       13.736        0.087      341.096       15.573      861.411
09/09/2014  01:31:00       -1.543       -7.261        9.099       18.913       33.186       15.583      357.715     1101.306      242.817        0.092        0.085        7.423       15.421        4.316      341.021       15.445      861.390
09/09/2014  01:32:00       54.783       41.707       -1.854       29.070       24.324       28.298      845.091      591.666      800.769        0.349        0.112       68.852       15.635        0.052      341.021       15.443      861.388
09/09/2014  01:33:00       33.772       49.006       52.027       29.958       28.820       15.951      897.494      830.564      254.431        0.412        0.099       59.516       10.043        0.028      341.174       15.704      861.392
09/09/2014  01:34:00       22.366      -18.865        6.923       23.099       30.210       21.916      533.556      912.617      480.327        0.141        0.096       29.260       18.230        0.388      341.206       15.759      861.410
09/09/2014  01:35:00       52.880      -35.759       -1.922       38.542       29.391       22.469     1485.500      863.842      504.844        0.347        0.143       63.836       19.111        0.090      341.388       16.066      861.435
09/09/2014  01:36:00       70.436       -0.317        7.686       21.802       19.745       22.248      475.314      389.871      494.957        0.319        0.068       70.437        7.270        0.011      341.396       16.077      861.424
09/09/2014  01:37:00       23.996      -29.137        5.489       16.707       28.657       14.574      279.134      821.235      212.415        0.138        0.066       37.746       13.010        0.119      341.445       16.164      861.417
09/09/2014  01:38:00      -18.979      -17.358       -3.213       12.765       15.758        6.113      162.950      248.305       37.372        0.056        0.022       25.719        4.533        0.031      341.900       16.934      861.417
09/09/2014  01:39:00       20.505      -40.768        1.716       26.923       30.145       17.072      724.829      908.740      291.439        0.200        0.096       45.635       12.154        0.071      341.721       16.629      861.412
09/09/2014  01:40:00       -8.112        6.647       29.284       17.153       31.944       15.700      294.236     1020.411      246.483        0.126        0.078       10.488       12.315        1.379      341.426       16.130      861.401
09/09/2014  01:41:00        3.655       -8.348       16.473       24.504       33.481       24.658      600.466     1121.003      608.026        0.134        0.116        9.113       20.286        4.955      341.307       15.930      861.375
09/09/2014  01:42:00        6.558       -9.795       21.756       31.735       41.166       28.372     1007.134     1694.653      804.955        0.206        0.175       11.788       15.254        1.674      340.996       15.403      861.342
09/09/2014  01:43:00       62.253     -100.099       -9.450       31.162       47.061       22.041      971.058     2214.715      485.793        0.883        0.184      117.879       12.570        0.011      341.640       16.493      861.334
09/09/2014  01:44:00      -46.491      -43.723        0.907       33.538       39.854       16.837     1124.768     1588.362      283.469        0.353        0.150       63.822       12.367        0.038      341.653       16.516      861.354
09/09/2014  01:45:00      -61.578      -33.928        7.771       37.323       33.540       23.851     1393.017     1124.936      568.848        0.404        0.154       70.306       22.896        0.106      341.428       16.134      861.377
09/09/2014  01:46:00      -27.942       -9.065       12.232       41.871       33.541       21.237     1753.189     1124.988      451.008        0.217        0.166       29.376       21.238        0.523      341.209       15.763      861.389
09/09/2014  01:47:00       32.489        1.495       20.170       34.051       19.990       16.917     1159.480      399.594      286.200        0.165        0.092       32.523       18.978        0.340      340.839       15.138      861.338
09/09/2014  01:48:00       -0.644      -11.401       -4.650       15.561       26.249       16.941      242.135      689.010      287.009        0.068        0.061       11.420       13.867        1.475      340.998       15.407      861.322
09/09/2014  01:49:00      -16.794      -52.705       11.306       34.530       31.679       14.083     1192.324     1003.586      198.340        0.279        0.120       55.316       11.124        0.040      341.364       16.025      861.349
09/09/2014  01:50:00      -16.086      -26.614        7.869       24.275       42.033       19.046      589.293     1766.734      362.769        0.187        0.136       31.097       21.339        0.471      341.489       16.238      861.370
09/09/2014  01:51:00      -23.321        2.344        3.331       21.111       19.588       26.007      445.663      383.689      676.364        0.103        0.075       23.438       16.307        0.484      341.376       16.046      861.355
09/09/2014  01:52:00       -7.416       10.577      -10.282       14.298       17.160       11.896      204.440      294.474      141.510        0.046        0.032       12.918       10.634        0.678      341.511       16.275      861.361
09/09/2014  01:53:00       41.980      -35.910       -3.304       34.746       25.550       21.465     1207.258      652.810      460.743        0.269        0.116       55.243       16.203        0.086      341.099       15.577      861.355
09/09/2014  01:54:00       11.807       -7.031        2.297       35.962       32.269       25.499     1293.300     1041.310      650.183        0.159        0.149       13.743       27.732        4.072      340.972       15.362      861.335
09/09/2014  01:55:00      -55.097      -28.240       -4.424       48.736       17.578       13.400     2375.204      308.975      179.551        0.336        0.143       61.913        3.669        0.004      341.259       15.847      861.361
09/09/2014  01:56:00      -24.898      -16.479       15.032       64.278       29.917       18.187     4131.677      895.001      330.779        0.324        0.268       29.858       17.118        0.329      341.259       15.847      861.368
09/09/2014  01:57:00       16.947       -3.965       -0.854       26.575       19.681       19.044      706.238      387.344      362.666        0.088        0.073       17.405       11.716        0.453      340.901       15.241      861.337
09/09/2014  01:58:00       -2.285       16.559       -7.165       13.048       21.392       11.636      170.251      457.610      135.399        0.055        0.038       16.716       10.696        0.409      341.147       15.658      861.336
09/09/2014  01:59:00      -34.221      -10.568        2.194       20.887       18.600       12.444      436.277      345.965      154.865        0.111        0.047       35.816       13.301        0.138      341.481       16.225      861.337
09/09/2014  02:00:00       29.509      -12.811        3.711       32.539       20.303       12.888     1058.800      412.221      166.096        0.134        0.082       32.170        9.719        0.091      340.946       15.318      861.328
09/09/2014  02:01:00       -0.748      -31.407        3.867       34.392       22.972       19.687     1182.777      527.731      387.586        0.155        0.105       31.416       14.382        0.210      341.209       15.763      861.323
09/09/2014  02:02:00       43.540      -21.962       10.418       27.961       24.575       17.783      781.834      603.930      316.225        0.209        0.085       48.765       17.768        0.133      341.072       15.530      861.304
09/09/2014  02:03:00       12.385      -45.843        5.440       21.084       27.890       20.521      444.552      777.870      421.126        0.196        0.082       47.486       19.827        0.174      341.320       15.951      861.308
09/09/2014  02:04:00        4.761       -7.766       14.539       19.000       15.421       10.160      360.999      237.803      103.225        0.050        0.035        9.109       10.288        1.276      341.019       15.442      861.299
09/09/2014  02:05:00       26.839       -9.397       17.954       21.984       16.711       24.118      483.284      279.254      581.671        0.124        0.067       28.436       14.111        0.246      340.707       14.914      861.311
09/09/2014  02:06:00       15.296      -20.488       26.492       24.208       37.970       14.952      586.005     1441.695      223.573        0.180        0.113       25.568       10.705        0.175      340.971       15.361      861.324
09/09/2014  02:07:00      -45.894       -6.910        6.205       43.788       33.085       23.476     1917.360     1094.634      551.105        0.288        0.178       46.411       30.269        0.425      341.144       15.652      861.322
09/09/2014  02:08:00      -68.625      -98.145       -8.445       41.068       43.672       27.493     1686.566     1907.272      755.841        0.938        0.217      119.757       22.511        0.035      341.744       16.671      861.320
09/09/2014  02:09:00      -46.445     -141.578        5.843       35.922       34.975       21.615     1290.384     1223.273      467.201        1.261        0.149      149.002        9.283        0.004      341.859       16.865      861.302
09/09/2014  02:10:00      -28.261      -79.186        3.399       31.291       28.120       19.439      979.144      790.720      377.856        0.461        0.107       84.078       14.894        0.031      341.792       16.750      861.296
09/09/2014  02:11:00      -20.374      -29.958        8.080       36.036       26.911       19.836     1298.563      724.223      393.456        0.190        0.121       36.229       18.443        0.259      341.538       16.319      861.306
09/09/2014  02:12:00      -11.898      -42.367       -5.273       22.815       28.105       25.850      520.535      789.892      668.200        0.197        0.099       44.006        8.997        0.042      341.549       16.340      861.292
09/09/2014  02:13:00      -20.084      -15.859       -6.139       19.075       14.345       15.411      363.857      205.769      237.511        0.075        0.040       25.591        7.306        0.082      341.567       16.368      861.287
09/09/2014  02:14:00       -0.925      -43.365        2.193       29.625       42.966       28.891      877.645     1846.074      834.679        0.272        0.178       43.374       17.838        0.169      341.473       16.211      861.289
09/09/2014  02:15:00        0.958      -17.815       11.301       22.708       21.972       17.643      515.668      482.749      311.290        0.088        0.065       17.840       14.057        0.621      341.556       16.351      861.289
09/09/2014  02:16:00       -8.119       -5.082        8.275       24.239       32.754       19.463      587.513     1072.793      378.793        0.110        0.102        9.578       14.084        2.162      341.248       15.828      861.268
09/09/2014  02:17:00      -21.891      -45.471       -4.962       27.851       24.037       17.232      775.698      577.768      296.941        0.211        0.083       50.466        9.502        0.035      341.399       16.084      861.280
09/09/2014  02:18:00      -14.576      -36.567       11.660       25.183       28.648       21.117      634.169      820.722      445.946        0.179        0.095       39.365        7.329        0.035      341.450       16.172      861.293
09/09/2014  02:19:00       -0.694      -60.924        3.265       30.554       40.556       36.359      933.524     1644.812     1321.996        0.381        0.195       60.928       10.023        0.027      341.371       16.037      861.288
09/09/2014  02:20:00      -43.519      -19.318        4.410       30.941       20.570       18.746      957.367      423.105      351.429        0.201        0.087       47.614       13.583        0.081      341.545       16.333      861.295
09/09/2014  02:21:00      -36.787      -25.496        8.991       53.027       48.394       21.577     2811.869     2341.950      465.583        0.385        0.281       44.758       24.095        0.290      341.498       16.252      861.290
09/09/2014  02:22:00      -49.727      -37.730       12.080       54.327       42.843       26.322     2951.384     1835.537      692.835        0.476        0.274       62.421       19.032        0.093      341.547       16.335      861.295
09/09/2014  02:23:00      -24.727      -10.620       18.897       27.431       33.927       17.754      752.482     1151.045      315.188        0.165        0.111       26.912       16.261        0.365      341.428       16.133      861.306
09/09/2014  02:24:00      -51.239      -88.023        6.764       31.100       35.182       24.872      967.231     1237.787      618.621        0.662        0.141      101.850       18.657        0.034      341.676       16.555      861.319
09/09/2014  02:25:00      -65.202      -60.317       -1.075       33.974       48.378       26.673     1154.233     2340.443      711.450        0.605        0.210       88.822       14.291        0.026      341.678       16.557      861.323
09/09/2014  02:26:00      -88.076     -110.272      -10.625       30.973       34.257       22.926      959.322     1173.515      525.598        1.134        0.133      141.129       13.728        0.009      341.761       16.698      861.337
09/09/2014  02:27:00      -78.111      -81.810       -1.896       38.699       40.492       22.559     1497.581     1639.633      508.929        0.822        0.182      113.112       16.236        0.021      341.670       16.544      861.319
09/09/2014  02:28:00      -25.812     -122.514       -1.237       23.181       33.824       26.693      537.344     1144.053      712.530        0.904        0.120      125.204       18.430        0.022      341.789       16.746      861.287
09/09/2014  02:29:00      -29.547      -46.001       10.177       44.973       32.063       22.635     2022.564     1028.017      512.322        0.333        0.178       54.672       22.417        0.168      341.645       16.502      861.267
09/09/2014  02:30:00      -24.989      -84.322        6.708       29.342       52.461       19.545      860.924     2752.142      382.021        0.589        0.200       87.947       22.971        0.068      341.618       16.456      861.243
09/09/2014  02:31:00      -33.760      -56.382        9.973       52.252       53.785       32.591     2730.300     2892.831     1062.150        0.555        0.334       65.716       31.622        0.232      341.604       16.432      861.227
09/09/2014  02:32:00        3.925      -20.091       15.878       34.848       37.632       26.356     1214.406     1416.172      694.634        0.200        0.166       20.470       17.109        0.699      341.256       15.842      861.201
09/09/2014  02:33:00      -19.125      -44.204       12.645       56.687       27.569       23.625     3213.372      760.061      558.158        0.350        0.227       48.164       23.403        0.236      341.635       16.484      861.204
09/09/2014  02:34:00      -23.003      -53.574       10.033       36.525       48.518       22.428     1334.097     2353.958      502.999        0.384        0.210       58.304       21.657        0.138      341.390       16.070      861.211
09/09/2014  02:35:00      -52.312     -103.486        4.151       45.383       49.521       22.459     2059.634     2452.337      504.413        0.924        0.251      115.957       22.305        0.037      341.683       16.568      861.204
09/09/2014  02:36:00      -13.216      -87.054        6.404       43.827       42.693       26.328     1920.825     1822.706      693.170        0.611        0.222       88.051       23.287        0.070      341.439       16.153      861.175
09/09/2014  02:37:00       37.025      -18.004       -5.890       33.637       27.324       18.109     1131.439      746.613      327.920        0.197        0.110       41.170       21.152        0.264      340.560       14.665      861.177
09/09/2014  02:38:00       13.476      -45.756        0.505       27.204       23.484       21.726      740.050      551.489      472.035        0.202        0.088       47.699       15.196        0.101      341.009       15.425      861.191
09/09/2014  02:39:00      -40.873      -50.287       -6.013       22.885       31.008       23.481      523.742      961.488      551.378        0.314        0.102       64.803       12.401        0.037      341.626       16.470      861.207
09/09/2014  02:40:00        7.065      -33.025        5.551       23.975       35.466       19.677      574.796     1257.803      387.165        0.170        0.111       33.772       20.511        0.369      341.226       15.792      861.226
09/09/2014  02:41:00       -3.910      -31.609        6.270       14.470       31.140       20.546      209.370      969.713      422.142        0.133        0.080       31.850       15.953        0.251      341.217       15.777      861.241
09/09/2014  02:42:00       47.647       -6.766       26.691       30.789       22.046       21.215      947.940      486.016      450.075        0.246        0.094       48.125        7.530        0.024      340.409       14.410      861.243
09/09/2014  02:43:00       56.894       15.571       -0.502       20.592       21.894       21.248      424.029      479.364      451.483        0.242        0.068       58.986       15.541        0.069      340.688       14.881      861.247
09/09/2014  02:44:00       58.414       53.649        5.610       12.317       15.625       18.527      151.699      244.131      343.236        0.353        0.037       79.312        6.579        0.007      340.730       14.952      861.245
09/09/2014  02:45:00      100.959       53.651       21.271       33.138       40.201       20.723     1098.109     1616.085      429.436        0.833        0.157      114.329        5.585        0.002      340.609       14.748      861.247
09/09/2014  02:46:00       32.194       27.428       29.899       25.168       29.715       31.714      633.414      882.965     1005.774        0.260        0.126       42.293       22.784        0.290      340.372       14.347      861.286
09/09/2014  02:47:00       22.862       17.871        8.275       19.689       24.452       20.547      387.656      597.895      422.168        0.116        0.070       29.018       15.376        0.281      340.117       13.916      861.313
09/09/2014  02:48:00       60.712       34.252       10.468       29.720       32.513       25.555      883.271     1057.068      653.074        0.378        0.130       69.708       10.976        0.025      340.258       14.155      861.319
09/09/2014  02:49:00      113.507       65.618       39.898       30.785       25.648       25.589      947.738      657.808      654.814        1.052        0.113      131.109       17.435        0.018      340.551       14.649      861.321
09/09/2014  02:50:00      118.106       64.488       20.197       37.016       29.346       25.254     1370.201      861.204      637.769        1.069        0.143      134.565       10.636        0.006      340.588       14.712      861.316
09/09/2014  02:51:00       45.589       50.501        9.304       63.494       37.797       31.586     4031.425     1428.647      997.646        0.559        0.323       68.035       27.163        0.159      340.531       14.617      861.347
09/09/2014  02:52:00       30.214       48.091       -0.987       28.754       35.350       21.207      826.818     1249.590      449.740        0.288        0.126       56.794       17.484        0.095      340.515       14.588      861.393
09/09/2014  02:53:00       76.700       61.796        8.360       63.486       46.009       29.755     4030.502     2116.848      885.368        0.840        0.352       98.496       26.921        0.075      340.659       14.832      861.401
09/09/2014  02:54:00      123.017       86.460       19.248       48.627       30.067       31.112     2364.545      903.997      967.985        1.361        0.212      150.362       20.649        0.019      340.683       14.873      861.405
09/09/2014  02:55:00       58.180       52.595       12.381       47.433       30.115       30.015     2249.880      906.929      900.887        0.518        0.203       78.429       22.645        0.083      340.554       14.655      861.422
09/09/2014  02:56:00       41.365      104.470       -2.288       49.523       36.743       30.803     2452.574     1350.026      948.830        0.869        0.238      112.362       23.216        0.043      340.545       14.640      861.436
09/09/2014  02:57:00      169.804      114.549       37.600       55.470       44.889       36.238     3076.903     2015.067     1313.213        2.489        0.320      204.828       28.269        0.019      340.623       14.768      861.416
09/09/2014  02:58:00      144.840      107.168       33.179       66.836       45.643       43.123     4467.098     2083.296     1859.562        2.099        0.420      180.176       25.480        0.020      340.620       14.764      861.406
09/09/2014  02:59:00       96.491       64.532       23.311       62.745       45.711       36.200     3936.929     2089.517     1310.421        1.068        0.367      116.081       25.710        0.049      340.501       14.564      861.436
09/09/2014  03:00:00        9.594       25.561        2.068       52.566       23.906       19.867     2763.178      571.517      394.695        0.224        0.186       27.303       16.000        0.343      340.387       14.373      861.475
09/09/2014  03:01:00      -58.042      -31.555      -17.084       24.414       18.141       17.941      596.051      329.111      321.865        0.295        0.062       66.065        8.331        0.016      340.637       14.796      861.502
09/09/2014  03:02:00      -29.622      -12.322       -8.195       16.948       13.015       12.491      287.248      169.397      156.020        0.085        0.031       32.082       11.226        0.122      340.594       14.722      861.511
09/09/2014  03:03:00       26.168       10.748       15.045       17.289       15.397       15.539      298.897      237.078      241.471        0.090        0.039       28.290       10.647        0.142      340.286       14.201      861.488
09/09/2014  03:04:00       97.975       61.629       27.839       37.622       44.115       32.327     1415.402     1946.151     1045.005        0.929        0.220      115.747       16.331        0.020      340.469       14.512      861.451
09/09/2014  03:05:00       91.259       53.229        9.780       44.458       26.683       23.161     1976.528      711.959      536.447        0.724        0.161      105.648       16.122        0.023      340.595       14.725      861.434
09/09/2014  03:06:00      103.083       54.863       13.802       38.438       28.656       25.247     1477.453      821.162      637.412        0.838        0.147      116.773       13.904        0.014      340.750       14.985      861.423
09/09/2014  03:07:00      114.709       75.229       21.847       55.346       41.993       31.122     3063.141     1763.373      968.600        1.254        0.290      137.177       22.579        0.027      340.749       14.983      861.422
09/09/2014  03:08:00      110.451       54.833       34.205       42.551       28.861       27.926     1810.565      832.948      779.854        0.990        0.171      123.313       23.491        0.036      340.420       14.428      861.409
09/09/2014  03:09:00       21.158       40.341       16.994       48.723       29.662       30.317     2373.956      879.828      919.107        0.327        0.209       45.553       15.043        0.109      340.246       14.134      861.404
09/09/2014  03:10:00     -164.949      -20.686      -21.349       40.933       27.160       14.579     1675.493      737.658      212.533        1.536        0.131      166.241       13.829        0.007      340.511       14.581      861.451
09/09/2014  03:11:00     -135.053       -6.123      -10.157       48.281       28.713       22.841     2331.023      824.428      521.730        1.103        0.184      135.192       21.228        0.025      340.528       14.609      861.485
09/09/2014  03:12:00      -43.930       50.384       -5.735       28.548       32.940       18.206      815.015     1085.024      331.459        0.337        0.112       66.846       20.695        0.096      340.661       14.835      861.475
09/09/2014  03:13:00      -58.411       85.741      -22.879       28.884       34.540       18.003      834.298     1193.027      324.118        0.682        0.118      103.746       18.182        0.031      341.177       15.709      861.474
09/09/2014  03:14:00      -51.239       81.538      -17.426       37.624       51.591       35.791     1415.575     2661.617     1280.979        0.747        0.268       96.301       28.852        0.090      341.208       15.761      861.474
09/09/2014  03:15:00       17.682       56.877        0.025       55.492       46.959       22.832     3079.402     2205.193      521.300        0.468        0.290       59.562       27.823        0.218      341.123       15.618      861.467
09/09/2014  03:16:00       87.199       25.076       25.077       43.726       28.777       24.495     1912.004      828.144      599.981        0.610        0.167       90.733       23.354        0.066      340.614       14.756      861.448
09/09/2014  03:17:00       84.015       65.202       11.057       43.503       41.822       31.988     1892.536     1749.084     1023.226        0.805        0.233      106.348       24.498        0.053      340.946       15.317      861.447
09/09/2014  03:18:00       42.869       18.723       11.887       40.655       28.260       21.247     1652.812      798.610      451.434        0.262        0.145       46.779        9.753        0.043      340.580       14.700      861.462
09/09/2014  03:19:00       20.487       25.811        8.025       28.954       22.685       17.504      838.356      514.616      306.395        0.140        0.083       32.953       11.407        0.120      340.598       14.729      861.458
09/09/2014  03:20:00      -81.853        8.009       -9.702       41.337       15.448       14.448     1708.719      238.642      208.741        0.451        0.108       82.244       19.104        0.054      340.589       14.714      861.480
09/09/2014  03:21:00      -90.307        7.185      -10.507       29.510       15.130       12.028      870.822      228.922      144.671        0.478        0.062       90.592       11.706        0.017      340.609       14.749      861.510
09/09/2014  03:22:00      -28.195       37.244       -7.355       29.095       21.816       13.629      846.544      475.926      185.753        0.187        0.075       46.713       14.502        0.096      340.930       15.291      861.502
09/09/2014  03:23:00       91.204       40.947       13.560       45.002       20.756       23.623     2025.198      430.827      558.065        0.660        0.151       99.974       16.149        0.026      340.163       13.994      861.466
09/09/2014  03:24:00       63.934       10.356       17.734       46.286       26.422       28.203     2142.418      698.136      795.422        0.407        0.182       64.767       19.274        0.089      340.306       14.236      861.447
09/09/2014  03:25:00        6.094       26.689      -10.624       27.954       27.249       20.868      781.409      742.498      435.460        0.141        0.098       27.376       20.160        0.542      340.559       14.664      861.449
09/09/2014  03:26:00        4.663        5.264       -0.775       22.200       23.745       15.554      492.839      563.810      241.924        0.067        0.065        7.033       18.406        6.850      340.642       14.803      861.463
09/09/2014  03:27:00      -12.027      -18.323       -2.408       12.582        8.285       10.129      158.303       68.643      102.593        0.041        0.016       21.917        9.540        0.189      340.661       14.837      861.477
09/09/2014  03:28:00       38.667       -8.224       17.879       32.867       14.639       17.210     1080.271      214.292      296.170        0.174        0.080       39.532        5.199        0.017      340.269       14.173      861.466
09/09/2014  03:29:00       99.481       -9.948        6.394       21.669       22.134       22.392      469.551      489.904      501.422        0.575        0.073       99.978       10.571        0.011      340.281       14.195      861.441
09/09/2014  03:30:00       23.994      -28.322        6.632       33.719       32.934       18.871     1136.992     1084.666      356.133        0.200        0.129       37.119       16.656        0.201      339.952       13.639      861.449
09/09/2014  03:31:00       12.941      -28.767        6.558       15.815       28.013       24.403      250.126      784.712      595.519        0.133        0.082       31.544       17.257        0.299      340.519       14.596      861.497
09/09/2014  03:32:00       48.012      -20.273       15.535       17.253       13.385       13.011      297.673      179.157      169.286        0.180        0.032       52.117        6.470        0.015      340.687       14.879      861.521
09/09/2014  03:33:00       63.564       11.045       24.704       25.802       29.774       25.052      665.751      886.481      627.613        0.348        0.109       64.517       20.085        0.097      340.106       13.898      861.510
09/09/2014  03:34:00       62.567       48.136       56.219       43.341       28.509       30.008     1878.472      812.777      900.483        0.649        0.180       78.941       25.459        0.104      339.954       13.641      861.494
09/09/2014  03:35:00       -5.101       35.478       71.079       17.597       33.736       24.629      309.647     1138.141      606.609        0.420        0.103       35.843       24.408        0.464      340.127       13.934      861.478
09/09/2014  03:36:00      -22.537      -14.892       10.976       29.249       26.959       22.792      855.515      726.777      519.478        0.148        0.105       27.013       20.030        0.550      340.129       13.937      861.506
09/09/2014  03:37:00       -0.543        7.042       27.169       17.836       26.596       14.242      318.139      707.337      202.844        0.101        0.061        7.063       14.770        4.372      339.910       13.569      861.538
09/09/2014  03:38:00       43.908      -27.315       17.398       47.699       26.029       25.318     2275.190      677.522      640.996        0.328        0.180       51.711       19.477        0.142      340.178       14.019      861.552
09/09/2014  03:39:00       37.229       18.339       28.567       33.541       26.991       23.788     1124.984      728.519      565.888        0.248        0.121       41.501       22.634        0.297      339.835       13.442      861.553
09/09/2014  03:40:00       65.362       31.545       31.487       36.086       29.525       30.326     1302.192      871.701      919.694        0.468        0.155       72.576       18.842        0.067      339.740       13.281      861.570
09/09/2014  03:41:00       61.586       75.470       58.310       46.366       29.822       30.561     2149.769      889.355      933.965        0.843        0.199       97.409       25.481        0.068      340.045       13.794      861.565
09/09/2014  03:42:00       62.277       72.289       67.643       47.596       35.278       38.767     2265.351     1244.517     1502.845        0.935        0.251       95.416       24.423        0.066      340.078       13.849      861.549
09/09/2014  03:43:00       91.463       14.805       12.654       43.127       46.987       32.964     1859.976     2207.763     1086.595        0.695        0.258       92.654       28.333        0.094      339.995       13.711      861.555
09/09/2014  03:44:00       59.156      -14.481        8.955       26.518       17.774       19.659      703.183      315.910      386.465        0.260        0.070       60.903       16.401        0.073      339.755       13.307      861.570
09/09/2014  03:45:00       81.677      -25.925       -3.098       34.978       29.476       24.579     1223.462      868.824      604.104        0.502        0.135       85.693       18.896        0.049      339.739       13.279      861.550
09/09/2014  03:46:00       76.887      -35.806        8.713       42.320       36.577       31.575     1791.019     1337.896      996.976        0.570        0.206       84.816       27.451        0.105      339.466       12.819      861.547
09/09/2014  03:47:00       65.528      -15.782        9.451       29.666       27.455       30.222      880.059      753.794      913.350        0.359        0.127       67.402       18.374        0.074      339.558       12.972      861.570
09/09/2014  03:48:00       51.846      -11.623       15.070       26.405       13.033       14.699      697.224      169.848      216.051        0.207        0.054       53.133       13.127        0.061      339.699       13.212      861.579
09/09/2014  03:49:00       39.607      -10.861        8.935       30.240       15.679       17.284      914.463      245.815      298.720        0.161        0.073       41.069        5.118        0.016      339.682       13.182      861.581
09/09/2014  03:50:00        6.994      -37.594       -8.139       28.961       23.392       20.217      838.763      547.174      408.737        0.166        0.090       38.239       15.462        0.164      339.578       13.007      861.579
09/09/2014  03:51:00        2.558       -2.593        6.985       29.261        9.024       16.265      856.215       81.432      264.535        0.063        0.060        3.642       11.335        9.687      339.900       13.550      861.587
09/09/2014  03:52:00        3.119       -5.154        7.887       18.872       20.350       19.823      356.162      414.140      392.961        0.063        0.058        6.025       12.522        4.320      340.104       13.894      861.581
09/09/2014  03:53:00       45.178       28.101       48.793       25.679       30.242       23.706      659.407      914.607      561.986        0.367        0.107       53.205       23.188        0.190      339.796       13.374      861.559
09/09/2014  03:54:00       17.734       15.030       45.717       18.892       20.306       11.133      356.902      412.314      123.951        0.176        0.045       23.247       11.396        0.240      339.767       13.327      861.564
09/09/2014  03:55:00       34.961      -14.541       22.222       31.284       40.136       25.425      978.688     1610.858      646.425        0.258        0.162       37.865       28.772        0.577      339.785       13.356      861.564
09/09/2014  03:56:00       22.594      -20.276        7.311       25.224       32.605       18.909      636.243     1063.105      357.556        0.152        0.103       30.358       12.276        0.164      339.799       13.381      861.555
09/09/2014  03:57:00      -13.062       -5.642        4.125       17.838       20.083       12.652      318.191      403.332      160.073        0.055        0.044       14.228       12.411        0.761      339.891       13.536      861.568
09/09/2014  03:58:00      -15.966      -26.651       -5.920       40.328       14.323       12.411     1626.361      205.136      154.025        0.149        0.099       31.067       15.384        0.245      340.139       13.954      861.556
09/09/2014  03:59:00      -52.906      -19.594       -0.492       31.119       19.979       18.813      968.423      399.179      353.929        0.245        0.086       56.418       11.668        0.043      340.198       14.053      861.550
09/09/2014  04:00:00        4.424       -9.808       -1.609       17.979       19.109       14.296      323.236      365.162      204.379        0.051        0.045       10.760        5.946        0.305      340.079       13.853      861.562
09/09/2014  04:01:00       12.506       -5.715       -0.679       23.194       22.845       18.752      537.939      521.915      351.624        0.080        0.071       13.750       12.447        0.819      339.897       13.545      861.543
09/09/2014  04:02:00       70.412      -36.642       -2.973       28.821       32.405       21.215      830.635     1050.088      450.072        0.432        0.117       79.375       17.605        0.049      339.714       13.237      861.547
09/09/2014  04:03:00       24.165      -24.763       18.145       21.986       20.634       15.246      483.394      425.775      232.450        0.133        0.057       34.600       13.803        0.159      340.080       13.856      861.555
09/09/2014  04:04:00       17.308       -8.917       12.416       22.066       19.169       14.980      486.913      367.457      224.404        0.081        0.054       19.469        7.217        0.137      339.944       13.625      861.545
09/09/2014  04:05:00       56.113      -44.302        6.455       34.755       34.451       19.832     1207.918     1186.867      393.324        0.397        0.139       71.493       22.295        0.097      339.954       13.641      861.537
09/09/2014  04:06:00       -7.068      -25.815       12.977       47.714       25.182       14.086     2276.592      634.116      198.423        0.200        0.155       26.765       15.385        0.330      340.232       14.110      861.564
09/09/2014  04:07:00      -66.918      -35.715        2.035       41.312       26.936       20.441     1706.676      725.540      417.834        0.430        0.143       75.853       16.922        0.050      340.118       13.918      861.584
09/09/2014  04:08:00        1.664       -0.508       16.022       11.007       19.692        7.094      121.144      387.791       50.322        0.041        0.028        1.740        5.894       11.473      339.871       13.500      861.595
09/09/2014  04:09:00      -18.745       20.728       -3.826       14.186       19.057        9.293      201.237      363.161       86.360        0.072        0.033       27.947        9.306        0.111      339.850       13.467      861.613
09/09/2014  04:10:00      -17.262       14.039       -4.310       11.524       14.082        8.353      132.799      198.300       69.769        0.046        0.020       22.251        5.330        0.057      339.880       13.516      861.606
09/09/2014  04:11:00      -53.750       38.391      -12.903       12.067       12.576        6.467      145.610      158.144       41.819        0.244        0.017       66.052        6.136        0.009      340.211       14.075      861.595
09/09/2014  04:12:00      -21.784       26.917       -6.886       12.449       14.131        6.561      154.966      199.672       43.052        0.082        0.020       34.628        4.129        0.014      340.309       14.244      861.592
09/09/2014  04:13:00      -14.830        6.756       -2.351       12.310       16.393        7.780      151.537      268.740       60.536        0.038        0.024       16.296        5.336        0.107      340.099       13.888      861.607
09/09/2014  04:14:00      -27.381        0.304        2.974        8.230        8.677        8.053       67.729       75.283       64.847        0.048        0.010       27.383        4.491        0.027      340.108       13.902      861.607
09/09/2014  04:15:00      -14.862        4.807        3.041       12.950       11.743        9.131      167.706      137.894       83.369        0.032        0.019       15.620        7.217        0.213      339.829       13.431      861.615
09/09/2014  04:16:00      -10.135       20.257       -1.725       11.926       13.006        8.636      142.237      169.162       74.573        0.045        0.019       22.650        5.167        0.052      339.939       13.617      861.623
09/09/2014  04:17:00      -34.114       36.947       -7.236       15.538       12.915        8.070      241.442      166.807       65.128        0.153        0.024       50.287        4.239        0.007      340.025       13.760      861.620
09/09/2014  04:18:00      -43.473        4.559       -4.865       16.659       17.407       12.600      277.528      303.020      158.751        0.134        0.037       43.711        7.374        0.028      340.010       13.735      861.628
09/09/2014  04:19:00      -64.085       -1.009       -1.817       18.642       18.750       12.432      347.511      351.559      154.562        0.248        0.043       64.093       10.779        0.028      339.932       13.605      861.646
09/09/2014  04:20:00      -65.886       12.268      -10.618       15.857       11.896        9.061      251.451      141.511       82.093        0.254        0.024       67.019        8.375        0.016      340.033       13.773      861.661
09/09/2014  04:21:00      -39.757       -5.648       -7.509       11.431       11.241        7.535      130.667      126.354       56.783        0.099        0.016       40.156        6.666        0.028      340.093       13.876      861.659
09/09/2014  04:22:00      -67.907       -9.068       -4.515       17.476       23.609       14.255      305.393      557.393      203.198        0.289        0.053       68.509       10.993        0.026      339.961       13.654      861.653
09/09/2014  04:23:00      -70.924       33.893      -11.024       30.731       24.625       21.303      944.378      606.367      453.802        0.415        0.100       78.606       16.826        0.046      339.882       13.519      861.651
09/09/2014  04:24:00      -78.940       97.832      -24.712       15.089       19.606       10.662      227.673      384.389      113.683        0.857        0.036      125.709        8.895        0.005      340.216       14.083      861.643
09/09/2014  04:25:00      -69.232       68.796      -15.762       18.183       20.911       12.350      330.636      437.282      152.514        0.535        0.046       97.601       11.078        0.013      340.094       13.878      861.642
09/09/2014  04:26:00      -54.030      -12.873       -3.122       24.153       27.079       14.920      583.389      733.270      222.598        0.232        0.077       55.542       12.650        0.052      339.966       13.662      861.642
09/09/2014  04:27:00      -97.015      -47.339       -5.974       40.221       36.873       20.413     1617.753     1359.638      416.702        0.754        0.170      107.948       17.641        0.027      339.764       13.321      861.637
09/09/2014  04:28:00     -130.795      -30.864       -6.857       33.187       21.796       21.655     1101.346      475.062      468.933        1.008        0.102      134.387       20.204        0.023      339.584       13.017      861.650
09/09/2014  04:29:00     -113.775      -14.731       -4.574       44.160       41.227       25.256     1950.080     1699.663      637.842        0.873        0.214      114.725       22.195        0.037      339.489       12.857      861.669
09/09/2014  04:30:00     -130.041      -18.519       -7.170       59.784       25.072       23.512     3574.163      628.603      552.818        1.103        0.238      131.353       25.425        0.037      339.552       12.964      861.676
09/09/2014  04:31:00      -80.619      -30.100       -6.444       20.309       12.335       11.682      412.474      152.159      136.460        0.407        0.035       86.054        9.278        0.012      339.663       13.150      861.668
09/09/2014  04:32:00      -77.660      -39.852       -3.979       15.149       14.043       11.494      229.481      197.197      132.103        0.410        0.028       87.288        7.454        0.007      339.771       13.334      861.660
09/09/2014  04:33:00      -24.398      -17.940        1.713       21.888       15.702       14.870      479.094      246.548      221.131        0.093        0.047       30.284       14.886        0.242      339.746       13.292      861.650
09/09/2014  04:34:00      -34.918       -6.951       -7.888       14.855       12.572       10.225      220.686      158.064      104.549        0.091        0.024       35.603       10.458        0.086      339.760       13.315      861.636
09/09/2014  04:35:00      -40.350      -18.103       -2.190       17.723        9.400        9.931      314.093       88.354       98.629        0.123        0.025       44.225       11.250        0.065      339.943       13.621      861.617
09/09/2014  04:36:00      -33.226       -7.590       -6.677       14.149        9.592       11.626      200.192       92.004      135.175        0.082        0.021       34.082        8.066        0.056      340.014       13.742      861.604
09/09/2014  04:37:00      -73.747        1.622      -10.867        7.571        8.547        7.344       57.322       73.050       53.935        0.287        0.009       73.765        5.242        0.005      340.000       13.719      861.600
09/09/2014  04:38:00      -53.791        9.438       -9.656       20.619       11.911        9.500      425.141      141.881       90.242        0.187        0.033       54.612        8.095        0.022      339.921       13.586      861.587
09/09/2014  04:39:00      -24.963       36.959       -7.124       16.510       11.695        8.703      272.564      136.779       75.734        0.126        0.024       44.599        6.902        0.024      340.444       14.467      861.572
09/09/2014  04:40:00      -17.971       -7.486        4.279       13.941       38.258       15.950      194.348     1463.665      254.404        0.115        0.096       19.468       19.802        1.035      340.487       14.540      861.585
09/09/2014  04:41:00      -39.164      -24.964        7.422       60.020       27.109       19.174     3602.400      734.884      367.634        0.346        0.235       46.444       23.285        0.251      339.742       13.284      861.575
09/09/2014  04:42:00     -119.382      -45.365      -16.678       18.463       20.795       11.707      340.865      432.426      137.045        0.875        0.046      127.711        4.404        0.001      339.475       12.833      861.568
09/09/2014  04:43:00     -156.720      -42.726      -18.321       16.728       22.620       13.149      279.822      511.643      172.891        1.384        0.048      162.439        6.434        0.002      339.436       12.767      861.557
09/09/2014  04:44:00     -135.840      -47.531      -13.912       24.364       21.602       15.539      593.613      466.627      241.454        1.110        0.065      143.915        8.056        0.003      339.427       12.751      861.547
09/09/2014  04:45:00      -99.756      -41.244       -7.351       38.327       28.883       17.055     1468.984      834.204      290.863        0.715        0.130      107.946       20.463        0.036      339.370       12.655      861.535
09/09/2014  04:46:00      -10.286        2.725        6.157       19.106       20.695       14.330      365.050      428.281      205.351        0.057        0.050       10.640        9.468        0.792      339.231       12.423      861.521
09/09/2014  04:47:00      -50.027        5.295      -13.218       27.678       27.407       11.168      766.051      751.134      124.718        0.217        0.082       50.307       13.303        0.070      339.519       12.909      861.507
09/09/2014  04:48:00      -60.950      -27.923      -10.997       20.617       24.893       12.245      425.044      619.648      149.931        0.290        0.060       67.042        5.716        0.007      339.764       13.320      861.517
09/09/2014  04:49:00     -121.220      -43.387      -19.227       22.318       16.872       12.739      498.095      284.679      162.287        0.895        0.047      128.751        3.020        0.001      339.629       13.093      861.524
09/09/2014  04:50:00     -133.440      -38.036      -14.579       17.605       24.346       12.983      309.942      592.747      168.551        1.027        0.054      138.756        4.439        0.001      339.576       13.004      861.537
09/09/2014  04:51:00     -125.353      -30.976      -17.012       19.109       14.903       15.779      365.158      222.099      248.976        0.890        0.042      129.124       12.157        0.009      339.390       12.689      861.559
09/09/2014  04:52:00     -108.877      -33.917       -7.338       38.070       27.235       22.914     1449.330      741.740      525.034        0.789        0.136      114.038       18.956        0.028      339.285       12.513      861.571
09/09/2014  04:53:00     -116.562       -2.833       -4.730       38.507       27.658       23.287     1482.820      764.982      542.281        0.820        0.140      116.597       20.505        0.031      339.370       12.657      861.565
09/09/2014  04:54:00     -114.621      -44.366       -4.406       38.673       28.875       21.234     1495.594      833.738      450.896        0.895        0.139      122.908       21.337        0.030      339.420       12.742      861.576
09/09/2014  04:55:00     -115.574      -51.029       -6.837       28.396       19.055       11.651      806.323      363.076      135.738        0.866        0.065      126.338        5.193        0.002      339.497       12.871      861.591
09/09/2014  04:56:00      -79.023      -43.370       -0.622       31.345       21.824       15.219      982.506      476.294      231.622        0.491        0.085       90.142       16.012        0.032      339.469       12.824      861.590
09/09/2014  04:57:00      -63.561      -23.682       -7.119       13.438       17.923       11.700      180.581      321.217      136.896        0.265        0.032       67.830       10.798        0.025      339.655       13.138      861.575
09/09/2014  04:58:00      -46.790      -15.644       -7.259       11.795        8.753        7.280      139.132       76.620       53.003        0.138        0.013       49.336        4.820        0.010      339.730       13.263      861.560
09/09/2014  04:59:00      -88.702        6.944      -10.667       21.170       13.775        7.518      448.175      189.742       56.518        0.436        0.035       88.973        7.546        0.007      339.620       13.078      861.571
09/09/2014  05:00:00     -119.343       -2.338      -13.996       17.153       15.861       10.524      294.219      251.579      110.756        0.755        0.033      119.366        8.289        0.005      339.497       12.869      861.591
09/09/2014  05:01:00      -78.443      -20.300       -4.192       28.578       19.467       16.555      816.700      378.968      274.077        0.403        0.073       81.027       16.972        0.044      339.337       12.601      861.613
09/09/2014  05:02:00      -63.947      -19.587       -1.950       30.463       25.802       14.737      928.012      665.759      217.182        0.314        0.091       66.880       15.710        0.055      339.350       12.624      861.618
09/09/2014  05:03:00      -37.228       -2.318       -6.656       20.266       10.122        8.918      410.709      102.459       79.532        0.101        0.030       37.300        5.871        0.025      339.595       13.035      861.615
09/09/2014  05:04:00        6.129       10.606       -0.510       21.156        7.943        8.369      447.566       63.087       70.047        0.037        0.029       12.249        9.438        0.594      339.884       13.524      861.613
09/09/2014  05:05:00       10.421       22.933        0.003       10.937       12.077        7.888      119.607      145.863       62.227        0.048        0.016       25.190        6.797        0.073      339.988       13.700      861.626
09/09/2014  05:06:00      -40.481       74.723      -11.604       24.518       18.640       12.809      601.137      347.463      164.072        0.423        0.056       84.984       15.215        0.032      340.047       13.799      861.652
09/09/2014  05:07:00      -81.282       36.069       -8.922       25.367       29.645       16.738      643.491      878.804      280.168        0.489        0.090       88.926       15.133        0.029      339.495       12.866      861.660
09/09/2014  05:08:00     -108.137       34.246      -15.664       26.154       29.634       16.191      684.018      878.181      262.147        0.747        0.091      113.430       10.389        0.008      339.413       12.729      861.673
09/09/2014  05:09:00      -69.895       58.779      -18.357       31.909       29.043       21.141     1018.191      843.510      446.942        0.549        0.115       91.325       21.103        0.053      339.517       12.904      861.687
09/09/2014  05:10:00       -7.904       32.297        2.870       21.727       21.110       13.942      472.078      445.652      194.392        0.111        0.056       33.250       11.107        0.112      339.494       12.867      861.664
09/09/2014  05:11:00       -5.931        5.580       -5.309       13.940       18.443       14.722      194.331      340.151      216.747        0.042        0.038        8.143        7.093        0.759      339.695       13.205      861.652
09/09/2014  05:12:00      -48.443      -23.017       -0.534       27.616       13.049        8.096      762.665      170.279       65.550        0.194        0.050       53.633        7.889        0.022      339.581       13.013      861.666
09/09/2014  05:13:00      -60.357      -22.745       -7.165       10.915       12.243        7.839      119.132      149.891       61.449        0.227        0.017       64.501        6.496        0.010      339.455       12.798      861.679
09/09/2014  05:14:00      -50.282      -24.286       -6.913       10.673       10.351       11.494      113.907      107.143      132.118        0.176        0.018       55.840        6.653        0.014      339.396       12.701      861.685
09/09/2014  05:15:00       20.329      -21.927        2.436       25.968       12.089       10.686      674.340      146.143      114.199        0.092        0.047       29.901       11.639        0.152      339.373       12.661      861.678
09/09/2014  05:16:00       55.941      -28.627       11.370       36.600       37.302       28.773     1339.596     1391.438      827.882        0.382        0.178       62.840       26.505        0.178      339.175       12.327      861.677
09/09/2014  05:17:00       45.157      -16.104       13.618       30.923       32.532       33.572      956.233     1058.343     1127.067        0.281        0.157       47.943       23.179        0.234      339.057       12.131      861.695
09/09/2014  05:18:00        1.218      -10.791       23.909       16.223       28.573       23.098      263.193      816.423      533.538        0.115        0.081       10.860       17.071        2.471      339.221       12.406      861.728
09/09/2014  05:19:00      -13.413      -25.786        2.991       19.114       27.956       18.949      365.353      781.521      359.050        0.118        0.075       29.066        8.358        0.083      339.260       12.472      861.758
09/09/2014  05:20:00       13.182      -21.493      -14.442       14.515       17.376       12.616      210.692      301.942      159.151        0.076        0.034       25.213        7.660        0.092      339.239       12.436      861.768
09/09/2014  05:21:00       67.097       38.707       35.773       34.284       27.585       24.359     1175.397      760.940      593.359        0.490        0.126       77.461       12.750        0.027      339.191       12.354      861.742
09/09/2014  05:22:00      -15.594       -6.563       13.609       23.470       30.665       24.932      550.820      940.319      621.599        0.129        0.106       16.919       25.982        2.358      339.109       12.218      861.748
09/09/2014  05:23:00      -60.312      -19.395      -10.387       44.281       18.536       13.360     1960.801      343.584      178.494        0.330        0.124       63.354        5.641        0.008      339.298       12.534      861.785
09/09/2014  05:24:00     -121.163      -32.381       -8.805       38.768       18.618       13.443     1502.953      346.643      180.717        0.892        0.102      125.416       13.896        0.012      339.167       12.313      861.817
09/09/2014  05:25:00      -23.943      -11.002       -1.207       42.059       10.112       11.869     1768.989      102.251      140.865        0.135        0.101       26.350        9.131        0.120      339.145       12.278      861.837
09/09/2014  05:26:00       24.297        6.427        5.485       16.877       25.952       17.359      284.824      673.508      301.330        0.096        0.063       25.133       11.529        0.210      339.258       12.467      861.832
09/09/2014  05:27:00       36.051       -3.644       -4.046       18.345       19.445       21.340      336.549      378.120      455.399        0.125        0.059       36.235       15.344        0.179      339.264       12.478      861.837
09/09/2014  05:28:00       13.122       -8.150      -10.967       27.896       11.956        9.066      778.184      142.939       82.186        0.068        0.050       15.447        7.690        0.248      339.395       12.700      861.857
09/09/2014  05:29:00      -79.404       11.602      -15.956       20.223       13.935       10.174      408.970      194.193      103.503        0.370        0.035       80.247        8.463        0.011      339.229       12.419      861.868
09/09/2014  05:30:00      -95.122      -12.486      -14.233       21.920       14.773       11.298      480.501      218.252      127.643        0.512        0.041       95.938        6.278        0.004      339.217       12.397      861.862
09/09/2014  05:31:00      -48.837       -3.580       -5.579       30.294       11.324       11.421      917.708      128.228      130.444        0.180        0.059       48.968       12.505        0.065      339.290       12.522      861.834
09/09/2014  05:32:00       35.618       -6.193        2.224       25.518        6.781       10.909      651.169       45.979      119.010        0.106        0.041       36.152        5.378        0.022      339.444       12.780      861.804
09/09/2014  05:33:00       49.083       -3.335        2.931       24.058       14.791       13.123      578.802      218.784      172.225        0.170        0.048       49.196        8.358        0.029      339.666       13.156      861.797
09/09/2014  05:34:00       -6.794       -7.866        3.342       21.193       12.134        7.491      449.126      147.232       56.114        0.039        0.033       10.393        4.620        0.198      339.630       13.094      861.800
09/09/2014  05:35:00       -1.801       26.946       -1.246       22.535       21.811       13.351      507.805      475.732      178.260        0.095        0.058       27.006       14.286        0.280      339.314       12.562      861.805
09/09/2014  05:36:00      -28.019        6.057        0.267       21.979       20.589       10.401      483.089      423.897      108.172        0.092        0.051       28.667       11.570        0.163      339.187       12.347      861.814
09/09/2014  05:37:00      -51.671      -16.769      -10.547       11.525        8.845        6.673      132.818       78.239       44.528        0.166        0.013       54.324        4.191        0.006      339.160       12.303      861.817
09/09/2014  05:38:00      -18.301       -9.470       -9.480       18.532       10.510        7.398      343.422      110.468       54.731        0.051        0.025       20.606        7.007        0.116      339.313       12.562      861.801
09/09/2014  05:39:00       -2.295       -1.688        3.544        9.166        4.412        5.419       84.022       19.462       29.367        0.008        0.007        2.849        4.224        2.199      339.308       12.551      861.794
09/09/2014  05:40:00      -26.159       -1.482       -5.755       13.613        9.467        5.066      185.321       89.622       25.669        0.051        0.015       26.201        4.241        0.026      339.244       12.444      861.801
09/09/2014  05:41:00      -51.129      -23.404       -5.752       10.584       11.393        6.886      112.014      129.811       47.420        0.174        0.014       56.231        2.872        0.003      339.168       12.316      861.823
09/09/2014  05:42:00      -56.328      -10.408       -5.965       13.975       11.910       12.387      195.313      141.837      153.428        0.190        0.025       57.281        3.123        0.003      338.899       11.863      861.841
09/09/2014  05:43:00      -45.210      -19.613       -7.393       18.064       11.261        9.538      326.322      126.805       90.972        0.151        0.027       49.281        3.942        0.006      338.938       11.929      861.853
09/09/2014  05:44:00      -58.366      -17.162      -13.408       13.721       13.901       11.628      188.275      193.230      135.221        0.220        0.026       60.837        9.438        0.024      339.046       12.112      861.855
09/09/2014  05:45:00      -64.060       -2.569      -16.178       17.030       17.502       10.701      290.028      306.313      114.502        0.254        0.036       64.112        6.739        0.011      339.009       12.048      861.849
09/09/2014  05:46:00      -45.409      -11.837       -4.844       27.685       22.114       14.428      766.449      489.038      208.161        0.184        0.073       46.926       18.472        0.155      339.144       12.275      861.841
09/09/2014  05:47:00      -14.527      -11.507       -3.563        9.331        9.345        7.215       87.064       87.337       52.063        0.029        0.011       18.532        6.466        0.122      339.119       12.234      861.839
09/09/2014  05:48:00      -67.149       -2.607       -9.306       24.664       14.585        8.957      608.301      212.725       80.230        0.275        0.045       67.200       12.059        0.032      339.079       12.167      861.857
09/09/2014  05:49:00      -99.148      -27.510      -17.269       11.623       18.213       12.007      135.099      331.703      144.180        0.575        0.031      102.894        3.582        0.001      338.929       11.915      861.880
09/09/2014  05:50:00      -47.196      -15.117       -2.045       29.895       16.256       14.944      893.739      264.266      223.311        0.192        0.069       49.557       17.230        0.121      338.935       11.924      861.881
09/09/2014  05:51:00       -5.485       -0.941       -0.095        9.390       11.959       10.803       88.177      143.018      116.707        0.019        0.017        5.565        4.966        0.796      339.022       12.071      861.883
09/09/2014  05:52:00      -73.023      -27.041       -6.341       47.867       25.367       11.611     2291.218      643.477      134.815        0.459        0.153       77.869       14.500        0.035      339.025       12.075      861.888
09/09/2014  05:53:00     -106.363      -44.138      -16.952       18.182       16.214       13.449      330.573      262.900      180.874        0.716        0.039      115.157        9.220        0.006      338.842       11.768      861.872
09/09/2014  05:54:00      -50.159      -24.868      -12.689       24.523       16.989       10.068      601.391      288.623      101.355        0.214        0.050       55.985        8.979        0.026      338.916       11.893      861.848
09/09/2014  05:55:00      -47.764       -5.115       -9.400       15.892       12.330        8.574      252.570      152.036       73.506        0.144        0.024       48.037        5.827        0.015      338.952       11.953      861.833
09/09/2014  05:56:00     -106.496      -21.490      -19.979       26.175       18.759       13.910      685.105      351.917      193.501        0.672        0.062      108.643       13.824        0.016      338.854       11.788      861.850
09/09/2014  05:57:00      -54.070      -15.192       -5.961       33.784       27.891       15.702     1141.340      777.886      246.565        0.268        0.108       56.164       10.575        0.035      338.980       12.001      861.871
09/09/2014  05:58:00      -18.528       -7.444       -7.486       20.155       19.992       12.479      406.212      399.688      155.720        0.071        0.048       19.967        9.386        0.221      339.131       12.253      861.879
09/09/2014  05:59:00      -18.580      -10.656       -7.309       13.996       11.793        9.461      195.884      139.081       89.502        0.047        0.021       21.419        4.025        0.035      339.148       12.282      861.887
09/09/2014  06:00:00      -60.811      -33.895      -11.327       21.829       13.864       15.428      476.504      192.203      238.015        0.294        0.045       69.619       13.455        0.037      338.989       12.015      861.896
09/09/2014  06:01:00      -93.554      -31.351      -14.414       11.728       14.984       10.769      137.544      224.533      115.963        0.521        0.024       98.667        7.240        0.005      338.916       11.891      861.904
09/09/2014  06:02:00      -84.697      -28.499      -10.894       12.615       20.220       11.295      159.145      408.859      127.568        0.440        0.035       89.363        9.806        0.012      338.873       11.821      861.911
09/09/2014  06:03:00      -82.081       -9.574      -17.837       19.359       12.747       11.413      374.782      162.483      130.256        0.391        0.033       82.637       11.312        0.019      338.970       11.983      861.919
09/09/2014  06:04:00      -92.946        6.964      -12.220       18.846       10.011       11.732      355.157      100.216      137.639        0.471        0.030       93.206       10.168        0.012      338.969       11.982      861.938
09/09/2014  06:05:00      -45.396        8.251       -8.839       14.080       10.221       11.177      198.241      104.477      124.920        0.132        0.021       46.140        8.099        0.031      339.047       12.112      861.945
09/09/2014  06:06:00      -53.259       23.281      -16.074       18.178       14.029        6.934      330.436      196.799       48.077        0.211        0.029       58.125        5.574        0.009      339.319       12.571      861.959
09/09/2014  06:07:00      -83.153      -17.375      -18.597       11.739       25.646       10.972      137.805      657.733      120.388        0.424        0.046       84.948        5.095        0.004      338.942       11.938      861.967
09/09/2014  06:08:00      -83.000      -29.931      -13.048       39.258       22.878       19.874     1541.168      523.398      394.964        0.521        0.123       88.232       12.891        0.021      338.755       11.622      861.964
09/09/2014  06:09:00        5.212      -13.955        8.496       19.801       24.281       21.826      392.094      589.590      476.353        0.088        0.073       14.896       16.834        1.277      338.717       11.560      861.965
09/09/2014  06:10:00      -27.162       -2.374      -10.002       17.561        8.101       14.703      308.379       65.619      216.167        0.072        0.030       27.266       11.762        0.186      338.916       11.894      861.979
09/09/2014  06:11:00      -76.006      -45.849       -9.888       33.615       20.982       11.217     1129.953      440.232      125.828        0.484        0.085       88.764        7.298        0.007      338.839       11.762      861.989
09/09/2014  06:12:00      -71.024      -33.286       -4.544       39.395       21.992       18.681     1551.939      483.665      348.997        0.428        0.119       78.437       20.490        0.068      338.743       11.602      861.981
09/09/2014  06:13:00      -99.111      -38.467      -12.292       17.356       14.390        8.299      301.236      207.068       68.881        0.602        0.029      106.314        7.142        0.005      338.835       11.756      861.983
09/09/2014  06:14:00      -79.021      -36.512      -11.951       11.711       12.904        9.577      137.140      166.504       91.728        0.406        0.020       87.048        5.404        0.004      339.031       12.085      861.987
09/09/2014  06:15:00      -60.568      -26.830      -11.608       11.432       11.489        8.916      130.700      132.001       79.501        0.243        0.017       66.245        6.500        0.010      339.256       12.463      861.988
09/09/2014  06:16:00      -48.989      -40.093       -9.760        8.456        8.995        4.727       71.506       80.906       22.348        0.214        0.009       63.304        3.153        0.002      339.306       12.549      861.986
09/09/2014  06:17:00      -56.317      -32.049       -8.476       16.813        9.092        8.710      282.664       82.665       75.870        0.236        0.022       64.798        4.414        0.005      339.107       12.214      861.981
09/09/2014  06:18:00      -44.950      -24.611       -0.544       37.505       20.938       19.106     1406.645      438.401      365.026        0.242        0.111       51.247       13.952        0.074      338.995       12.026      861.971
09/09/2014  06:19:00      -15.962      -27.668        8.409       41.277       30.752       17.393     1703.828      945.656      302.500        0.202        0.148       31.942       21.520        0.454      338.996       12.028      861.958
09/09/2014  06:20:00      -21.435       -9.063       -8.396       22.637       23.588       10.608      512.434      556.395      112.526        0.090        0.059       23.272       11.706        0.253      339.193       12.358      861.968
09/09/2014  06:21:00      -64.807      -11.866       -7.343       12.899       15.420        9.218      166.397      237.770       84.980        0.244        0.024       65.884        6.138        0.009      339.153       12.292      861.982
09/09/2014  06:22:00      -50.728      -24.454      -10.262       12.381       14.313       12.076      153.278      204.869      145.830        0.189        0.025       56.315        3.635        0.004      339.082       12.172      861.989
09/09/2014  06:23:00      -40.601      -29.615      -14.387       11.775       10.717        6.829      138.662      114.855       46.635        0.152        0.015       50.254        3.891        0.006      339.117       12.230      862.004
09/09/2014  06:24:00      -78.705      -27.043      -12.963       21.104       12.932        9.172      445.376      167.244       84.124        0.390        0.035       83.221        6.145        0.005      338.941       11.934      862.016
09/09/2014  06:25:00      -86.415      -34.966      -14.629       18.066       14.196        8.713      326.372      201.535       75.914        0.475        0.030       93.221        6.779        0.005      338.984       12.006      862.020
09/09/2014  06:26:00     -100.488      -47.607       -9.406       12.894       16.189       11.560      166.247      262.084      133.635        0.651        0.028      111.195       11.128        0.010      338.940       11.932      862.032
09/09/2014  06:27:00     -127.804      -26.140      -18.520       24.888       25.530       13.004      619.398      651.776      169.097        0.940        0.072      130.450        7.275        0.003      338.966       11.977      862.050
09/09/2014  06:28:00     -115.979      -22.251       -4.769       58.936       33.396       29.082     3473.401     1115.307      845.788        0.970        0.272      118.094       31.812        0.073      338.685       11.504      862.080
09/09/2014  06:29:00      -37.510      -24.362       -2.828       31.593       29.457       15.908      998.116      867.742      253.056        0.206        0.106       44.727       12.045        0.073      338.763       11.635      862.094
09/09/2014  06:30:00       22.068      -16.850        6.652       14.528       17.368        9.407      211.060      301.631       88.482        0.071        0.030       27.765        5.062        0.033      339.039       12.099      862.093
09/09/2014  06:31:00       23.396        0.474        1.101       17.866       19.740       19.465      319.187      389.659      378.898        0.082        0.054       23.401       14.042        0.360      338.992       12.020      862.094
09/09/2014  06:32:00       21.990       -1.317        9.299       17.007        8.528        8.051      289.236       72.726       64.820        0.050        0.021       22.029        8.405        0.146      339.037       12.096      862.102
09/09/2014  06:33:00      -10.190       13.898        4.736       10.557       14.438        6.996      111.455      208.464       48.950        0.034        0.018       17.233        5.823        0.114      339.050       12.118      862.122
09/09/2014  06:34:00      -49.450       39.650      -10.666       21.958       23.778       17.042      482.153      565.389      290.443        0.273        0.067       63.383       16.799        0.070      339.053       12.124      862.137
09/09/2014  06:35:00      -46.715      -36.059       -6.863       36.080       28.561       16.937     1301.752      815.757      286.859        0.297        0.120       59.013       16.695        0.080      338.938       11.930      862.148
09/09/2014  06:36:00       12.694      -32.123        3.257       16.746       11.825       11.285      280.418      139.827      127.359        0.088        0.027       34.540       10.647        0.095      339.013       12.055      862.143
09/09/2014  06:37:00       25.319       -4.027        5.499       18.315       11.214       17.909      335.425      125.749      320.745        0.073        0.039       25.637        5.397        0.044      338.872       11.819      862.142
09/09/2014  06:38:00        6.256      -11.900        1.229       18.064       14.265        9.398      326.321      203.486       88.330        0.040        0.031       13.444        6.856        0.260      339.116       12.229      862.154
09/09/2014  06:39:00      -55.343      -19.524       -5.789       36.687       28.478       22.493     1345.956      810.975      505.949        0.307        0.133       58.686       21.991        0.140      339.067       12.148      862.164
09/09/2014  06:40:00     -148.370      -59.793      -13.958       30.972       22.296       24.279      959.273      497.114      589.494        1.391        0.102      159.966       19.061        0.014      338.576       11.321      862.178
09/09/2014  06:41:00      -90.031      -44.990      -17.253       38.769       22.285       22.167     1503.013      496.629      491.379        0.646        0.125      100.647       14.421        0.021      338.659       11.461      862.176
09/09/2014  06:42:00      -35.786      -22.995       -4.167       47.360       27.335       23.455     2242.991      747.213      550.130        0.268        0.177       42.537       18.585        0.191      338.593       11.348      862.168
09/09/2014  06:43:00      -13.634      -26.431       14.539       38.688       18.921       20.190     1496.747      358.009      407.619        0.168        0.113       29.740       23.834        0.642      338.631       11.414      862.155
09/09/2014  06:44:00       20.785       16.078       20.422       29.693       27.937       13.209      881.649      780.489      174.478        0.147        0.092       26.278       14.901        0.322      338.785       11.671      862.139
09/09/2014  06:45:00      -31.693        4.229       -3.801       38.707       37.419       13.285     1498.244     1400.208      176.478        0.206        0.154       31.973       16.112        0.254      339.160       12.303      862.144
09/09/2014  06:46:00      -91.586      -70.058       -8.205       58.493       36.432       30.960     3421.399     1327.289      958.533        0.953        0.285      115.308       20.194        0.031      338.677       11.491      862.169
09/09/2014  06:47:00     -107.058      -42.254      -11.322       41.335       24.200       17.437     1708.577      585.640      304.062        0.799        0.130      115.094       13.674        0.014      338.561       11.296      862.198
09/09/2014  06:48:00        3.824        6.283        9.087       19.381       30.300       16.093      375.631      918.089      258.972        0.084        0.078        7.355       17.080        5.392      338.736       11.589      862.201
09/09/2014  06:49:00        1.745       16.223        9.836       14.536       18.147       11.256      211.305      329.312      126.704        0.052        0.033       16.316       10.051        0.379      339.018       12.063      862.218
09/09/2014  06:50:00        1.999      -38.151       -9.308       18.186       20.831       11.906      330.716      433.926      141.764        0.123        0.045       38.204        9.815        0.066      338.876       11.824      862.247
09/09/2014  06:51:00      -52.288      -25.917        3.815       57.006       38.908       21.073     3249.700     1513.796      444.051        0.431        0.260       58.358       26.132        0.201      338.726       11.574      862.260
09/09/2014  06:52:00      -80.741      -55.868       -1.779       57.245       27.761       27.154     3276.940      770.687      737.355        0.721        0.239       98.185       29.942        0.093      338.604       11.368      862.290
09/09/2014  06:53:00      -76.030      -32.172      -11.570       50.506       26.093       23.256     2550.888      680.825      540.838        0.536        0.189       82.556       23.437        0.081      338.733       11.586      862.307
09/09/2014  06:54:00      -35.379      -36.670       -0.711       15.006       10.092       13.705      225.186      101.853      187.826        0.156        0.026       50.954        8.381        0.027      338.743       11.601      862.318
09/09/2014  06:55:00      -27.834      -27.064       -4.608        8.818       14.245        6.877       77.751      202.915       47.287        0.093        0.016       38.823        3.914        0.010      338.917       11.895      862.326
09/09/2014  06:56:00      -38.137       33.514       -6.877       22.317       31.017       13.531      498.052      962.074      183.078        0.213        0.082       50.770       14.305        0.079      339.090       12.186      862.348
09/09/2014  06:57:00      -53.157      -10.995      -13.122       19.827       24.732       13.898      393.094      611.691      193.163        0.216        0.060       54.282        8.085        0.022      338.897       11.861      862.370
09/09/2014  06:58:00       -4.564      -21.989        9.175       29.406       16.091       13.320      864.734      258.911      177.417        0.094        0.065       22.458        6.779        0.091      338.722       11.565      862.383
09/09/2014  06:59:00        8.179       -7.300       10.500       23.759       13.592       12.805      564.474      184.739      163.959        0.057        0.046       10.963       11.350        1.072      338.702       11.533      862.384
09/09/2014  07:00:00       25.528       20.433       15.251       13.990       16.231        8.115      195.725      263.443       65.861        0.091        0.026       32.698        7.151        0.048      338.754       11.621      862.378
09/09/2014  07:01:00        5.704       46.111       -6.135       11.943        8.721        6.815      142.639       76.060       46.448        0.123        0.013       46.462        7.401        0.025      339.039       12.100      862.364
09/09/2014  07:02:00      -12.724       46.630       -9.147        8.317       12.765        8.873       69.179      162.939       78.736        0.137        0.016       48.335        8.609        0.032      339.209       12.384      862.354
09/09/2014  07:03:00       -8.555       24.993        1.203       13.022       13.484        7.639      169.563      181.827       58.352        0.055        0.020       26.417        3.551        0.018      339.330       12.591      862.358
09/09/2014  07:04:00      -33.339      -25.354        5.601        9.523       11.725        8.043       90.689      137.471       64.688        0.104        0.015       41.884        6.265        0.022      338.946       11.942      862.370
09/09/2014  07:05:00      -51.206      -15.406       -4.030        9.206        9.585        8.183       84.742       91.872       66.970        0.156        0.012       53.473        5.726        0.011      338.746       11.605      862.389
09/09/2014  07:06:00      -20.033      -14.623       -5.159       18.159       11.296       10.841      329.754      127.609      117.535        0.061        0.029       24.802        4.577        0.034      338.801       11.698      862.395
09/09/2014  07:07:00        0.316       -5.844        2.329       11.511        8.962       11.317      132.498       80.316      128.066        0.019        0.017        5.853        9.098        2.416      339.160       12.302      862.399
09/09/2014  07:08:00        3.769      -15.537       -3.395       15.637       13.073        8.645      244.506      170.891       74.740        0.038        0.025       15.988        4.653        0.085      339.133       12.257      862.427
09/09/2014  07:09:00      -49.707      -21.362       -1.340       30.762       16.638       13.130      946.312      276.819      172.405        0.216        0.070       54.103       16.884        0.097      338.807       11.709      862.464
09/09/2014  07:10:00      -71.724      -13.775       -9.906        9.524        9.074        5.397       90.708       82.333       29.129        0.282        0.010       73.035        2.556        0.001      338.756       11.625      862.497
09/09/2014  07:11:00      -42.912       -5.017       -9.241        9.449        6.840        6.022       89.278       46.783       36.262        0.106        0.009       43.204        4.449        0.011      338.868       11.811      862.502
09/09/2014  07:12:00      -37.879      -11.716       -7.187        7.725        9.557        7.994       59.676       91.338       63.907        0.092        0.011       39.650        4.316        0.012      338.976       11.994      862.524
09/09/2014  07:13:00       -6.461      -12.292       -3.619       13.770        9.960        8.128      189.624       99.207       66.065        0.028        0.018       13.887       10.010        0.520      339.056       12.129      862.538
09/09/2014  07:14:00       -1.108       -1.631        8.981        3.055        5.248        4.387        9.332       27.541       19.249        0.007        0.003        1.972        2.785        1.995      339.332       12.592      862.534
09/09/2014  07:15:00      -21.709       -9.106       -4.315       12.686       10.556       11.152      160.944      111.426      124.377        0.048        0.020       23.542        6.061        0.066      339.055       12.127      862.534
09/09/2014  07:16:00      -16.083       19.476       -0.162       15.923       13.705       12.856      253.546      187.837      165.284        0.062        0.030       25.258        9.576        0.144      339.003       12.040      862.547
09/09/2014  07:17:00        9.249      -20.832       -5.713       13.054       12.893        9.449      170.399      166.225       89.278        0.049        0.021       22.793        5.658        0.062      339.062       12.137      862.561
09/09/2014  07:18:00       -3.443      -18.092        4.812       13.217        8.874       11.293      174.687       78.741      127.528        0.037        0.019       18.417        5.315        0.083      339.123       12.241      862.582
09/09/2014  07:19:00       -3.093      -14.854        5.626        8.556       10.862        9.704       73.202      117.985       94.177        0.027        0.014       15.173        7.441        0.240      339.240       12.438      862.576
09/09/2014  07:20:00       22.034      -40.033       -7.623       32.497       25.887       20.163     1056.049      670.159      406.532        0.214        0.107       45.696       16.221        0.126      339.118       12.232      862.573
09/09/2014  07:21:00        0.967      -44.336       -5.895       32.746       25.513       20.142     1072.269      650.909      405.705        0.206        0.106       44.346        6.729        0.023      339.221       12.407      862.568
09/09/2014  07:22:00      -41.438       10.592      -11.749       11.569       13.294        8.043      133.838      176.724       64.695        0.117        0.019       42.770        8.086        0.036      339.232       12.424      862.579
09/09/2014  07:23:00      -54.214       38.405       -9.233        6.531        6.367        4.470       42.656       40.537       19.981        0.230        0.005       66.439        2.808        0.002      339.171       12.320      862.584
09/09/2014  07:24:00      -40.620       23.500       -8.155       12.690       14.135       10.159      161.036      199.806      103.197        0.137        0.023       46.928       11.380        0.059      339.292       12.524      862.593
09/09/2014  07:25:00      -34.762        1.704       -9.317        8.221        7.719        5.470       67.586       59.580       29.916        0.073        0.008       34.804        1.710        0.002      339.419       12.741      862.600
09/09/2014  07:26:00        5.495      -42.428       -4.327       14.437       22.689       10.153      208.426      514.774      103.080        0.134        0.041       42.783       11.580        0.073      339.419       12.741      862.603
09/09/2014  07:27:00        0.236      -28.347        5.981       15.983       28.616       24.665      255.461      818.848      608.382        0.126        0.084       28.348       22.687        0.641      339.763       13.319      862.608
09/09/2014  07:28:00      -15.769       -1.907        3.216       23.355       22.447       22.032      545.462      503.875      485.415        0.090        0.077       15.884       13.465        0.719      339.592       13.032      862.603
09/09/2014  07:29:00       -8.389        6.215        7.645       10.350       12.311       11.739      107.132      151.551      137.796        0.028        0.020       10.441        7.168        0.471      339.793       13.370      862.603
09/09/2014  07:30:00        0.762       16.034        4.973       10.427       10.788       11.858      108.716      116.373      140.606        0.032        0.018       16.052        8.773        0.299      339.499       12.875      862.612
09/09/2014  07:31:00       -4.400       -4.547       -0.067       10.682        8.661        9.520      114.108       75.015       90.630        0.016        0.014        6.328        5.109        0.652      339.507       12.888      862.612
09/09/2014  07:32:00       12.875        7.087       -6.776       13.884       11.802        9.594      192.777      139.284       92.045        0.034        0.021       14.697        1.349        0.008      339.364       12.647      862.618
09/09/2014  07:33:00       12.230       13.103       10.620       15.211        8.613       12.015      231.382       74.181      144.356        0.044        0.022       17.923        7.647        0.182      339.522       12.913      862.625
09/09/2014  07:34:00      -14.342       21.713        5.588        9.773       18.188       11.220       95.517      330.796      125.878        0.063        0.028       26.022        9.422        0.131      339.745       13.289      862.640
09/09/2014  07:35:00      -14.213        0.845       -3.190       16.742       20.962       12.964      280.307      439.399      168.054        0.055        0.044       14.238        6.283        0.195      339.896       13.543      862.660
09/09/2014  07:36:00      -35.853      -19.524      -10.298       17.708       23.542        9.537      313.568      554.244       90.961        0.137        0.048       40.824        9.226        0.051      339.649       13.128      862.666
09/09/2014  07:37:00      -59.110      -34.090       -3.683       32.417       15.863       14.952     1050.836      251.641      223.551        0.310        0.076       68.235       17.318        0.064      339.610       13.063      862.666
09/09/2014  07:38:00      -62.180      -23.625      -10.082       12.024        8.003        7.160      144.566       64.047       51.267        0.239        0.013       66.517        4.881        0.005      339.701       13.214      862.657
09/09/2014  07:39:00      -18.136      -20.035        0.178       13.585       21.666       12.187      184.547      469.395      148.531        0.077        0.040       27.025       14.728        0.297      339.860       13.483      862.653
09/09/2014  07:40:00       -7.130        2.929        4.533        7.842       16.961       10.067       61.503      287.688      101.338        0.027        0.023        7.708        8.596        1.244      340.062       13.824      862.650
09/09/2014  07:41:00       23.396      -18.662       -0.968       18.590       15.723       16.208      345.596      247.222      262.700        0.088        0.043       29.927       10.207        0.116      339.602       13.047      862.663
09/09/2014  07:42:00       16.772      -26.621        2.325       22.108       20.847       19.417      488.754      434.607      377.038        0.115        0.065       31.464       13.399        0.181      339.576       13.004      862.681
09/09/2014  07:43:00       17.650        3.467       16.891       19.745       14.258       17.057      389.851      203.278      290.942        0.075        0.044       17.987       10.525        0.342      339.952       13.638      862.676
09/09/2014  07:44:00       19.889       -5.689      -14.482       14.188       17.974        9.018      201.291      323.058       81.317        0.062        0.030       20.686        6.234        0.091      339.704       13.222      862.680
09/09/2014  07:45:00       16.437      -14.842       -5.595       14.356       13.834       14.085      206.086      191.380      198.396        0.056        0.030       22.146       11.464        0.268      339.696       13.207      862.695
09/09/2014  07:46:00       13.383       -6.313       11.784       13.437       12.662       10.977      180.556      160.324      120.496        0.041        0.023       14.797        5.381        0.132      339.941       13.619      862.706
09/09/2014  07:47:00       -3.087      -15.226      -12.754       11.608       12.108        8.957      134.748      146.613       80.234        0.038        0.018       15.536        9.769        0.395      339.967       13.662      862.708
09/09/2014  07:48:00        8.013       -8.685       -0.857       26.610       14.471       13.829      708.118      209.419      191.241        0.062        0.055       11.817       10.023        0.719      340.040       13.785      862.708
09/09/2014  07:49:00       15.275      -22.461       11.813       33.187       33.666       26.358     1101.376     1133.367      694.741        0.190        0.146       27.163        9.163        0.114      339.914       13.574      862.709
09/09/2014  07:50:00       33.456      -36.770      -12.144       32.505       29.208       25.545     1056.584      853.095      652.562        0.259        0.128       49.713       14.698        0.087      339.654       13.137      862.720
09/09/2014  07:51:00       -8.310      -20.651       -7.941       23.834       24.012       18.997      568.058      576.563      360.881        0.103        0.075       22.261       12.406        0.311      340.155       13.981      862.755
09/09/2014  07:52:00       20.139      -24.138       -5.260       22.758       20.810       14.928      517.942      433.054      222.832        0.109        0.059       31.436       10.773        0.117      340.123       13.927      862.789
09/09/2014  07:53:00       19.041       20.613        7.016       17.008       26.546       18.920      289.264      704.664      357.981        0.109        0.068       28.062        4.623        0.027      340.140       13.954      862.806
09/09/2014  07:54:00       19.879        5.259        2.022       28.772       16.732       15.447      827.808      279.952      238.607        0.089        0.067       20.563        3.512        0.029      340.137       13.951      862.815
09/09/2014  07:55:00        7.316      -31.909       13.697       25.658       22.252       21.169      658.346      495.132      448.122        0.143        0.080       32.737       10.824        0.109      339.998       13.716      862.819
09/09/2014  07:56:00       -8.649      -55.196        7.189       23.435       38.195       33.227      549.218     1458.882     1104.065        0.314        0.156       55.870       16.691        0.089      340.262       14.161      862.831
09/09/2014  07:57:00       11.775       23.306       54.571       36.475       34.494       21.251     1330.444     1189.849      451.603        0.332        0.149       26.112       17.030        0.425      340.471       14.513      862.836
09/09/2014  07:58:00       20.281        8.717       18.658       38.470       33.325       29.609     1479.911     1110.583      876.705        0.215        0.173       22.074       23.083        1.093      340.190       14.040      862.841
09/09/2014  07:59:00       50.300       23.508       23.938       43.320       26.033       27.886     1876.645      677.711      777.651        0.349        0.167       55.522       23.279        0.176      340.419       14.427      862.876
09/09/2014  08:00:00       50.756       34.455       41.707       41.688       33.438       32.364     1737.899     1118.119     1047.443        0.470        0.195       61.346       26.629        0.188      340.370       14.342      862.887
09/09/2014  08:01:00       51.931       62.339       53.507       44.105       53.797       38.954     1945.239     2894.153     1517.401        0.790        0.318       81.136       35.312        0.189      340.305       14.233      862.872
09/09/2014  08:02:00       16.552      -21.354       24.387       29.682       34.346       38.090      881.024     1179.674     1450.815        0.242        0.176       27.017       20.316        0.565      340.381       14.362      862.872
09/09/2014  08:03:00       35.349      -72.966      -12.341       44.619       44.299       37.729     1990.899     1962.387     1423.494        0.605        0.269       81.077       31.071        0.147      340.549       14.646      862.895
09/09/2014  08:04:00       13.371       -1.276       22.266       24.045       45.919       24.085      578.157     2108.533      580.071        0.197        0.163       13.432       22.347        2.768      340.736       14.963      862.911
09/09/2014  08:05:00       18.215       19.625       41.563       37.061       22.290       22.714     1373.528      496.829      515.928        0.241        0.119       26.776       22.092        0.681      340.530       14.615      862.911
09/09/2014  08:06:00       44.541       -1.267        5.631       26.858       27.112       23.291      721.341      735.068      542.483        0.201        0.100       44.559       16.829        0.143      340.183       14.028      862.910
09/09/2014  08:07:00       28.441       29.153       31.685       31.859       38.094       35.233     1014.990     1451.139     1241.358        0.318        0.185       40.728       27.603        0.459      340.516       14.590      862.905
09/09/2014  08:08:00       26.174       39.928       61.974       31.992       30.946       17.999     1023.501      957.624      323.965        0.421        0.115       47.742        9.487        0.039      340.546       14.641      862.905
09/09/2014  08:09:00       26.971       37.237       12.463       29.670       29.015       30.379      880.292      841.847      922.878        0.246        0.132       45.978       18.662        0.165      340.405       14.404      862.917
09/09/2014  08:10:00        4.074       17.050       13.913       14.228       17.442       23.641      202.430      304.215      558.897        0.078        0.053       17.530        6.549        0.140      340.843       15.143      862.931
09/09/2014  08:11:00        9.429       26.302       37.536       29.410       29.414       23.488      864.976      865.166      551.702        0.224        0.114       27.941       20.426        0.534      340.684       14.875      862.928
09/09/2014  08:12:00       66.869      -16.864        7.190       45.695       26.293       34.604     2088.036      691.298     1197.431        0.439        0.199       68.963       27.521        0.159      340.221       14.092      862.925
09/09/2014  08:13:00        5.574       12.564       29.535       24.708       19.558       16.405      610.494      382.500      269.115        0.116        0.063       13.745       11.663        0.720      340.819       15.103      862.929
09/09/2014  08:14:00       14.103       23.207       35.982       31.838       25.378       17.764     1013.667      644.036      315.568        0.200        0.099       27.156       10.680        0.155      340.805       15.078      862.931
09/09/2014  08:15:00       52.375       44.907       24.907       27.725       28.786       29.800      768.701      828.647      888.056        0.393        0.124       68.991       15.268        0.049      340.616       14.760      862.936
09/09/2014  08:16:00       13.100       28.763       55.720       32.597       25.789       26.080     1062.582      665.070      680.169        0.326        0.120       31.605       19.277        0.372      340.826       15.115      862.941
09/09/2014  08:17:00       84.524       36.452       10.652       50.882       29.641       24.750     2589.020      878.614      612.577        0.633        0.204       92.049       16.694        0.033      340.557       14.660      862.947
09/09/2014  08:18:00       63.527       41.669       23.338       56.515       40.107       30.026     3193.914     1608.600      901.548        0.601        0.285       75.973        8.453        0.012      340.675       14.859      862.950
09/09/2014  08:19:00       82.165       36.237       23.472       39.506       35.319       31.287     1560.758     1247.418      978.872        0.620        0.189       89.801       22.483        0.063      340.611       14.751      862.953
09/09/2014  08:20:00       58.048       42.916       11.801       32.256       25.562       26.673     1040.441      653.423      711.442        0.388        0.120       72.190       13.388        0.034      340.588       14.711      862.960
09/09/2014  08:21:00       51.862       27.463       11.903       33.611       43.504       28.030     1129.681     1892.612      785.694        0.370        0.190       58.684       17.118        0.085      340.679       14.867      862.965
09/09/2014  08:22:00       74.820       38.242       13.192       39.041       33.709       29.085     1524.204     1136.296      845.941        0.537        0.175       84.027       19.887        0.056      340.605       14.742      862.978
09/09/2014  08:23:00       58.222       40.041       12.703       33.314       22.930       23.159     1109.800      525.804      536.319        0.366        0.109       70.662       14.420        0.042      340.652       14.819      862.998
09/09/2014  08:24:00       74.403       33.130        1.468       32.172       26.280       25.257     1035.009      690.630      637.928        0.450        0.118       81.445       14.543        0.032      340.701       14.903      863.017
09/09/2014  08:25:00       74.034       45.015       30.952       43.772       29.932       27.784     1915.995      895.937      771.949        0.602        0.179       86.645        8.624        0.010      340.853       15.161      863.014
09/09/2014  08:26:00       80.233       43.040       20.611       41.017       30.181       21.808     1682.366      910.907      475.575        0.589        0.153       91.048       10.606        0.014      340.824       15.111      863.023
09/09/2014  08:27:00       52.610       13.296       18.977       44.781       34.171       26.517     2005.329     1167.648      703.136        0.359        0.194       54.264       13.995        0.067      341.086       15.555      863.027
09/09/2014  08:28:00       78.262       73.620       37.700       57.517       34.762       33.802     3308.229     1208.368     1142.605        0.931        0.283      107.446       27.734        0.067      340.765       15.012      863.028
09/09/2014  08:29:00       -7.118       11.903       39.517       19.409       30.650       22.511      376.722      939.436      506.763        0.179        0.091       13.869       17.090        1.519      341.114       15.602      863.029
09/09/2014  08:30:00       11.746      -19.591       13.924       28.637       23.736       20.811      820.050      563.420      433.114        0.127        0.091       22.842        8.338        0.133      340.857       15.168      863.040
09/09/2014  08:31:00       30.171        6.521       30.067       30.828       25.819       23.896      950.371      666.636      571.036        0.202        0.109       30.868        9.619        0.097      340.940       15.308      863.040
09/09/2014  08:32:00       31.811       35.718       17.363       26.656       34.451       21.133      710.558     1186.888      446.613        0.247        0.117       47.829       12.180        0.065      340.909       15.256      863.049
09/09/2014  08:33:00       61.861       43.354        6.816       19.772       23.479       24.119      390.917      551.263      581.732        0.364        0.076       75.541       10.587        0.020      340.936       15.301      863.062
09/09/2014  08:34:00       73.726       43.685        5.954       33.801       20.456       20.830     1142.485      418.460      433.885        0.469        0.100       85.696       18.367        0.046      340.953       15.328      863.066
09/09/2014  08:35:00       61.834       38.408       21.066       28.614       24.789       24.154      818.776      614.503      583.425        0.388        0.101       72.792       14.312        0.039      340.961       15.343      863.063
09/09/2014  08:36:00       29.123       24.554       14.710       53.033       21.266       30.199     2812.535      452.255      911.983        0.292        0.209       38.092       14.990        0.155      341.236       15.811      863.059
09/09/2014  08:37:00       25.677       -1.178        8.722       40.794       42.195       19.394     1664.142     1780.401      376.132        0.228        0.191       25.704       17.072        0.441      341.008       15.422      863.053
09/09/2014  08:38:00       25.801      -55.026        2.830       30.071       26.402       23.915      904.241      697.073      571.939        0.294        0.109       60.775       14.322        0.056      340.393       14.383      863.045
09/09/2014  08:39:00       30.640       20.499       53.237       48.277       44.850       23.037     2330.691     2011.519      530.720        0.453        0.244       36.865       27.990        0.576      340.974       15.365      863.038
09/09/2014  08:40:00       73.989       48.970        8.885       40.143       32.440       34.178     1611.497     1052.375     1168.157        0.589        0.192       88.727       27.880        0.099      340.910       15.258      863.041
09/09/2014  08:41:00       69.530       55.489        5.778       35.148       26.708       23.847     1235.416      713.295      568.667        0.523        0.126       88.958       13.047        0.022      341.041       15.478      863.041
09/09/2014  08:42:00       82.326       67.567       37.387       42.802       35.966       27.457     1832.000     1293.544      753.900        0.831        0.194      106.503       22.306        0.044      341.106       15.588      863.052
09/09/2014  08:43:00       69.886       42.796       13.959       42.443       24.544       25.556     1801.443      602.404      653.112        0.498        0.153       81.949       21.038        0.066      341.054       15.501      863.066
09/09/2014  08:44:00       75.601       35.555        7.331       37.465       32.383       26.046     1403.595     1048.660      678.413        0.508        0.157       83.544       10.828        0.017      341.133       15.634      863.070
09/09/2014  08:45:00       56.796       46.441        7.570       57.827       37.992       30.649     3343.996     1443.388      939.370        0.558        0.286       73.366       15.031        0.042      341.202       15.750      863.073
09/09/2014  08:46:00       89.233       60.349        5.625       33.323       28.852       31.800     1110.444      832.428     1011.223        0.729        0.148      107.725       12.571        0.014      341.174       15.703      863.062
09/09/2014  08:47:00       75.590       45.719        8.429       43.649       32.020       28.819     1905.273     1025.265      830.553        0.582        0.188       88.341       20.317        0.053      341.352       16.005      863.066
09/09/2014  08:48:00       54.558       37.076        9.477       39.859       26.003       29.837     1588.734      676.172      890.233        0.380        0.158       65.963       20.797        0.099      341.388       16.066      863.065
09/09/2014  08:49:00       65.515       54.438       -4.341       36.694       33.607       24.804     1346.463     1129.430      615.224        0.518        0.155       85.180       18.071        0.045      341.301       15.919      863.074
09/09/2014  08:50:00       65.942       57.709       17.623       41.589       32.854       25.084     1729.659     1079.415      629.186        0.571        0.172       87.628        8.442        0.009      341.321       15.954      863.066
09/09/2014  08:51:00       82.727       56.094       12.215       24.325       21.658       23.054      591.685      469.081      531.484        0.587        0.080       99.952        9.570        0.009      341.205       15.756      863.069
09/09/2014  08:52:00       66.323       39.830        4.936       30.741       19.447       25.583      944.994      378.201      654.474        0.399        0.099       77.363       13.938        0.032      341.196       15.741      863.075
09/09/2014  08:53:00       22.057       -0.722        1.894       21.362       13.567       16.676      456.354      184.067      278.099        0.070        0.046       22.069       10.272        0.217      341.519       16.288      863.085
09/09/2014  08:54:00       13.350        5.298       22.988       32.015       28.034       20.841     1024.942      785.891      434.338        0.149        0.112       14.363       16.402        1.304      341.890       16.918      863.092
09/09/2014  08:55:00       54.541       46.759       -4.368       26.223       21.588       26.415      687.635      466.038      697.749        0.352        0.093       71.842       17.815        0.061      341.515       16.280      863.092
09/09/2014  08:56:00       78.111       41.105       22.346       34.113       26.192       25.874     1163.689      686.005      669.468        0.540        0.126       88.266       17.192        0.038      341.545       16.332      863.082
09/09/2014  08:57:00       56.664       58.542       12.525       44.564       34.862       34.562     1985.944     1215.347     1194.531        0.559        0.220       81.473       26.116        0.103      341.554       16.347      863.075
09/09/2014  08:58:00       70.759       52.844        7.252       24.571       23.056       27.897      603.736      531.586      778.250        0.488        0.096       88.314       13.749        0.024      341.303       15.922      863.066
09/09/2014  08:59:00       63.586       62.985        4.102       38.113       32.726       40.301     1452.573     1070.982     1624.133        0.609        0.207       89.500       23.512        0.069      341.443       16.160      863.054
09/09/2014  09:00:00       29.993        4.830       -6.261       28.001       29.902       28.635      784.055      894.113      819.960        0.173        0.125       30.379       20.008        0.434      341.547       16.336      863.045
09/09/2014  09:01:00       29.009       27.615        3.981       18.847       28.468       18.187      355.224      810.407      330.782        0.156        0.075       40.052        8.253        0.042      341.597       16.420      863.031
09/09/2014  09:02:00       35.124       33.914        7.648       20.433       22.801       25.001      417.494      519.884      625.044        0.200        0.078       48.825       19.859        0.165      341.665       16.536      863.025
09/09/2014  09:03:00      -10.574        8.824       22.053       16.047       14.641       18.467      257.516      214.350      341.028        0.074        0.041       13.773       14.361        1.087      342.031       17.157      863.032
09/09/2014  09:04:00        3.307       27.425       40.400       20.441       21.370       14.815      417.837      456.698      219.474        0.174        0.055       27.624       12.439        0.203      341.927       16.982      863.046
09/09/2014  09:05:00       24.391        9.679       26.709       29.462       28.492       21.574      867.990      811.795      465.425        0.177        0.107       26.241       16.697        0.405      341.580       16.392      863.055
09/09/2014  09:06:00       17.007       -2.848       45.242       32.900       43.254       29.640     1082.420     1870.921      878.504        0.309        0.192       17.244       20.091        1.358      342.016       17.132      863.067
09/09/2014  09:07:00      -15.145       -5.010       11.325       22.882       29.081       18.758      523.566      845.704      351.861        0.105        0.086       15.952       17.970        1.269      341.881       16.902      863.079
09/09/2014  09:08:00      -22.800      -12.631       -2.595       17.818       16.324       12.812      317.466      266.463      164.153        0.072        0.037       26.065       10.714        0.169      342.005       17.111      863.096
09/09/2014  09:09:00       30.416       18.580       18.813       32.019       17.801       27.253     1025.196      316.862      742.716        0.185        0.104       35.642       17.003        0.228      341.839       16.831      863.108
09/09/2014  09:10:00       21.648        1.308       -6.336       23.139       25.596       25.899      535.394      655.168      670.737        0.119        0.093       21.688        7.387        0.116      341.553       16.345      863.098
09/09/2014  09:11:00       47.171      -14.258       -5.846       30.996       20.983       31.733      960.755      440.285     1006.960        0.243        0.120       49.279       20.340        0.170      341.537       16.319      863.095
09/09/2014  09:12:00       27.884       31.191       30.568       25.556       30.450       29.539      653.118      927.214      872.526        0.257        0.123       41.837       17.171        0.168      342.021       17.138      863.095
09/09/2014  09:13:00       35.913       48.383       -0.179       29.759       34.415       21.278      885.619     1184.402      452.763        0.308        0.126       60.255       17.134        0.081      342.053       17.194      863.098
09/09/2014  09:14:00       28.218       41.943       16.265       26.627       38.592       27.649      708.980     1489.335      764.450        0.289        0.148       50.552       25.742        0.259      341.931       16.986      863.092
09/09/2014  09:15:00       17.516      -21.437       15.807       25.113       17.300       21.576      630.658      299.281      465.538        0.121        0.070       27.683       18.261        0.435      341.572       16.378      863.101
09/09/2014  09:16:00       90.117       46.967        8.144       40.524       27.534       23.063     1642.217      758.148      531.918        0.666        0.147      101.622       19.489        0.037      341.673       16.548      863.100
09/09/2014  09:17:00       59.134       16.715       18.999       42.653       32.000       33.314     1819.318     1024.005     1109.838        0.404        0.198       61.451       20.711        0.114      342.185       17.417      863.105
09/09/2014  09:18:00       55.710       29.900        6.560       49.936       30.511       38.593     2493.583      930.893     1489.422        0.448        0.246       63.227       24.490        0.150      342.239       17.511      863.118
09/09/2014  09:19:00       58.340       41.449        9.951       43.647       27.383       26.375     1905.075      749.839      695.647        0.429        0.168       71.565       20.936        0.086      342.044       17.179      863.129
09/09/2014  09:20:00       18.637       23.948       20.447       28.073       24.635       26.011      788.106      606.887      676.584        0.170        0.104       30.345       22.406        0.545      342.231       17.498      863.132
09/09/2014  09:21:00       59.684       21.896        7.147       55.531       29.607       30.913     3083.725      876.579      955.588        0.450        0.246       63.574       26.461        0.173      342.542       18.025      863.138
09/09/2014  09:22:00      129.688       82.647       12.028       42.496       37.873       30.973     1805.950     1434.354      959.299        1.400        0.210      153.784       12.619        0.007      341.879       16.898      863.136
09/09/2014  09:23:00       78.001       78.964       -2.856       35.979       20.309       16.360     1294.456      412.466      267.656        0.715        0.099      110.993       11.869        0.011      341.732       16.650      863.117
09/09/2014  09:24:00       46.192       54.326       35.048       41.020       32.638       28.261     1682.678     1065.219      798.659        0.493        0.177       71.310       19.028        0.071      341.995       17.095      863.109
09/09/2014  09:25:00       21.184        8.914       38.735       24.686       22.256       14.139      609.405      495.349      199.898        0.167        0.065       22.983        5.727        0.062      342.241       17.513      863.110
09/09/2014  09:26:00       27.510       -5.260        7.787       30.321       46.917       33.865      919.346     2201.159     1146.872        0.256        0.213       28.008       21.003        0.562      341.932       16.988      863.110
09/09/2014  09:27:00        6.338       12.672       36.340       17.108       40.606       18.001      292.690     1648.855      324.033        0.189        0.113       14.168       17.683        1.558      342.464       17.892      863.111
09/09/2014  09:28:00        0.864       31.433       15.975       12.330       22.891       19.537      152.041      523.999      381.706        0.115        0.053       31.445       14.808        0.222      342.598       18.119      863.121
09/09/2014  09:29:00      -32.053       30.734       -9.959       23.642       21.438       20.716      558.939      459.570      429.166        0.176        0.072       44.408       16.266        0.134      342.111       17.292      863.132
09/09/2014  09:30:00      -80.221      -15.751      -18.527       17.066       21.840       10.426      291.239      476.973      108.697        0.395        0.044       81.753        9.240        0.013      342.004       17.109      863.145
09/09/2014  09:31:00      -89.883      -30.879      -13.469       17.322       10.241       13.327      300.064      104.886      177.608        0.490        0.029       95.040       10.978        0.013      341.958       17.030      863.161
09/09/2014  09:32:00      -23.139      -20.631       -4.791       27.300       11.332       10.215      745.292      128.407      104.338        0.098        0.049       31.001        7.774        0.063      342.126       17.318      863.165
09/09/2014  09:33:00       -1.501      -31.470        2.110       18.743       11.634       12.467      351.302      135.351      155.416        0.082        0.032       31.506       12.322        0.153      342.091       17.260      863.170
09/09/2014  09:34:00       -4.857        3.414       14.796       11.657       14.323       18.022      135.882      205.144      324.789        0.046        0.033        5.937       12.511        4.440      342.945       18.710      863.181
09/09/2014  09:35:00      -24.176       -8.798       18.339       20.730       23.074       17.778      429.724      532.390      316.041        0.114        0.064       25.727       15.910        0.382      342.709       18.307      863.187
09/09/2014  09:36:00       20.662       -3.829       23.972       42.983       27.178       23.379     1847.506      738.632      546.557        0.207        0.157       21.013       18.346        0.762      343.037       18.867      863.190
09/09/2014  09:37:00       73.314       48.956       35.436       29.210       28.523       24.058      853.223      813.576      578.795        0.564        0.112       88.157       16.884        0.037      342.271       17.565      863.198
09/09/2014  09:38:00       66.255       57.106       23.433       18.472       20.031       22.170      341.200      401.238      491.517        0.472        0.062       87.469       10.859        0.015      342.045       17.179      863.204
09/09/2014  09:39:00       35.189       18.843       11.603       28.955       26.813       31.130      838.418      718.923      969.079        0.213        0.126       39.916       18.672        0.219      342.279       17.579      863.204
09/09/2014  09:40:00       44.581      -53.089        5.662       48.272       55.964       34.567     2330.195     3131.953     1194.882        0.575        0.333       69.324       39.972        0.332      342.299       17.612      863.207
09/09/2014  09:41:00       63.580       -0.243       25.540       55.520       59.834       40.401     3082.502     3580.154     1632.277        0.649        0.415       63.581       40.256        0.401      342.597       18.117      863.199
09/09/2014  09:42:00       17.561      -45.307        7.476       28.686       76.908       38.140      822.901     5914.785     1454.663        0.530        0.410       48.591       40.563        0.697      342.616       18.151      863.201
09/09/2014  09:43:00        0.511       33.604       43.043       23.169       23.973       28.380      536.820      574.726      805.446        0.245        0.096       33.608       18.408        0.300      342.995       18.796      863.199
09/09/2014  09:44:00       19.651        0.202        7.443       33.043       27.847       22.545     1091.851      775.469      508.278        0.141        0.119       19.652       20.889        1.130      342.302       17.616      863.200
09/09/2014  09:45:00       50.709       -7.560        0.679       31.516       28.282       28.413      993.274      799.895      807.323        0.261        0.130       51.269       23.762        0.215      342.285       17.588      863.200
09/09/2014  09:46:00        5.109       -1.412       34.058       21.794       25.777       16.643      474.964      664.470      276.987        0.130        0.071        5.301        4.998        0.889      343.049       18.888      863.205
09/09/2014  09:47:00      -13.197       -7.735       19.564       22.779       20.302       25.036      518.885      412.161      626.816        0.109        0.078       15.297       19.049        1.551      343.062       18.910      863.217
09/09/2014  09:48:00        1.342       22.756       45.464       38.792       33.356       31.546     1504.858     1112.648      995.135        0.310        0.181       22.795       21.080        0.855      343.146       19.053      863.207
09/09/2014  09:49:00       -1.061       15.466       38.470       48.435       45.449       35.168     2345.927     2065.602     1236.814        0.368        0.282       15.502       36.563        5.563      342.972       18.756      863.209
09/09/2014  09:50:00      -24.334        8.689       43.793       25.949       37.827       33.960      673.370     1430.856     1153.262        0.292        0.163       25.839       29.512        1.305      343.152       19.062      863.202
09/09/2014  09:51:00       -6.934       17.290       40.298       23.289       38.861       34.074      542.380     1510.194     1161.030        0.259        0.161       18.629       28.336        2.314      343.347       19.394      863.200
09/09/2014  09:52:00       10.929      -30.859      -11.621       30.479       49.275       22.790      928.969     2428.049      519.373        0.254        0.194       32.737       17.190        0.276      342.296       17.607      863.206
09/09/2014  09:53:00       24.235      -24.185       20.037       56.255       31.483       40.171     3164.627      991.153     1613.709        0.367        0.288       34.238       32.858        0.921      342.371       17.736      863.205
09/09/2014  09:54:00       35.378       25.903       86.385       44.227       47.270       34.451     1956.021     2234.470     1186.867        0.738        0.269       43.847       14.175        0.105      343.015       18.831      863.213
09/09/2014  09:55:00        4.821        2.715       48.171       39.311       68.824       40.623     1545.378     4736.717     1650.230        0.514        0.397        5.533       25.540       21.305      342.986       18.781      863.228
09/09/2014  09:56:00       20.224      -12.312       31.829       48.549       53.145       47.327     2357.026     2824.391     2239.848        0.450        0.371       23.678       28.860        1.486      343.029       18.852      863.217
09/09/2014  09:57:00        8.455        7.404       68.171       46.811       65.244       40.030     2191.235     4256.779     1602.380        0.641        0.403       11.238       42.291       14.160      343.196       19.139      863.210
09/09/2014  09:58:00       70.017      -70.043       11.044       70.379      101.715       59.574     4953.235    10345.987     3549.091        1.439        0.942       99.038       70.947        0.513      343.082       18.943      863.187
09/09/2014  09:59:00       93.978     -100.859       24.133       78.195      108.939       70.032     6114.506    11867.676     4904.427        2.123        1.144      137.856       79.248        0.330      343.087       18.950      863.182
09/09/2014  10:00:00       20.723       61.474       84.965       39.809       77.842       55.533     1584.764     6059.333     3083.912        1.108        0.536       64.873       57.546        0.787      342.996       18.798      863.189
09/09/2014  10:01:00       79.140      -48.326       19.223       56.356       73.469       46.449     3176.023     5397.660     2157.467        0.985        0.537       92.729       58.689        0.401      342.804       18.471      863.193
09/09/2014  10:02:00       37.734       26.558       52.480       37.017       46.978       31.458     1370.225     2206.902      989.636        0.472        0.228       46.143       26.181        0.322      342.867       18.577      863.187
09/09/2014  10:03:00       11.208        7.790       52.220       47.309       51.217       28.918     2238.164     2623.194      836.228        0.430        0.285       13.649       21.602        2.505      342.904       18.640      863.169
09/09/2014  10:04:00      -44.715      -65.838        7.716       37.643       42.848       33.894     1416.993     1835.972     1148.828        0.540        0.220       79.587       20.649        0.067      343.082       18.943      863.171
09/09/2014  10:05:00      -25.443      -17.716       14.534       27.570       54.188       22.525      760.104     2936.296      507.373        0.269        0.210       31.003        9.856        0.101      343.077       18.935      863.163
09/09/2014  10:06:00      -31.270      -34.291       -9.266       23.725       26.183       21.405      562.885      685.543      458.178        0.197        0.085       46.408        7.913        0.029      343.054       18.896      863.169
09/09/2014  10:07:00      -19.713      -52.324        2.151       52.850       47.330       41.991     2793.174     2240.141     1763.255        0.496        0.340       55.915       15.014        0.072      343.250       19.230      863.164
09/09/2014  10:08:00       37.879      -86.058       -6.657       51.878       70.273       46.628     2691.285     4938.299     2174.179        0.934        0.490       94.025       43.433        0.213      343.242       19.216      863.172
09/09/2014  10:09:00       14.234      -40.378       23.187       48.751       76.019       48.279     2376.615     5778.828     2330.900        0.643        0.524       42.813       38.035        0.789      343.643       19.900      863.166
09/09/2014  10:10:00       57.933      -81.966       -9.227       48.490       58.167       40.601     2351.260     3383.397     1648.456        0.877        0.369      100.372       30.665        0.093      343.082       18.944      863.171
09/09/2014  10:11:00       46.963      -14.117       36.597       57.922       53.447       46.521     3354.981     2856.620     2164.241        0.606        0.419       49.039       41.571        0.719      343.516       19.683      863.166
09/09/2014  10:12:00       16.604      -24.909       28.726       29.479       50.978       31.146      869.015     2598.734      970.052        0.308        0.222       29.936       30.745        1.055      343.314       19.340      863.161
09/09/2014  10:13:00       66.871      -68.640        3.084       68.895       71.161       57.298     4746.570     5063.891     3283.071        1.114        0.655       95.829       50.905        0.282      343.273       19.269      863.156
09/09/2014  10:14:00       26.473       57.096      105.435       47.987       46.416       29.399     2302.785     2154.404      864.280        1.020        0.266       62.935       25.473        0.164      343.553       19.745      863.146
09/09/2014  10:15:00       26.167       30.553       56.886       39.011       56.034       41.678     1521.856     3139.759     1737.020        0.563        0.320       40.227       39.480        0.963      343.187       19.123      863.150
09/09/2014  10:16:00       31.865      -61.750       15.381       56.414       72.409       49.190     3182.577     5242.991     2419.698        0.795        0.542       69.487       40.993        0.348      343.337       19.376      863.143
09/09/2014  10:17:00       68.727      -69.746       -8.771       69.604       74.351       53.753     4844.702     5528.136     2889.369        1.146        0.663       97.918       55.262        0.319      343.332       19.369      863.147
09/09/2014  10:18:00       13.389      -11.582       50.846       34.054       61.397       39.880     1159.654     3769.578     1590.384        0.471        0.326       17.703       38.973        4.846      343.393       19.474      863.151
09/09/2014  10:19:00       46.243        6.584       15.090       29.933       52.885       29.625      895.998     2796.805      877.616        0.349        0.229       46.709       30.809        0.435      343.174       19.100      863.166
09/09/2014  10:20:00       47.428        9.118       22.960       37.307       51.933       30.732     1391.811     2697.054      944.477        0.395        0.252       48.296       16.385        0.115      343.396       19.479      863.162
09/09/2014  10:21:00       41.401       27.687       11.841       32.561       26.353       24.131     1060.220      694.490      582.323        0.248        0.117       49.805       10.776        0.047      343.004       18.811      863.152
09/09/2014  10:22:00       41.139       69.886       73.783       52.584       61.876       63.718     2765.047     3828.630     4060.003        1.134        0.533       81.096       51.312        0.400      343.394       19.474      863.148
09/09/2014  10:23:00       60.993       96.448       84.116       64.507       47.267       41.053     4161.187     2234.134     1685.371        1.409        0.404      114.116       34.871        0.093      343.280       19.279      863.136
09/09/2014  10:24:00       50.878       97.967       84.349       57.801       49.618       34.863     3340.915     2461.986     1215.404        1.316        0.351      110.390       27.094        0.060      343.192       19.132      863.140
09/09/2014  10:25:00       52.897       68.050       49.775       26.804       27.542       28.859      718.476      758.541      832.852        0.611        0.115       86.191       20.812        0.058      343.276       19.274      863.150
09/09/2014  10:26:00       30.140       -2.188       10.270       38.234       53.801       25.095     1461.828     2894.496      629.767        0.300        0.249       30.219       21.151        0.490      343.331       19.368      863.153
09/09/2014  10:27:00        2.425       20.273       40.379       28.054       39.960       23.057      787.012     1596.793      531.637        0.248        0.146       20.417       19.173        0.882      343.953       20.428      863.165
09/09/2014  10:28:00       30.997     -125.754      -19.663       47.837       59.761       49.561     2288.404     3571.414     2456.271        1.274        0.416      129.518       30.526        0.056      343.621       19.862      863.179
09/09/2014  10:29:00       26.480      -58.156       35.172       38.009       62.371       42.484     1444.648     3890.083     1804.930        0.623        0.357       63.901       25.647        0.161      343.759       20.098      863.191
09/09/2014  10:30:00       20.757      -89.700       -2.531       34.733       42.839       32.436     1206.399     1835.184     1052.125        0.629        0.205       92.070       22.218        0.058      343.569       19.773      863.189
09/09/2014  10:31:00       56.351      -97.371      -17.491       41.006       48.877       30.414     1681.470     2389.000      924.982        0.898        0.250      112.502       24.981        0.049      343.614       19.851      863.184
09/09/2014  10:32:00       26.788      -16.323       20.582       38.801       28.840       37.379     1505.531      831.749     1397.177        0.257        0.187       31.370       23.736        0.573      343.955       20.432      863.181
09/09/2014  10:33:00       15.216      -21.328       22.571       36.561       27.408       26.432     1336.708      751.204      698.624        0.199        0.139       26.199       20.901        0.636      343.817       20.196      863.172
09/09/2014  10:34:00      -26.561       -9.336       14.454       54.642       41.166       24.331     2985.784     1694.663      591.976        0.314        0.264       28.154       20.737        0.543      343.645       19.904      863.151
09/09/2014  10:35:00      -43.235      -30.303        4.147       31.636       22.053       22.285     1000.865      486.328      496.599        0.239        0.099       52.797       12.696        0.058      343.709       20.012      863.146
09/09/2014  10:36:00        9.208     -102.173      -16.035       46.433       60.509       44.618     2156.036     3661.303     1990.771        0.929        0.390      102.587       32.742        0.102      343.909       20.353      863.122
09/09/2014  10:37:00      -21.571     -102.002       -7.871       58.304       47.889       32.991     3399.352     2293.325     1088.399        0.886        0.339      104.258       23.952        0.053      343.672       19.947      863.114
09/09/2014  10:38:00      -16.190      -23.740        9.195       46.960       40.547       40.834     2205.248     1644.046     1667.393        0.321        0.276       28.735       30.961        1.161      344.075       20.637      863.099
09/09/2014  10:39:00        2.784       13.344       52.641       34.492       55.244       40.082     1189.724     3051.923     1606.544        0.440        0.292       13.632       30.174        4.900      344.023       20.547      863.079
09/09/2014  10:40:00      -26.339      -29.782       19.744       38.452       75.381       29.025     1478.544     5682.281      842.448        0.499        0.400       39.758       34.407        0.749      344.160       20.782      863.076
09/09/2014  10:41:00      -50.223      -10.204       12.406       47.854       33.827       23.720     2290.011     1144.247      562.642        0.339        0.200       51.249       23.130        0.204      343.967       20.453      863.056
09/09/2014  10:42:00       -8.783       15.574       18.136       27.087       28.018       20.687      733.699      785.034      427.966        0.130        0.097       17.880       14.993        0.703      344.125       20.722      863.058
09/09/2014  10:43:00        6.173       22.385       41.674       48.337       37.788       35.042     2336.471     1427.932     1227.938        0.363        0.250       23.220       30.684        1.746      343.976       20.468      863.049
09/09/2014  10:44:00       54.074       42.541        2.852       28.088       28.521       33.091      788.921      813.459     1095.035        0.372        0.135       68.802       11.920        0.030      343.283       19.285      863.037
09/09/2014  10:45:00       11.568       12.877       -6.011       16.180       24.435       15.764      261.777      597.077      248.517        0.072        0.055       17.310        9.078        0.275      343.845       20.244      863.038
09/09/2014  10:46:00       33.755      -12.038        8.750       38.991       26.320       28.333     1520.315      692.742      802.765        0.219        0.151       35.837       24.303        0.460      343.752       20.086      863.023
09/09/2014  10:47:00       36.675      -39.105       16.638       25.950       32.784       28.864      673.411     1074.803      833.131        0.287        0.129       53.612       21.281        0.158      344.138       20.744      863.026
09/09/2014  10:48:00       31.407       -3.893       24.758       32.127       44.480       32.381     1032.144     1978.430     1048.548        0.284        0.203       31.647       30.249        0.914      343.920       20.372      863.021
09/09/2014  10:49:00       30.489       12.978       24.371       26.520       25.928       32.429      703.313      672.265     1051.634        0.206        0.121       33.137       23.100        0.486      343.811       20.187      863.021
09/09/2014  10:50:00       38.136       91.898      109.227       65.861       64.030       63.372     4337.666     4099.892     4016.034        1.714        0.623       99.497       54.219        0.297      343.573       19.778      863.026
09/09/2014  10:51:00       27.965       68.459       85.036       56.476       67.422       41.304     3189.585     4545.666     1706.001        1.107        0.472       73.950       41.448        0.314      343.694       19.985      863.019
09/09/2014  10:52:00       66.940       46.778       32.187       53.394       66.074       32.729     2850.943     4365.763     1071.201        0.800        0.414       81.665       22.662        0.077      343.767       20.111      863.014
09/09/2014  10:53:00       13.418       22.748       30.290       28.813       43.432       24.931      830.183     1886.340      621.565        0.248        0.167       26.410       19.992        0.573      344.410       21.208      863.012
09/09/2014  10:54:00       74.369      -35.410       22.020       72.845       74.297       44.268     5306.430     5520.070     1959.612        1.003        0.639       82.369       47.268        0.329      344.119       20.712      863.011
09/09/2014  10:55:00      -14.269       -6.587       58.449       29.855       49.254       26.919      891.298     2426.005      724.609        0.385        0.202       15.716       19.871        1.598      344.613       21.557      862.998
09/09/2014  10:56:00      -27.305      -20.679       11.287       22.912       39.795       24.735      524.949     1583.640      611.800        0.201        0.136       34.251       17.012        0.247      344.395       21.184      862.993
09/09/2014  10:57:00       67.141     -112.484      -20.952       72.686       56.256       49.011     5283.195     3164.771     2402.085        1.422        0.543      130.999       41.791        0.102      344.242       20.921      862.973
09/09/2014  10:58:00       62.710      -93.456       25.951       69.516      113.127       65.165     4832.497    12797.694     4246.503        1.760        1.094      112.545       76.501        0.462      344.529       21.411      862.965
09/09/2014  10:59:00      115.950     -109.991      -20.643       75.801       90.294       55.045     5745.857     8153.082     3029.939        2.145        0.846      159.820       62.068        0.151      344.164       20.787      862.949
09/09/2014  11:00:00       51.142     -137.239      -13.199       39.836       65.066       46.061     1586.914     4233.521     2121.600        1.478        0.397      146.458       46.106        0.099      343.921       20.371      862.956
09/09/2014  11:01:00       34.773     -100.181      -16.852       23.227       58.771       22.014      539.498     3454.045      484.602        0.800        0.224      106.045        8.128        0.006      343.812       20.188      862.955
09/09/2014  11:02:00       19.843       -2.075       27.310       29.583       26.302       22.561      875.160      691.783      509.002        0.161        0.104       19.952       12.751        0.408      344.610       21.552      862.952
09/09/2014  11:03:00       10.388      -17.945       25.416       41.194       47.011       33.419     1696.955     2210.049     1116.823        0.305        0.251       20.735       25.449        1.506      344.618       21.564      862.941
09/09/2014  11:04:00       32.071       26.210       57.002       46.590       50.194       42.519     2170.637     2519.388     1807.853        0.573        0.325       41.418       32.188        0.604      344.523       21.402      862.941
09/09/2014  11:05:00       23.054       30.575       13.607       58.867       29.654       34.289     3465.315      879.344     1175.721        0.359        0.276       38.293       18.691        0.238      344.257       20.947      862.936
09/09/2014  11:06:00        7.408       -0.274       15.594       27.236       31.625       29.493      741.780     1000.168      869.821        0.145        0.131        7.413       13.149        3.147      344.811       21.896      862.935
09/09/2014  11:07:00       16.556      -18.380       11.353       27.463       34.744       27.774      754.198     1207.118      771.416        0.174        0.137       24.737       12.167        0.242      343.997       20.503      862.933
09/09/2014  11:08:00      -21.529       -7.538       -1.919       12.313       18.166       11.435      151.607      330.005      130.759        0.057        0.031       22.810        3.747        0.027      343.969       20.456      862.924
09/09/2014  11:09:00       -6.196       -2.137       -9.406       17.156       20.225       15.834      294.335      409.060      250.720        0.054        0.048        6.554       12.126        3.422      344.350       21.107      862.925
09/09/2014  11:10:00       42.273      -38.844       14.934       41.314       65.879       35.885     1706.874     4339.985     1287.761        0.543        0.367       57.409       25.450        0.197      344.177       20.811      862.907
09/09/2014  11:11:00        4.354       43.552       54.517       53.557       50.397       50.509     2868.375     2539.889     2551.196        0.642        0.398       43.769       43.127        0.971      344.505       21.371      862.899
09/09/2014  11:12:00       79.385       89.342       11.564       39.755       51.915       51.014     1580.431     2695.141     2602.383        1.065        0.344      119.516       37.462        0.098      344.134       20.737      862.895
09/09/2014  11:13:00       42.285       40.990       -1.747       16.451       16.176       18.112      270.629      261.675      328.048        0.217        0.043       58.891       13.112        0.050      344.141       20.752      862.879
09/09/2014  11:14:00       27.145        2.921        0.319       35.565       31.880       19.677     1264.891     1016.341      387.177        0.171        0.133       27.302       11.891        0.190      344.350       21.107      862.875
09/09/2014  11:15:00       51.214      -33.799       23.521       68.404       67.470       43.080     4679.125     4552.139     1855.904        0.770        0.554       61.362       40.990        0.446      344.918       22.078      862.851
09/09/2014  11:16:00       44.521      -52.691       26.269       70.415      112.004       46.938     4958.290    12544.990     2203.149        1.257        0.985       68.982       60.995        0.782      344.766       21.817      862.846
09/09/2014  11:17:00       63.731      -95.177       -5.211       74.959       86.778       54.301     5618.809     7530.396     2948.585        1.462        0.805      114.544       55.817        0.237      344.680       21.669      862.844
09/09/2014  11:18:00       27.335      -36.530       42.734       42.127       60.308       40.335     1774.723     3637.086     1626.873        0.547        0.352       45.625       29.346        0.414      345.028       22.266      862.835
09/09/2014  11:19:00      -65.529      -48.670      -14.014       53.118       55.374       28.497     2821.490     3066.331      812.082        0.678        0.335       81.626       25.127        0.095      344.403       21.197      862.833
09/09/2014  11:20:00        2.795       21.808       30.612       50.605       30.464       36.525     2560.906      928.055     1334.074        0.312        0.241       21.987       22.898        1.085      345.020       22.253      862.816
09/09/2014  11:21:00       43.360       64.253       87.495       71.689       42.727       22.069     5139.309     1825.596      487.039        1.056        0.373       77.515       20.325        0.069      344.574       21.489      862.811
09/09/2014  11:22:00      134.710      111.093       67.337       83.157       68.737       65.921     6915.061     4724.834     4345.533        2.550        0.799      174.609       61.025        0.122      344.322       21.055      862.779
09/09/2014  11:23:00      113.136      113.834       76.613       81.011       72.912       73.016     6562.796     5316.206     5331.349        2.442        0.861      160.492       63.079        0.154      344.468       21.307      862.774
09/09/2014  11:24:00      107.298       94.374       67.123       64.346       39.460       53.883     4140.471     1557.110     2903.345        1.676        0.430      142.896       44.633        0.098      344.524       21.404      862.766
09/09/2014  11:25:00       62.744       74.102       79.785       63.356       42.481       40.309     4013.996     1804.655     1624.783        1.162        0.372       97.098       36.493        0.141      344.732       21.761      862.761
09/09/2014  11:26:00       92.775       75.858       73.860       66.456       57.569       57.313     4416.362     3314.211     3284.733        1.541        0.551      119.840       42.728        0.127      344.524       21.403      862.745
09/09/2014  11:27:00       43.350        6.363       45.268       57.061       73.744       57.764     3256.013     5438.191     3336.723        0.800        0.602       43.814       51.536        1.384      345.040       22.286      862.756
09/09/2014  11:28:00       25.799       26.262       30.436       30.111       50.798       30.439      906.702     2580.401      926.521        0.335        0.221       36.814       20.774        0.318      344.812       21.898      862.754
09/09/2014  11:29:00       28.240       -6.845       41.315       43.137       50.847       39.497     1860.760     2585.369     1560.044        0.428        0.300       29.058       29.288        1.016      345.004       22.226      862.739
09/09/2014  11:30:00       83.073      -65.622        8.057       51.508       62.021       33.305     2653.072     3846.659     1109.230        0.944        0.380      105.865       20.537        0.038      344.337       21.085      862.738
09/09/2014  11:31:00       40.811      -24.242       17.159       29.487       24.071       20.099      869.460      579.417      403.987        0.220        0.093       47.468       17.225        0.132      344.788       21.854      862.736
09/09/2014  11:32:00       14.503      -45.351        2.315       21.673       33.116       21.054      469.697     1096.675      443.251        0.214        0.100       47.613       20.201        0.180      344.664       21.644      862.737
09/09/2014  11:33:00       23.777        8.420       26.386       27.844       43.559       22.849      775.271     1897.360      522.067        0.226        0.160       25.224       24.541        0.947      345.012       22.240      862.727
09/09/2014  11:34:00       34.586       -3.005       15.885       31.898       36.450       30.350     1017.464     1328.590      921.137        0.236        0.163       34.716       16.694        0.231      344.915       22.072      862.709
09/09/2014  11:35:00       57.687      -71.172        2.343       75.139       87.907       49.928     5645.827     7727.633     2492.822        1.213        0.793       91.615       58.794        0.412      345.006       22.228      862.696
09/09/2014  11:36:00       55.817      -61.599        6.580       53.680       77.379       45.299     2881.559     5987.440     2051.959        0.894        0.546       83.126       55.883        0.452      344.945       22.125      862.684
09/09/2014  11:37:00        2.342      -48.362        9.014       30.678       84.520       40.455      941.168     7143.603     1636.603        0.607        0.486       48.419       47.192        0.950      345.279       22.697      862.673
09/09/2014  11:38:00       21.405       34.161       46.568       38.362       48.553       44.034     1471.663     2357.413     1939.010        0.478        0.288       40.313       39.181        0.945      345.430       22.955      862.665
09/09/2014  11:39:00       -7.259       59.395       95.458       30.884       43.836       26.375      953.828     1921.562      695.627        0.813        0.179       59.837       26.535        0.197      345.235       22.620      862.649
09/09/2014  11:40:00       -0.323       70.192      105.701       33.845       53.434       30.727     1145.469     2855.227      944.129        1.052        0.247       70.193       32.688        0.217      345.150       22.476      862.638
09/09/2014  11:41:00       16.874      -12.531       36.728       37.786       40.202       26.844     1427.807     1616.182      720.586        0.278        0.188       21.018       30.830        2.152      345.009       22.235      862.636
09/09/2014  11:42:00      -10.913      -23.824        2.349       51.683       31.340       34.985     2671.160      982.206     1223.933        0.278        0.244       26.205       22.654        0.747      345.263       22.668      862.632
09/09/2014  11:43:00      -28.050       -0.673       21.719       23.909       38.121       39.919      571.623     1453.230     1593.532        0.244        0.181       28.058       34.611        1.522      345.375       22.862      862.629
09/09/2014  11:44:00      -35.839        0.182       17.317       50.989       39.301       41.260     2599.837     1544.575     1702.419        0.371        0.292       35.840       36.954        1.063      345.264       22.671      862.626
09/09/2014  11:45:00       29.675       33.423       59.292       46.537       35.263       26.725     2165.686     1243.505      714.236        0.482        0.206       44.695       26.407        0.349      345.115       22.415      862.600
09/09/2014  11:46:00       27.535        1.297       60.003       37.521       49.125       38.987     1407.833     2413.232     1520.006        0.485        0.267       27.565       28.481        1.068      345.172       22.513      862.584
09/09/2014  11:47:00       34.537       20.518       55.462       41.439       43.407       35.191     1717.166     1884.183     1238.440        0.476        0.242       40.172       23.846        0.352      345.226       22.607      862.569
09/09/2014  11:48:00       27.852        4.667       40.350       28.154       28.408       20.592      792.641      807.035      424.030        0.222        0.101       28.240       13.914        0.243      345.457       23.002      862.573
09/09/2014  11:49:00       28.083        2.742       25.533       29.697       23.237       28.186      881.928      539.938      794.434        0.183        0.111       28.217       19.264        0.466      345.268       22.678      862.565
09/09/2014  11:50:00       30.323       16.743       36.508       38.037       22.592       24.305     1446.798      510.399      590.753        0.254        0.127       34.638       18.222        0.277      345.451       22.992      862.549
09/09/2014  11:51:00       36.133      -14.998       26.169       38.536       35.772       28.836     1485.024     1279.612      831.511        0.291        0.180       39.122       24.832        0.403      345.591       23.232      862.536
09/09/2014  11:52:00       59.488      101.041       97.123       91.693       58.576       49.140     8407.636     3431.171     2414.750        1.871        0.713      117.253       42.555        0.132      345.162       22.495      862.516
09/09/2014  11:53:00      109.558      107.171       65.687       64.500       35.771       48.017     4160.245     1279.591     2305.614        1.777        0.387      153.260       33.209        0.047      344.917       22.077      862.519
09/09/2014  11:54:00       86.553       78.361       61.693       82.903       60.625       47.420     6872.911     3675.413     2248.684        1.512        0.640      116.755       50.023        0.184      345.463       23.010      862.503
09/09/2014  11:55:00       44.768       39.045       66.129       46.205       39.661       30.207     2134.873     1573.030      912.464        0.626        0.231       59.403       15.559        0.069      345.267       22.675      862.506
09/09/2014  11:56:00       49.824       68.153       60.870       35.367       31.723       26.956     1250.832     1006.317      726.636        0.691        0.149       84.423       14.894        0.031      344.907       22.060      862.494
09/09/2014  11:57:00       27.731       15.763       47.708       26.501       19.416       25.384      702.280      376.993      644.367        0.251        0.086       31.898       20.477        0.412      345.417       22.932      862.476
09/09/2014  11:58:00      -24.623       23.346       14.397       43.616       25.045       29.454     1902.335      627.248      867.534        0.238        0.170       33.931       29.384        0.750      345.740       23.487      862.463
09/09/2014  11:59:00      -91.549       -3.460       -7.835       50.311       64.878       31.435     2531.242     4209.139      988.139        0.809        0.386       91.614       21.317        0.054      345.337       22.795      862.439
09/09/2014  12:00:00     -111.388      -22.392       -0.871       24.730       32.744       21.219      611.579     1072.141      450.266        0.752        0.107      113.616       21.246        0.035      345.138       22.453      862.431
09/09/2014  12:01:00      -45.823       22.606       16.508       38.025       22.466       34.569     1445.870      504.729     1195.016        0.301        0.157       51.095       29.972        0.344      345.806       23.601      862.415
09/09/2014  12:02:00        2.818       -8.757       16.919       21.641       40.597       25.656      468.332     1648.086      658.212        0.157        0.139        9.199       18.857        4.202      346.124       24.146      862.409
09/09/2014  12:03:00       64.480       47.639      -14.385       37.122       41.821       37.851     1378.063     1749.027     1432.685        0.560        0.228       80.170       21.657        0.073      345.368       22.849      862.390
09/09/2014  12:04:00       37.288       26.255       18.296       28.589       21.279       27.105      817.323      452.798      734.672        0.221        0.100       45.604       15.652        0.118      346.075       24.063      862.381
09/09/2014  12:05:00       40.811       58.276       57.157       46.714       29.529       29.340     2182.194      871.966      860.845        0.612        0.196       71.145       19.828        0.078      345.894       23.751      862.359
09/09/2014  12:06:00        1.944      -52.735       28.077       41.393       64.801       39.110     1713.360     4199.199     1529.590        0.551        0.372       52.771       35.365        0.449      346.236       24.339      862.349
09/09/2014  12:07:00       33.330       -9.310       32.372       43.903       38.210       29.690     1927.516     1460.042      881.524        0.326        0.213       34.606       18.474        0.285      346.154       24.198      862.334
09/09/2014  12:08:00       40.837      -35.072       19.192       53.843       61.690       42.325     2899.115     3805.614     1791.371        0.588        0.425       53.830       28.586        0.282      346.033       23.988      862.312
09/09/2014  12:09:00       91.473     -155.241      -14.075       56.380       73.785       52.471     3178.731     5444.273     2753.224        2.202        0.569      180.186       51.598        0.082      345.715       23.441      862.303
09/09/2014  12:10:00       52.835      -19.818       44.946       61.269       63.913       51.221     3753.919     4084.822     2623.547        0.783        0.523       56.429       52.320        0.860      346.089       24.086      862.309
09/09/2014  12:11:00       81.232       14.889       53.241       52.764       41.985       46.271     2784.089     1762.732     2141.009        0.817        0.334       82.585       38.317        0.215      345.975       23.889      862.305
09/09/2014  12:12:00       26.805      -47.610      -19.486       57.433       37.191       24.482     3298.567     1383.186      599.372        0.432        0.264       54.637       12.507        0.052      345.345       22.808      862.303
09/09/2014  12:13:00       10.555      -76.341       -1.167       24.245       31.444       25.277      587.804      988.748      638.922        0.408        0.111       77.067       12.448        0.026      345.908       23.775      862.280
09/09/2014  12:14:00       -6.413      -72.588      -21.856       58.041       37.471       33.234     3368.780     1404.061     1104.513        0.583        0.294       72.870       23.195        0.101      345.912       23.783      862.271
09/09/2014  12:15:00      -14.193      -16.525       -0.510       54.667       53.288       31.964     2988.492     2839.632     1021.669        0.366        0.342       21.783       21.286        0.955      346.189       24.258      862.262
09/09/2014  12:16:00       56.781       -6.847       43.129       47.511       56.113       49.142     2257.282     3148.639     2414.908        0.647        0.391       57.193       51.265        0.803      346.203       24.282      862.246
09/09/2014  12:17:00       16.204        3.182       41.770       29.624       33.657       29.015      877.579     1132.799      841.872        0.243        0.143       16.513       26.479        2.571      346.551       24.879      862.240
09/09/2014  12:18:00      -37.796      -31.944       12.752       42.006       49.917       28.952     1764.505     2491.751      838.199        0.385        0.255       49.487       28.779        0.338      346.205       24.284      862.228
09/09/2014  12:19:00      -93.909     -118.062        3.131       94.993       71.603       47.660     9023.612     5126.962     2271.442        1.959        0.821      150.856       45.023        0.089      345.759       23.517      862.216
09/09/2014  12:20:00      -24.128     -124.365        0.973       46.043       44.427       31.899     2119.932     1973.762     1017.560        1.058        0.256      126.684       19.088        0.023      345.788       23.568      862.198
09/09/2014  12:21:00        6.281       -6.721       33.632       34.884       48.667       31.898     1216.887     2368.448     1017.464        0.291        0.230        9.199       33.762       13.470      346.780       25.275      862.193
09/09/2014  12:22:00      -11.394       -3.002       11.310       30.079       19.266       23.080      904.737      371.184      532.704        0.104        0.090       11.783       19.545        2.751      346.571       24.915      862.183
09/09/2014  12:23:00       -2.480        4.913       11.158       21.384       27.820       19.570      457.284      773.945      382.971        0.088        0.081        5.503       11.398        4.289      346.327       24.494      862.173
09/09/2014  12:24:00     -120.720      -46.607       -0.989       63.836       51.502       39.427     4075.044     2652.462     1554.492        1.251        0.414      129.404       36.419        0.079      346.093       24.091      862.159
09/09/2014  12:25:00      -21.076      -87.832       -1.059       37.864       51.344       31.136     1433.645     2636.256      969.444        0.660        0.252       90.325       26.699        0.087      345.984       23.906      862.156
09/09/2014  12:26:00        5.392     -103.624      -10.172       32.117       41.430       32.213     1031.478     1716.483     1037.674        0.733        0.189      103.764       23.001        0.049      345.776       23.548      862.143
09/09/2014  12:27:00       51.160       21.666       29.406       53.779       57.472       35.937     2892.141     3303.023     1291.440        0.572        0.374       55.559       30.814        0.308      346.650       25.051      862.134
09/09/2014  12:28:00      113.390       74.182       27.767       57.726       50.048       49.180     3332.248     2504.757     2418.650        1.369        0.413      135.500       23.972        0.031      345.803       23.595      862.117
09/09/2014  12:29:00      140.339       86.158       31.554       68.011       44.473       43.299     4625.447     1977.870     1874.843        1.829        0.424      164.676       22.527        0.019      345.821       23.624      862.103
09/09/2014  12:30:00      119.452       49.795       25.464       76.220       59.624       43.572     5809.548     3555.059     1898.493        1.433        0.563      129.416       31.319        0.059      346.228       24.325      862.079
09/09/2014  12:31:00       81.863       42.847       19.465       67.542       44.192       40.084     4561.972     1952.930     1606.712        0.852        0.406       92.398       32.101        0.121      346.102       24.107      862.066
09/09/2014  12:32:00       89.734       75.291       46.350       65.835       47.475       46.816     4334.208     2253.847     2191.780        1.232        0.439      117.137       33.650        0.083      346.462       24.727      862.041
09/09/2014  12:33:00      154.773      103.819       14.566       95.471       68.261       60.952     9114.734     4659.541     3715.187        2.621        0.874      186.368       47.976        0.066      346.231       24.328      862.029
09/09/2014  12:34:00      106.912      141.796        0.003       67.186       70.255       56.679     4513.921     4935.774     3212.461        2.210        0.633      177.585       47.995        0.073      346.055       24.025      862.019
09/09/2014  12:35:00        8.213      106.717      -10.142       36.087       90.376       37.025     1302.253     8167.892     1370.814        1.120        0.542      107.033       46.963        0.193      346.167       24.219      862.016
09/09/2014  12:36:00       35.082       85.036        5.244       46.191       63.052       40.957     2133.654     3975.565     1677.441        0.814        0.389       91.988       38.711        0.177      346.424       24.661      862.006
09/09/2014  12:37:00       63.616       65.397       12.693       56.808       34.459       40.151     3227.103     1187.407     1612.084        0.725        0.301       91.235       30.618        0.113      346.540       24.862      862.001
09/09/2014  12:38:00      139.749       80.213       25.344       73.838       60.350       47.305     5452.101     3642.098     2237.738        1.897        0.567      161.133       25.901        0.026      346.641       25.034      861.984
09/09/2014  12:39:00      125.873       84.978       17.143       80.560       67.071       55.890     6489.841     4498.500     3123.711        1.873        0.706      151.873       26.100        0.030      346.164       24.213      861.990
09/09/2014  12:40:00      122.211       92.393        9.194       43.795       64.575       49.198     1917.966     4169.981     2420.475        1.603        0.425      153.205       35.085        0.052      346.024       23.974      861.988
09/09/2014  12:41:00       89.979      115.308        6.246       56.451       58.605       42.966     3186.740     3434.545     1846.061        1.495        0.423      146.261       35.979        0.061      346.224       24.318      861.977
09/09/2014  12:42:00       57.156       70.765       82.497       60.916       66.839       53.473     3710.805     4467.425     2859.327        1.306        0.552       90.965       43.292        0.227      346.636       25.025      861.952
09/09/2014  12:43:00       73.909       -7.585       22.425       57.058       95.890       34.825     3255.601     9194.986     1212.761        0.984        0.683       74.298       31.325        0.178      346.419       24.653      861.948
09/09/2014  12:44:00      108.753       80.296       65.656       90.021       50.052       54.537     8103.694     2505.193     2974.303        1.808        0.679      135.184       50.718        0.141      346.837       25.371      861.943
09/09/2014  12:45:00       52.407       46.860       27.878       71.008       40.324       41.493     5042.206     1626.062     1721.639        0.705        0.419       70.302       22.604        0.103      346.847       25.390      861.924
09/09/2014  12:46:00        6.266      -29.336       38.156       26.349       65.945       29.416      694.247     4348.803      865.320        0.413        0.295       29.998       27.603        0.847      347.232       26.051      861.921
09/09/2014  12:47:00       54.338      -12.184       43.232       61.647       65.649       43.363     3800.375     4309.831     1880.393        0.748        0.500       55.687       34.729        0.389      347.046       25.732      861.906
09/09/2014  12:48:00       82.321       45.948        3.360       55.551       56.626       35.809     3085.918     3206.486     1282.312        0.824        0.379       94.277       28.163        0.089      347.074       25.780      861.907
09/09/2014  12:49:00       73.612       78.165       55.356       80.500       52.221       62.316     6480.318     2727.020     3883.275        1.384        0.655      107.371       51.376        0.229      347.040       25.721      861.891
09/09/2014  12:50:00       74.655       53.965       43.604       63.842       34.762       34.966     4075.853     1208.375     1222.622        0.845        0.325       92.117       18.498        0.040      346.591       24.949      861.889
09/09/2014  12:51:00       35.831       66.018        2.875       32.306       44.816       34.450     1043.659     2008.499     1186.774        0.494        0.212       75.114       28.295        0.142      346.801       25.309      861.876
09/09/2014  12:52:00       21.384       79.710       -2.368       29.006       54.235       29.187      841.374     2941.441      851.901        0.572        0.232       82.529       24.977        0.092      346.740       25.206      861.870
09/09/2014  12:53:00       30.351       11.095       31.779       26.011       17.049       19.632      676.597      290.660      385.432        0.170        0.068       32.315       15.800        0.239      347.052       25.742      861.868
09/09/2014  12:54:00       -0.555       27.323        2.186       21.579       26.131       22.798      465.646      682.844      519.740        0.121        0.083       27.329       21.733        0.632      346.767       25.253      861.843
09/09/2014  12:55:00      -48.307       -0.726       -4.606       30.259       28.440       21.591      915.611      808.853      466.150        0.227        0.110       48.312       16.213        0.113      346.971       25.604      861.822
09/09/2014  12:56:00      -69.168      -56.405       -4.424       43.202       25.843       28.008     1866.408      667.884      784.426        0.565        0.166       89.251       26.534        0.088      346.501       24.794      861.818
09/09/2014  12:57:00      -70.128      -39.061      -20.788       13.998       27.352       13.881      195.952      748.156      192.679        0.401        0.057       80.272        6.397        0.006      346.149       24.188      861.811
09/09/2014  12:58:00      -64.155      -57.005       -0.784       42.406       32.499       30.108     1798.302     1056.191      906.465        0.556        0.188       85.822       24.765        0.083      346.515       24.819      861.801
09/09/2014  12:59:00      -89.286      -55.821       -4.119       22.229       29.923       20.556      494.109      895.387      422.531        0.646        0.091      105.300       13.259        0.016      346.309       24.464      861.779
09/09/2014  13:00:00      -49.527      -45.529      -15.411       32.431       28.911       18.869     1051.743      835.834      356.045        0.350        0.112       67.274       10.878        0.026      346.313       24.471      861.763
09/09/2014  13:01:00      -10.267      -40.324        3.699       43.183       29.338       24.862     1864.730      860.701      618.117        0.254        0.167       41.611       19.512        0.220      346.907       25.493      861.750
09/09/2014  13:02:00      -10.807      -53.822        2.044       44.987       35.243       30.891     2023.851     1242.063      954.272        0.362        0.211       54.896       21.008        0.146      346.835       25.368      861.728
09/09/2014  13:03:00      -20.600      -39.003       -4.784       42.384       49.277       30.140     1796.399     2428.247      908.435        0.355        0.257       44.109       25.106        0.324      347.042       25.725      861.716
09/09/2014  13:04:00       17.142      -81.024       21.829       36.741       82.200       52.823     1349.898     6756.824     2790.272        0.911        0.545       82.817       53.315        0.414      347.214       26.022      861.695
09/09/2014  13:05:00       21.351     -111.944        0.183       65.745       51.289       40.919     4322.409     2630.534     1674.386        1.081        0.431      113.962       35.903        0.099      346.994       25.641      861.691
09/09/2014  13:06:00       -7.079      -22.989       17.594       40.696       56.447       27.409     1656.151     3186.215      751.276        0.324        0.280       24.054       22.574        0.881      347.239       26.064      861.681
09/09/2014  13:07:00       13.315      -28.924       26.087       43.542       52.517       40.209     1895.934     2758.085     1616.793        0.398        0.314       31.841       31.404        0.973      347.473       26.470      861.667
09/09/2014  13:08:00       27.086       -9.341       31.829       39.546       44.718       38.717     1563.885     1999.660     1498.988        0.345        0.253       28.652       29.032        1.027      347.427       26.389      861.653
09/09/2014  13:09:00       29.284       39.492       71.655       50.070       33.416       29.473     2507.007     1116.637      868.645        0.602        0.225       49.164       13.986        0.081      347.199       25.995      861.622
09/09/2014  13:10:00        2.628        1.769       74.653       32.404       78.777       47.679     1050.045     6205.884     2273.259        0.755        0.476        3.168       54.441      295.300      347.515       26.541      861.602
09/09/2014  13:11:00       50.044       16.832       73.504       76.660      114.457       78.334     5876.740    13100.336     6136.144        1.665        1.256       52.799       88.576        2.814      347.189       25.978      861.572
09/09/2014  13:12:00       34.436       -8.668       42.846       75.804       82.339       56.256     5746.209     6779.654     3164.783        0.939        0.785       35.511       63.311        3.179      347.185       25.971      861.563
09/09/2014  13:13:00       56.953      -95.350       18.576       92.214      103.791       56.089     8503.472    10772.487     3145.922        1.755        1.121      111.064       68.600        0.382      347.108       25.837      861.547
09/09/2014  13:14:00       46.172      -46.678       26.927       59.537      101.821       51.273     3544.713    10367.609     2628.958        1.079        0.827       65.656       62.559        0.908      347.118       25.856      861.538
09/09/2014  13:15:00       28.298       18.207       42.206       56.092       62.512       36.777     3146.257     3907.742     1352.578        0.566        0.420       33.649       36.238        1.160      347.616       26.714      861.523
09/09/2014  13:16:00      128.745     -149.455       -8.125       92.804       87.521       63.775     8612.569     7659.858     4067.304        2.966        1.017      197.261       69.191        0.123      346.981       25.615      861.508
09/09/2014  13:17:00       97.248     -124.084       10.962      118.706      105.556       77.407    14091.080    11142.032     5991.873        2.809        1.561      157.652       91.480        0.337      347.063       25.758      861.506
09/09/2014  13:18:00       93.390     -124.852       22.802      103.602      100.659       58.982    10733.350    10132.181     3478.878        2.458        1.217      155.916       65.117        0.174      346.864       25.417      861.527
09/09/2014  13:19:00       38.918      -43.093       21.847       50.584       77.462       30.645     2558.788     6000.290      939.089        0.667        0.475       58.065       33.556        0.334      346.849       25.392      861.539
09/09/2014  13:20:00      -53.884       10.759        4.404       56.777       21.108       28.039     3223.664      445.531      786.213        0.375        0.223       54.947       24.117        0.193      347.006       25.663      861.520
09/09/2014  13:21:00       84.852      -78.889        6.924      106.897      126.966       62.933    11427.073    16120.435     3960.541        2.248        1.575      115.859       78.548        0.460      347.068       25.767      861.488
09/09/2014  13:22:00      108.248     -173.667      -48.305       82.899       96.605       63.292     6872.247     9332.595     4005.886        3.221        1.011      204.640       60.350        0.087      346.991       25.632      861.464
09/09/2014  13:23:00       68.371      -83.254       32.125       77.780      107.031       73.135     6049.677    11455.682     5348.667        1.774        1.143      107.730       64.973        0.364      347.223       26.036      861.448
09/09/2014  13:24:00       44.888      -18.189       57.225       62.557       80.442       62.859     3913.325     6470.897     3951.243        0.998        0.717       48.433       39.993        0.682      347.406       26.351      861.419
09/09/2014  13:25:00        9.306     -183.016      -18.440       57.957       69.812       48.669     3359.016     4873.699     2368.658        2.226        0.530      183.252       39.744        0.047      346.950       25.564      861.415
09/09/2014  13:26:00       55.245     -162.756      -22.578       76.936       97.963       69.217     5919.167     9596.835     4791.040        2.518        1.015      171.876       62.350        0.132      346.954       25.570      861.397
09/09/2014  13:27:00       42.924     -139.981      -39.074       89.683       74.620       53.842     8043.106     5568.116     2898.991        1.973        0.826      146.414       43.519        0.088      346.900       25.479      861.388
09/09/2014  13:28:00       41.781     -121.297      -20.175       87.857      110.088       62.380     7718.771    12119.381     3891.287        2.029        1.186      128.291       59.181        0.213      347.128       25.870      861.375
09/09/2014  13:29:00       49.211        1.126       96.438       68.667       78.804       68.113     4715.171     6210.108     4639.319        1.364        0.778       49.224       59.271        1.450      347.284       26.142      861.381
09/09/2014  13:30:00      -16.441      -82.150       33.136       93.299      122.213       69.436     8704.738    14936.038     4821.411        1.828        1.423       83.779       75.594        0.814      347.153       25.914      861.353
09/09/2014  13:31:00      -67.103      -91.892       -2.936      116.209       81.313       58.386    13504.606     6611.846     3408.922        1.824        1.176      113.785       19.571        0.030      347.190       25.979      861.351
09/09/2014  13:32:00     -197.552      -18.893      -21.236       86.819       55.400       38.384     7537.513     3069.118     1473.355        2.596        0.604      198.453       40.283        0.041      346.870       25.428      861.345
09/09/2014  13:33:00      -87.416       -5.787       -0.773       68.031       45.663       27.141     4628.233     2085.110      736.616        0.756        0.372       87.607       29.329        0.112      347.019       25.686      861.326
09/09/2014  13:34:00     -137.800       25.318      -21.024       69.610       62.158       31.809     4845.556     3863.622     1011.803        1.489        0.486      140.107       36.721        0.069      346.896       25.474      861.312
09/09/2014  13:35:00      -52.287      130.004       -9.529       62.599       70.141       43.974     3918.690     4919.753     1933.683        1.525        0.539      140.125       33.817        0.058      347.024       25.695      861.311
09/09/2014  13:36:00      -31.679      135.791      -15.578       41.567       74.137       30.856     1727.786     5496.365      952.085        1.393        0.409      139.437       26.806        0.037      347.023       25.692      861.305
09/09/2014  13:37:00       20.292      170.117      -17.452       50.498      100.738       46.566     2550.066    10148.192     2168.410        2.226        0.743      171.323       46.375        0.073      347.086       25.799      861.293
09/09/2014  13:38:00       46.701      183.190      -11.269       50.904       78.956       36.974     2591.181     6233.987     1367.102        2.303        0.510      189.049       32.904        0.030      347.074       25.777      861.287
09/09/2014  13:39:00       52.416       35.386        9.611       28.708       25.778       30.876      824.172      664.506      953.317        0.327        0.122       63.243       22.298        0.124      347.035       25.713      861.287
09/09/2014  13:40:00       15.503       15.282       -2.712       30.150       38.246       23.269      909.011     1462.728      541.431        0.170        0.146       21.769       19.852        0.832      347.145       25.903      861.273
09/09/2014  13:41:00        4.285       -1.970        7.100       19.402       50.785       30.328      376.451     2579.159      919.771        0.197        0.194        4.716       28.791       37.264      347.601       26.690      861.266
09/09/2014  13:42:00      -38.278       10.337        9.135       34.207       25.786       23.277     1170.130      664.930      541.817        0.202        0.119       39.649       21.412        0.292      347.423       26.383      861.249
09/09/2014  13:43:00        9.027      -44.362       21.549       27.903       59.613       20.996      778.557     3553.741      440.853        0.364        0.239       45.271       17.062        0.142      347.717       26.888      861.241
09/09/2014  13:44:00     -144.385     -107.297       -6.167       77.594       78.176       48.457     6020.795     6111.412     2348.061        2.344        0.724      179.888       43.962        0.060      347.022       25.689      861.223
09/09/2014  13:45:00       -0.121      -68.638       10.232       99.771       97.842       55.980     9954.351     9573.053     3133.759        1.373        1.133       68.638       46.306        0.455      347.402       26.346      861.195
09/09/2014  13:46:00       60.004      -21.261       45.956       87.356      140.292       95.898     7631.090    19681.952     9196.369        2.133        1.825       63.660      114.659        3.244      347.291       26.151      861.150
09/09/2014  13:47:00       58.114      -49.238       37.792       75.047      126.680       83.467     5631.978    16047.722     6966.741        1.793        1.432       76.168       97.840        1.650      347.112       25.844      861.118
09/09/2014  13:48:00       29.779      -36.559       51.765       58.251       87.711       45.096     3393.168     7693.184     2033.626        0.901        0.656       47.152       46.667        0.980      347.533       26.571      861.088
09/09/2014  13:49:00      -21.904       22.739       70.936       30.677       62.898       41.894      941.077     3956.159     1755.132        0.634        0.333       31.573       33.259        1.110      347.797       27.027      861.089
09/09/2014  13:50:00       37.769      -15.548       16.651       50.779       28.588       26.807     2578.471      817.292      718.630        0.303        0.206       40.844       26.569        0.423      347.456       26.437      861.084
09/09/2014  13:51:00      -57.254      -24.851        6.226       53.758       37.105       24.042     2889.883     1376.790      578.006        0.439        0.242       62.414       19.342        0.096      347.632       26.742      861.081
09/09/2014  13:52:00      -70.741      -87.854       11.627       60.499       52.168       34.657     3660.167     2721.509     1201.083        1.022        0.379      112.795       28.633        0.064      347.497       26.510      861.089
09/09/2014  13:53:00     -150.374     -143.193       -4.361       78.064       57.606       34.560     6093.925     3318.508     1194.427        2.687        0.530      207.645       34.166        0.027      347.123       25.861      861.090
09/09/2014  13:54:00     -119.161     -105.839        7.003       46.048       44.937       32.680     2120.423     2019.356     1067.961        1.533        0.260      159.378       30.308        0.036      347.278       26.131      861.087
09/09/2014  13:55:00     -176.284      -73.699       -6.471       92.534       52.274       36.639     8562.495     2732.619     1342.419        2.459        0.632      191.069       41.678        0.048      347.158       25.921      861.088
09/09/2014  13:56:00       23.465      -73.952       -9.208       52.287       35.062       29.397     2733.883     1229.354      864.159        0.547        0.241       77.585       28.448        0.134      347.125       25.869      861.085
09/09/2014  13:57:00      -45.982      -17.296       15.125       45.830       41.056       22.975     2100.395     1685.567      527.871        0.348        0.216       49.127       24.435        0.247      347.619       26.719      861.065
09/09/2014  13:58:00      -78.850      -30.396      -37.209       48.469       71.462       45.571     2349.214     5106.850     2076.757        0.903        0.477       84.506       19.389        0.053      347.223       26.038      861.073
09/09/2014  13:59:00      -96.498       29.426      -16.409       60.834       40.653       29.583     3700.750     1652.658      875.153        0.834        0.311      100.885       18.431        0.033      347.113       25.846      861.057
09/09/2014  14:00:00     -150.146      -43.188      -20.337       65.502       34.601       35.003     4290.557     1197.240     1225.182        1.577        0.336      156.234       28.225        0.033      347.132       25.878      861.048
09/09/2014  14:01:00       25.009      -48.883       17.940       34.095       36.199       29.614     1162.472     1310.355      876.965        0.334        0.167       54.909       27.759        0.256      347.574       26.642      861.043
09/09/2014  14:02:00       23.660      -47.042       11.309       32.562       22.284       19.915     1060.274      496.575      396.614        0.243        0.098       52.657        8.096        0.024      347.177       25.957      861.028
09/09/2014  14:03:00        3.056      -33.546       31.121       25.062       41.172       27.687      628.100     1695.138      766.590        0.260        0.154       33.685       14.894        0.195      347.726       26.903      861.004
09/09/2014  14:04:00       26.726       30.142        1.533       31.508       27.594       24.184      992.764      761.414      584.868        0.198        0.117       40.285       15.195        0.142      347.440       26.410      861.012
09/09/2014  14:05:00       26.426      -76.318       -3.906       44.249       45.136       30.352     1958.002     2037.233      921.223        0.573        0.246       80.764       27.671        0.117      347.427       26.388      860.994
09/09/2014  14:06:00      -45.674     -131.501       -7.248       65.177       47.428       30.731     4248.066     2249.412      944.413        1.344        0.372      139.208       16.520        0.014      347.342       26.241      860.957
09/09/2014  14:07:00      -72.259      -50.839       -0.302       89.292       53.443       38.534     7973.058     2856.135     1484.874        1.006        0.616       88.351       32.353        0.134      347.544       26.589      860.955
09/09/2014  14:08:00     -129.191       -8.514      -15.396       68.392       64.958       35.182     4677.403     4219.512     1237.771        1.357        0.507      129.471       39.154        0.091      347.541       26.584      860.957
09/09/2014  14:09:00     -180.965      -40.534      -14.137       56.885       45.215       26.558     3235.943     2044.370      705.345        2.029        0.299      185.449       17.873        0.009      347.346       26.246      860.941
09/09/2014  14:10:00     -204.221     -128.159      -17.122      122.433       71.352       43.625    14989.851     5091.148     1903.134        4.020        1.099      241.103       52.017        0.047      347.399       26.337      860.942
09/09/2014  14:11:00     -110.486     -170.289      -16.271      118.382       60.437       40.144    14014.229     3652.587     1611.523        3.037        0.964      202.991       46.242        0.052      347.124       25.863      860.960
09/09/2014  14:12:00        9.958     -122.359       -9.457       64.021       43.546       27.250     4098.687     1896.239      742.587        1.095        0.337      122.763       28.480        0.054      347.042       25.724      860.948
09/09/2014  14:13:00     -107.371      -14.668      -21.703       41.658       30.897       31.161     1735.421      954.652      971.030        0.794        0.183      108.368       21.529        0.039      347.109       25.842      860.921
09/09/2014  14:14:00     -108.491      -17.478      -15.121       40.293       62.888       21.829     1623.518     3954.960      476.511        0.918        0.303      109.890       17.750        0.026      347.396       26.336      860.891
09/09/2014  14:15:00     -109.687      -26.151      -24.308       38.126       48.038       21.047     1453.623     2307.647      442.959        0.875        0.210      112.761        7.827        0.005      347.310       26.186      860.892
09/09/2014  14:16:00       10.620      -38.275      -14.095       54.427       29.107       28.346     2962.351      847.203      803.524        0.319        0.231       39.721       12.540        0.100      347.292       26.156      860.896
09/09/2014  14:17:00       43.870       59.128       43.438       41.713       79.952       45.234     1739.944     6392.382     2046.139        0.874        0.509       73.626       42.875        0.339      347.618       26.719      860.881
09/09/2014  14:18:00      -61.678      -53.675       -3.501       58.585       73.664       43.040     3432.242     5426.440     1852.454        0.870        0.536       81.763       39.560        0.234      347.609       26.703      860.861
09/09/2014  14:19:00      101.278      -97.274        7.899       81.445       93.365       47.578     6633.232     8717.036     2263.691        1.870        0.881      140.426       51.656        0.135      347.730       26.908      860.869
09/09/2014  14:20:00       36.137       62.891      135.198       78.202      132.821       72.477     6115.523    17641.459     5252.888        2.627        1.450       72.534       92.219        1.616      347.967       27.318      860.838
09/09/2014  14:21:00       56.888      -34.674       16.486       82.308       87.752       73.651     6774.564     7700.361     5424.507        1.230        0.995       66.623       71.955        1.166      347.560       26.619      860.842
09/09/2014  14:22:00      -36.124      -44.289       17.965       75.140       55.705       36.432     5645.986     3102.994     1327.280        0.683        0.504       57.153       34.122        0.356      348.202       27.726      860.838
09/09/2014  14:23:00       66.689      -95.895        2.004       74.473       76.541       53.299     5546.210     5858.463     2840.825        1.394        0.712      116.805       44.353        0.144      347.898       27.200      860.827
09/09/2014  14:24:00       30.364     -125.558      -13.985       55.472       61.608       45.639     3077.122     3795.514     2082.926        1.292        0.448      129.178       26.095        0.041      347.765       26.971      860.839
09/09/2014  14:25:00       42.804     -105.367      -17.225       68.469      118.017       79.909     4688.041    13927.944     6385.470        1.911        1.250      113.730       66.354        0.340      347.797       27.025      860.824
09/09/2014  14:26:00      -44.614      -37.767        7.140       59.374       50.699       32.860     3525.292     2570.353     1079.758        0.532        0.359       58.453       33.260        0.324      348.070       27.498      860.797
09/09/2014  14:27:00       11.751     -113.007        6.159       86.338       88.793       48.340     7454.167     7884.235     2336.772        1.531        0.884      113.616       49.663        0.191      347.857       27.129      860.787
09/09/2014  14:28:00       15.353      -88.144       11.510       90.095       69.163       33.772     8117.093     4783.559     1140.549        1.109        0.702       89.471       35.863        0.161      347.829       27.083      860.779
09/09/2014  14:29:00      -17.325      -56.326        6.685       57.837       67.904       36.761     3345.161     4610.893     1351.391        0.641        0.465       58.931       38.842        0.434      347.965       27.317      860.765
09/09/2014  14:30:00       22.922     -115.449       -4.868       87.168       73.974       50.173     7598.307     5472.130     2517.288        1.473        0.779      117.702       30.316        0.066      347.631       26.738      860.749
09/09/2014  14:31:00       52.242     -109.816       -5.793       74.710      123.011       60.835     5581.528    15131.731     3700.930        1.961        1.221      121.609       60.752        0.250      347.730       26.910      860.746
09/09/2014  14:32:00       95.187     -108.265        7.734       91.489      114.473       69.076     8370.212    13104.067     4771.503        2.354        1.312      144.160       76.979        0.285      347.586       26.661      860.744
09/09/2014  14:33:00       52.328      -86.197       19.413       82.132       92.492       55.590     6745.741     8554.793     3090.236        1.446        0.920      100.838       52.028        0.266      347.836       27.093      860.725
09/09/2014  14:34:00        0.120      -90.716       -9.119       45.569       77.001       45.464     2076.569     5929.217     2066.991        0.919        0.504       90.716       41.985        0.214      348.009       27.392      860.735
09/09/2014  14:35:00      -20.785      -82.061       14.768       66.993       54.027       32.740     4488.110     2918.941     1071.877        0.793        0.424       84.653       26.575        0.099      347.997       27.372      860.733
09/09/2014  14:36:00      -47.899      -51.443       19.403       83.722       58.596       34.568     7009.346     3433.451     1194.941        0.848        0.582       70.291       27.492        0.153      348.010       27.394      860.721
09/09/2014  14:37:00      -53.224     -135.678        2.140       86.653       87.633       40.238     7508.721     7679.471     1619.057        1.902        0.840      145.744       40.730        0.078      347.635       26.745      860.702
09/09/2014  14:38:00      -83.283      -63.299       -4.233       53.864       36.950       26.504     2901.366     1365.267      702.461        0.796        0.248      104.608       10.180        0.009      347.495       26.505      860.673
09/09/2014  14:39:00      -22.277      -76.644       -3.594       50.119       61.810       32.267     2511.906     3820.502     1041.157        0.688        0.369       79.816       35.306        0.196      347.689       26.840      860.660
09/09/2014  14:40:00       29.909      -44.475       36.614       88.947       66.813       40.084     7911.528     4463.974     1606.696        0.910        0.699       53.597       26.244        0.240      348.050       27.464      860.636
09/09/2014  14:41:00      -19.747       -9.695       23.598       56.038       33.063       22.737     3140.301     1093.163      516.990        0.289        0.238       21.998       24.951        1.286      348.414       28.093      860.612
09/09/2014  14:42:00       69.107     -110.184      -11.699       36.657       51.286       31.248     1343.715     2630.241      976.465        1.100        0.248      130.062       24.281        0.035      347.788       27.010      860.606
09/09/2014  14:43:00      111.151     -149.438      -15.611       61.255       64.395       43.529     3752.203     4146.714     1894.732        2.236        0.490      186.243       33.729        0.033      347.813       27.051      860.602
09/09/2014  14:44:00       91.061     -184.633      -15.893      103.803      125.485       64.730    10775.009    15746.463     4189.974        3.667        1.536      205.868       64.321        0.098      347.499       26.510      860.603
09/09/2014  14:45:00      -38.381      -74.417        7.690       54.914       81.574       46.792     3015.531     6654.293     2189.509        0.946        0.593       83.732       17.656        0.044      347.806       27.041      860.578
09/09/2014  14:46:00       58.036      -84.607       20.962       80.932       70.926       70.970     6549.997     5030.454     5036.743        1.379        0.831      102.599       55.614        0.294      347.948       27.286      860.564
09/09/2014  14:47:00       38.018     -110.327       15.171       62.073      102.029       56.141     3853.083    10409.956     3151.831        1.563        0.871      116.693       55.703        0.228      347.964       27.313      860.555
09/09/2014  14:48:00       -7.440     -196.111       -2.607       85.427       79.949       49.984     7297.740     6391.872     2498.390        2.735        0.809      196.252       32.118        0.027      347.719       26.890      860.545
09/09/2014  14:49:00      -14.820     -142.581      -10.890      117.755      101.857       57.622    13866.268    10374.875     3320.292        2.411        1.378      143.350       49.640        0.120      347.797       27.024      860.535
09/09/2014  14:50:00       67.013     -186.777        3.619       92.533       82.880       63.483     8562.371     6869.081     4030.037        2.942        0.973      198.435       55.471        0.078      347.781       26.996      860.488
09/09/2014  14:51:00      -31.450      -39.919       16.846       92.997       56.571       54.447     8648.356     3200.236     2964.503        0.884        0.741       50.820       37.186        0.535      348.288       27.876      860.468
09/09/2014  14:52:00     -155.570     -152.540       -6.458      104.080       78.425       58.163    10832.669     6150.406     3382.894        3.394        1.018      217.877       55.370        0.065      347.915       27.227      860.485
09/09/2014  14:53:00     -130.072     -124.365       -9.581       86.317       94.491       43.229     7450.559     8928.514     1868.712        2.536        0.912      179.959       30.853        0.029      348.038       27.440      860.486
09/09/2014  14:54:00      -76.235     -204.356      -29.993       86.066       76.262       57.167     7407.381     5815.914     3268.021        3.248        0.825      218.112       28.781        0.017      347.855       27.124      860.468
09/09/2014  14:55:00     -176.703     -104.376      -11.086      112.699       74.389       52.255    12701.127     5533.720     2730.596        3.160        1.048      205.227       44.163        0.046      347.787       27.007      860.470
09/09/2014  14:56:00     -190.907     -104.881      -14.804       80.351       48.632       33.994     6456.267     2365.089     1155.586        2.882        0.499      217.820       37.185        0.029      347.566       26.625      860.461
09/09/2014  14:57:00     -102.460      -39.275       -6.066       68.393       58.788       33.742     4677.556     3456.041     1138.533        1.067        0.464      109.729       32.923        0.090      348.016       27.404      860.450
09/09/2014  14:58:00     -120.043       22.721       -7.835       78.705       61.237       36.099     6194.404     3749.984     1303.129        1.312        0.562      122.174       24.546        0.040      348.094       27.538      860.435
09/09/2014  14:59:00      -76.291      -43.369        8.579       73.139       51.170       32.359     5349.346     2618.325     1047.107        0.839        0.451       87.756       28.457        0.105      348.270       27.844      860.436
09/09/2014  15:00:00       -8.150      -74.882       -3.287       37.869       71.905       24.511     1434.059     5170.301      600.795        0.644        0.360       75.324       18.711        0.062      348.144       27.627      860.426
09/09/2014  15:01:00      -23.856      -66.959       22.140       37.835       84.084       35.783     1431.501     7070.165     1280.423        0.766        0.489       71.081       42.809        0.363      348.225       27.767      860.418
09/09/2014  15:02:00      -26.877      -35.468       -0.870       51.353       37.798       30.685     2637.091     1428.659      941.558        0.349        0.250       44.501       20.349        0.209      348.325       27.939      860.373
09/09/2014  15:03:00       41.989     -142.804      -32.210       81.885      105.874       63.421     6705.194    11209.393     4022.180        2.256        1.097      148.849       60.020        0.163      348.043       27.450      860.351
09/09/2014  15:04:00      145.479     -235.238      -11.306       74.264      103.277       57.849     5515.095    10666.088     3346.466        4.808        0.976      276.588       54.926        0.039      347.684       26.828      860.351
09/09/2014  15:05:00       53.415     -171.050        5.629       60.863      137.387       45.953     3704.319    18875.071     2111.692        2.841        1.235      179.196       59.397        0.110      347.515       26.536      860.358
09/09/2014  15:06:00     -152.695     -187.290      -15.617       86.482       82.134       33.953     7479.203     6746.019     1152.839        3.701        0.769      241.647       29.620        0.015      347.487       26.488      860.321
09/09/2014  15:07:00      -49.858       16.177       24.322       54.000       25.177       26.798     2916.042      633.894      718.132        0.380        0.213       52.417       30.212        0.332      347.936       27.267      860.280
09/09/2014  15:08:00       -9.466      -21.092       16.766       46.646       47.205       30.205     2175.845     2228.301      912.339        0.307        0.266       23.118       20.793        0.809      348.070       27.498      860.278
09/09/2014  15:09:00       60.921     -125.755       -4.402       47.906       85.659       33.486     2295.014     7337.531     1121.302        1.515        0.538      139.734       38.580        0.076      347.695       26.849      860.276
09/09/2014  15:10:00       29.729      -45.481       27.544       66.610       75.654       45.007     4436.859     5723.546     2025.633        0.795        0.609       54.335       46.243        0.724      348.098       27.545      860.263
09/09/2014  15:11:00       34.834     -110.222       18.614       72.612       83.595       54.618     5272.498     6988.121     2983.177        1.447        0.762      115.596       49.213        0.181      348.200       27.722      860.239
09/09/2014  15:12:00      188.132     -146.060       22.615      103.093      176.679       90.768    10628.123    31215.481     8238.845        5.365        2.504      238.175      104.504        0.193      347.914       27.224      860.219
09/09/2014  15:13:00      131.391      -25.499       66.803      144.379      155.886      101.708    20845.339    24300.569    10344.581        3.892        2.775      133.842      115.556        0.745      348.108       27.562      860.180
09/09/2014  15:14:00      147.753     -149.067        4.997      101.844      174.728      113.580    10372.119    30529.727    12900.341        4.893        2.690      209.885      117.727        0.315      348.184       27.693      860.145
09/09/2014  15:15:00      124.273      -54.352       71.999      128.167      170.553      114.927    16426.892    29088.462    13208.236        4.114        2.936      135.639      130.033        0.919      348.289       27.874      860.137
09/09/2014  15:16:00       84.301      -21.882       60.566       92.263      141.516       92.812     8512.464    20026.849     8614.108        2.420        1.858       87.095       94.515        1.178      348.285       27.868      860.112
09/09/2014  15:17:00      205.695     -183.051      -25.563      141.958      183.552       97.403    20151.995    33691.326     9487.321        6.989        3.167      275.351       98.954        0.129      347.974       27.329      860.101
09/09/2014  15:18:00      148.568     -272.608      -33.646       93.149      120.190       72.956     8676.722    14445.590     5322.590        6.298        1.422      310.464       72.264        0.054      347.711       26.875      860.148
09/09/2014  15:19:00       87.821     -143.790       16.251      107.824      135.861       78.886    11626.034    18458.106     6223.065        3.247        1.815      168.488       87.409        0.269      347.820       27.064      860.147
09/09/2014  15:20:00       62.449     -222.243       -3.230      112.838       98.985       60.900    12732.401     9798.092     3708.771        3.977        1.312      230.851       47.926        0.043      347.929       27.252      860.155
09/09/2014  15:21:00       69.842     -197.187       -3.209       98.207      105.089       58.125     9644.674    11043.617     3378.526        3.391        1.203      209.190       41.385        0.039      347.830       27.081      860.221
09/09/2014  15:22:00      -45.694      -47.620       -0.308       52.973       36.089       25.669     2806.087     1302.417      658.890        0.456        0.238       65.998       15.417        0.055      347.797       27.028      860.215
09/09/2014  15:23:00     -136.202      -41.295       -7.511       38.423       66.925       27.323     1476.318     4478.997      746.561        1.351        0.335      142.325       21.274        0.022      348.235       27.782      860.191
09/09/2014  15:24:00      -42.889      -31.559       20.415       61.929       47.611       30.490     3835.177     2266.767      929.639        0.514        0.352       53.249       27.516        0.267      348.496       28.235      860.198
09/09/2014  15:25:00      -63.267      -23.403        5.672       78.553       63.728       43.815     6170.559     4061.272     1919.794        0.837        0.608       67.456       45.261        0.450      348.198       27.719      860.197
09/09/2014  15:26:00     -110.193      -38.992       -8.247       88.475       56.951       46.832     7827.849     3243.378     2193.282        1.350        0.663      116.888       48.687        0.173      347.899       27.202      860.207
09/09/2014  15:27:00       47.182       61.710       44.848       43.438       43.859       40.664     1886.829     1923.576     1653.535        0.675        0.273       77.681       25.193        0.105      347.999       27.375      860.200
09/09/2014  15:28:00       10.262       34.723        4.407       59.572       41.704       27.974     3548.876     1739.238      782.530        0.370        0.304       36.208       26.465        0.534      348.048       27.461      860.198
09/09/2014  15:29:00      -72.633      141.697      -25.634       43.980       44.909       22.284     1934.200     2016.835      496.582        1.523        0.222      159.228       17.659        0.012      347.752       26.948      860.207
09/09/2014  15:30:00      -64.523      108.701      -23.346       48.899       70.592       29.920     2391.147     4983.185      895.235        1.240        0.413      126.409       27.072        0.046      348.007       27.390      860.229
09/09/2014  15:31:00      -87.738      242.304      -32.293       47.694       83.318       32.979     2274.740     6941.946     1087.619        3.888        0.515      257.700       36.772        0.020      347.710       26.874      860.241
09/09/2014  15:32:00      -49.612      262.283      -38.581       36.235       45.955       30.222     1312.972     2111.897      913.357        3.854        0.217      266.934       17.445        0.004      347.647       26.762      860.253
09/09/2014  15:33:00       27.161      123.424       -4.035      104.055       84.010       43.748    10827.415     7057.747     1913.871        1.789        0.990      126.377       47.842        0.143      347.733       26.915      860.260
09/09/2014  15:34:00      174.257       76.245        9.782       82.245       67.549       50.779     6764.282     4562.935     2578.496        2.509        0.695      190.207       30.978        0.027      347.672       26.809      860.213
09/09/2014  15:35:00      107.564      131.531        0.929       90.991       75.494       46.018     8279.286     5699.401     2117.673        2.248        0.805      169.913       46.356        0.074      347.847       27.111      860.179
09/09/2014  15:36:00       23.758      192.332      -11.141       82.735      124.633       57.584     6845.097    15533.344     3315.950        3.168        1.285      193.794       67.192        0.120      348.117       27.575      860.164
09/09/2014  15:37:00      -15.132      126.347       -5.851       75.190       93.598       45.882     5653.511     8760.504     2105.184        1.637        0.826      127.250       40.341        0.101      348.324       27.936      860.176
09/09/2014  15:38:00      -26.652      122.913        0.255       40.650       73.971       39.866     1652.451     5471.662     1589.299        1.226        0.436      125.770       38.634        0.094      348.313       27.916      860.151
09/09/2014  15:39:00        4.138      220.315      -13.501       65.469      104.991       48.370     4286.170    11023.156     2339.641        3.319        0.882      220.354       48.792        0.049      348.267       27.836      860.131
09/09/2014  15:40:00     -177.895      155.566      -24.377      120.181      145.084       58.832    14443.507    21049.444     3461.165        4.769        1.948      236.320       64.906        0.075      348.131       27.599      860.121
09/09/2014  15:41:00        9.406      279.939      -21.568       76.121      116.996       68.028     5794.343    13688.045     4627.874        5.151        1.206      280.096       72.419        0.067      347.954       27.295      860.132
09/09/2014  15:42:00       -4.333      256.243      -31.271       49.442       60.672       23.348     2444.480     3681.134      545.120        3.666        0.334      256.280       26.629        0.011      347.896       27.192      860.122
09/09/2014  15:43:00        6.882      111.870       19.737       36.380      119.779       49.486     1323.525    14347.126     2448.868        1.553        0.906      112.081       61.348        0.300      348.339       27.962      860.089
09/09/2014  15:44:00       10.050      224.388      -32.238       44.952       77.694       42.249     2020.694     6036.398     1784.983        3.066        0.492      224.613       41.336        0.034      347.991       27.356      860.081
09/09/2014  15:45:00       18.540      135.178      -13.069       68.649      101.915       56.553     4712.707    10386.660     3198.257        1.854        0.915      136.443       55.316        0.164      348.291       27.880      860.013
09/09/2014  15:46:00     -221.775       49.804      -17.347      214.658      241.905      108.370    46078.142    58517.989    11744.133        8.413        5.817      227.298      110.509        0.236      348.332       27.946      860.006
09/09/2014  15:47:00     -186.519       23.199      -31.192      139.355      185.962       91.143    19419.817    34581.902     8306.975        4.929        3.115      187.956       73.269        0.152      348.410       28.082      859.937
09/09/2014  15:48:00     -234.873      102.946      -16.910      224.182      199.183       89.992    50257.701    39673.675     8098.635        8.202        4.902      256.443       96.902        0.143      348.349       27.978      859.947
09/09/2014  15:49:00     -447.112      -10.892      -43.889      168.803      129.508       67.516    28494.401    16772.255     4558.362       12.588        2.491      447.245       54.157        0.015      348.254       27.813      859.984
09/09/2014  15:50:00     -258.772      -19.267      -22.849      142.746      134.367       65.947    20376.345    18054.625     4348.964        5.531        2.139      259.489       51.295        0.039      348.292       27.880      860.020
09/09/2014  15:51:00     -310.270       24.985      -36.578      103.288       84.825       48.156    10668.351     7195.216     2318.994        5.920        1.009      311.274       47.838        0.024      347.990       27.354      860.038
09/09/2014  15:52:00     -298.735       82.822      -47.259      122.604      119.210       57.462    15031.737    14211.004     3301.829        6.543        1.627      310.004       62.638        0.041      348.059       27.474      860.034
09/09/2014  15:53:00     -303.106      -55.856      -27.693      103.872      121.525       61.599    10789.364    14768.305     3794.472        6.255        1.468      308.209       43.200        0.020      348.088       27.523      860.038
09/09/2014  15:54:00     -196.723       37.942      -42.275      144.911      108.942       80.361    20999.331    11868.467     6457.849        4.062        1.966      200.349       74.352        0.138      348.163       27.657      860.033
09/09/2014  15:55:00     -222.288      -19.485      -12.346      144.790      128.095       66.688    20964.148    16408.451     4447.236        4.587        2.091      223.140       62.526        0.079      348.197       27.716      860.007
09/09/2014  15:56:00     -185.951       67.559       -7.374      117.220      113.028       50.816    13740.641    12775.285     2582.246        3.414        1.455      197.843       53.762        0.074      348.374       28.021      860.003
09/09/2014  15:57:00     -164.256       17.373      -32.252      126.351       75.354       46.720    15964.530     5678.230     2182.779        2.607        1.191      165.172       53.846        0.106      348.065       27.486      859.980
09/09/2014  15:58:00     -145.860      174.543      -18.274      127.027      102.660       62.182    16135.814    10539.106     3866.552        4.130        1.527      227.465       70.249        0.095      348.280       27.856      859.967
09/09/2014  15:59:00     -369.486      -62.833      -38.638      174.128      204.818       89.940    30320.652    41950.255     8089.124       11.115        4.018      374.790       69.249        0.034      348.160       27.649      859.940
09/09/2014  16:00:00     -324.668      102.363      -52.247      172.806      179.223       85.468    29861.794    32120.829     7304.851        9.394        3.464      340.423       88.097        0.067      348.003       27.380      859.934
09/09/2014  16:01:00     -288.246        8.761      -36.649      199.999      192.717       77.832    39999.671    37140.020     6057.807        8.384        4.160      288.379      100.770        0.122      348.111       27.568      859.941
09/09/2014  16:02:00      -10.562      -25.220       21.461      114.283       97.752       66.979    13060.664     9555.542     4486.210        1.415        1.355       27.343       48.677        3.169      348.249       27.807      859.940
09/09/2014  16:03:00      -59.667       45.127       26.168       91.739       64.128       57.709     8416.123     4112.457     3330.289        1.107        0.793       74.810       58.849        0.619      348.446       28.147      859.953
09/09/2014  16:04:00     -189.405      -29.314      -11.322      165.175      162.427       76.304    27282.833    26382.487     5822.260        4.816        2.974      191.660       81.449        0.181      348.305       27.901      859.971
09/09/2014  16:05:00     -257.976      110.958      -48.279      128.907      129.984       77.376    16616.945    16895.722     5987.103        6.034        1.975      280.826       70.482        0.063      348.173       27.674      859.997
09/09/2014  16:06:00     -230.970       94.041      -39.474      134.025      142.764       66.643    17962.771    20381.560     4441.345        5.326        2.139      249.381       57.693        0.054      348.077       27.507      859.994
09/09/2014  16:07:00     -338.414      302.609      -62.870      226.942      228.563       97.320    51502.743    52241.182     9471.117       16.161        5.661      453.978      104.247        0.053      347.967       27.317      859.991
09/09/2014  16:08:00     -236.684      207.729      -26.660      125.596      132.545       73.639    15774.432    17568.102     5422.676        6.932        1.938      314.914       69.163        0.048      348.112       27.568      859.984
09/09/2014  16:09:00     -289.507      189.056      -48.307      122.103      161.393       63.093    14909.256    26047.854     3980.779        8.341        2.247      345.770       67.328        0.038      348.120       27.581      860.000
09/09/2014  16:10:00     -336.180      162.844      -46.094      144.438      102.245       74.387    20862.308    10454.019     5533.367        8.925        1.842      373.544       50.245        0.018      348.021       27.409      860.011
09/09/2014  16:11:00     -393.013       20.978      -49.032      186.769      190.830       86.808    34882.779    36416.000     7535.551       11.806        3.942      393.572       72.908        0.034      347.994       27.363      859.988
09/09/2014  16:12:00     -449.298      -44.223      -24.272      192.291      169.138       98.944    36975.738    28607.763     9789.897       13.988        3.769      451.470       88.325        0.038      348.046       27.453      859.938
09/09/2014  16:13:00     -262.873      169.467      -70.614      155.323      212.885       84.328    24125.215    45319.815     7111.218        8.967        3.828      312.764       90.857        0.084      348.111       27.565      859.971
09/09/2014  16:14:00     -260.488      222.149      -35.356      159.042      208.838       81.463    25294.250    43613.344     6636.177        9.699        3.777      342.351       93.542        0.075      347.944       27.277      859.977
09/09/2014  16:15:00     -215.564      128.833      -18.694      121.578      144.572       73.574    14781.102    20901.016     5413.165        5.225        2.055      251.129       54.674        0.047      348.039       27.441      859.997
09/09/2014  16:16:00     -241.850      154.942      -33.176      138.544      171.605       95.916    19194.455    29448.219     9199.970        7.071        2.892      287.226       82.502        0.083      347.942       27.273      860.015
09/09/2014  16:17:00     -245.270      -14.776      -32.277      126.105      150.867       64.605    15902.474    22760.818     4173.805        5.212        2.142      245.715       36.199        0.022      348.105       27.555      859.954
09/09/2014  16:18:00     -231.146      117.866      -38.114      153.803      152.295       78.778    23655.225    23193.705     6205.995        6.091        2.653      259.463       87.553        0.114      348.137       27.612      859.991
09/09/2014  16:19:00     -240.308       68.160      -42.545      134.031      136.087       64.899    17964.248    18519.626     4211.846        5.244        2.035      249.788       65.782        0.069      348.180       27.685      859.990
09/09/2014  16:20:00     -136.562      152.553        1.334      121.775      118.021       69.415    14829.093    13928.994     4818.420        3.774        1.679      204.747       74.287        0.132      348.240       27.790      859.987
09/09/2014  16:21:00     -258.533       62.392      -32.538      143.880      168.878       84.740    20701.477    28519.863     7180.853        6.409        2.820      265.955       76.921        0.084      348.282       27.861      860.009
09/09/2014  16:22:00     -312.438      121.762      -66.846      130.341      131.843       80.338    16988.755    17382.604     6454.204        7.886        2.041      335.326       47.860        0.020      348.102       27.550      859.997
09/09/2014  16:23:00     -226.284       80.809      -22.002      133.858      113.896       71.165    17917.843    12972.198     5064.495        4.708        1.798      240.280       76.304        0.101      348.132       27.602      860.024
09/09/2014  16:24:00     -213.187       71.298      -37.312       85.630      121.826       64.937     7332.419    14841.505     4216.779        3.915        1.320      224.793       51.129        0.052      348.130       27.600      860.021
09/09/2014  16:25:00     -416.451      -23.354      -33.479      165.101      185.217       81.141    27258.403    34305.411     6583.832       12.161        3.407      417.105       83.361        0.040      347.970       27.322      859.973
09/09/2014  16:26:00     -227.489       66.058      -38.623      177.822      147.146       74.185    31620.517    21651.821     5503.469        5.818        2.939      236.886       65.940        0.077      348.055       27.470      859.960
09/09/2014  16:27:00      -67.363      -15.405        5.433       72.345       86.303       62.212     5233.860     7448.164     3870.366        1.068        0.828       69.102       40.537        0.344      348.199       27.720      859.975
09/09/2014  16:28:00     -283.548       16.612      -37.257      130.669      129.398       65.384    17074.449    16743.947     4275.128        6.007        1.905      284.034       67.817        0.057      348.094       27.535      859.983
09/09/2014  16:29:00     -171.781      271.250      -24.988      138.306      176.948       91.991    19128.679    31310.682     8462.322        8.130        2.945      321.069       99.878        0.097      348.001       27.375      859.986
09/09/2014  16:30:00     -207.067      145.545      -20.027      112.977      146.738       82.881    12763.794    21532.169     6869.294        5.281        2.058      253.101       61.725        0.059      348.107       27.560      859.981
09/09/2014  16:31:00     -221.227      121.326      -26.849      158.613      165.521       87.315    25158.152    27397.242     7623.834        6.227        3.009      252.312       81.427        0.104      348.002       27.376      859.999
09/09/2014  16:32:00     -258.970      177.094      -54.440      141.422      117.688       61.079    20000.309    13850.484     3730.617        6.948        1.879      313.732       69.857        0.050      347.890       27.183      860.012
09/09/2014  16:33:00     -191.273       19.711      -10.769      155.609      158.344       75.229    24214.299    25072.735     5659.469        4.601        2.747      192.285       64.993        0.114      348.020       27.409      859.965
09/09/2014  16:34:00      -90.487      167.485       -3.064      108.421       96.199       75.036    11755.017     9254.268     5630.370        3.144        1.332      190.366       67.266        0.125      348.029       27.424      859.994
09/09/2014  16:35:00     -188.637      245.920      -27.474      173.737      121.197       87.814    30184.689    14688.662     7711.342        7.469        2.629      309.936       90.077        0.084      347.898       27.197      859.994
09/09/2014  16:36:00     -148.239      190.224      -26.330      113.166      123.687       68.089    12806.517    15298.391     4636.094        4.579        1.637      241.164       70.693        0.086      347.991       27.358      859.966
09/09/2014  16:37:00     -254.405      -55.946      -37.047      122.249      109.883       69.566    14944.873    12074.281     4839.409        5.054        1.593      260.484       36.217        0.019      348.217       27.749      859.977
09/09/2014  16:38:00     -279.092     -107.248      -23.468      119.353       91.587       70.765    14245.028     8388.213     5007.712        5.879        1.382      298.989       40.719        0.019      348.125       27.589      859.987
09/09/2014  16:39:00     -346.434       46.222      -43.632      127.976      141.118       74.404    16377.782    19914.368     5536.013        8.294        2.091      349.504       80.331        0.053      348.012       27.394      859.992
09/09/2014  16:40:00     -176.519       26.371      -32.232      152.933       84.297       65.371    23388.573     7106.047     4273.376        3.382        1.738      178.478       41.714        0.055      348.113       27.570      859.995
09/09/2014  16:41:00     -252.257      -17.039      -20.631      120.398      126.552       65.070    14495.701    16015.432     4234.143        4.954        1.737      252.832       52.401        0.043      348.067       27.490      859.996
09/09/2014  16:42:00     -109.554       36.392       -1.230      119.647       83.378       59.131    14315.461     6951.921     3496.515        1.904        1.238      115.440       61.153        0.281      348.033       27.432      860.000
09/09/2014  16:43:00     -153.759       58.497      -14.134      187.280      116.812       70.502    35073.657    13644.990     4970.470        4.047        2.684      164.510       87.882        0.285      348.041       27.446      860.016
09/09/2014  16:44:00     -208.413      110.079      -28.520      113.608      136.621       71.496    12906.698    18665.225     5111.651        4.652        1.834      235.698       60.602        0.066      348.089       27.528      860.014
09/09/2014  16:45:00     -222.137      112.405      -13.927      147.538      160.181       90.536    21767.405    25657.884     8196.759        5.889        2.781      248.957       90.465        0.132      348.035       27.435      859.990
09/09/2014  16:46:00     -184.848       28.332        5.174      164.235      191.158       97.172    26973.138    36541.252     9442.422        5.397        3.648      187.007       86.871        0.216      348.018       27.405      859.980
09/09/2014  16:47:00     -204.608      234.655      -26.359      103.855      151.695       75.306    10785.918    23011.230     5671.039        6.854        1.973      311.332       74.240        0.057      347.961       27.308      860.001
09/09/2014  16:48:00     -271.894      168.650      -66.419      166.710      180.721       87.565    27792.340    32660.132     7667.618        8.744        3.406      319.952       91.329        0.081      347.871       27.152      859.997
09/09/2014  16:49:00     -111.613       70.436       -1.304      144.147      143.568       86.379    20778.341    20611.774     7461.364        3.313        2.443      131.980       71.567        0.294      348.063       27.483      859.996
09/09/2014  16:50:00     -241.673      157.107      -26.975      162.825      243.335       92.973    26511.960    59211.848     8643.981        8.908        4.718      288.250       89.960        0.097      347.958       27.302      860.006
09/09/2014  16:51:00     -250.404      423.637      -66.497      126.156      174.512       72.287    15915.214    30454.525     5225.464       14.909        2.580      492.108       72.713        0.022      347.839       27.095      860.022
09/09/2014  16:52:00     -165.820       15.465        1.792      126.767      144.030       71.023    16069.827    20744.651     5044.261        3.479        2.093      166.540       62.167        0.139      348.056       27.471      860.018
09/09/2014  16:53:00     -228.039      107.399      -20.403      176.535      156.359       88.055    31164.741    24448.291     7753.613        6.365        3.168      252.065       95.892        0.145      347.856       27.124      860.015
09/09/2014  16:54:00     -183.138       65.625      -16.602      107.012      103.363       72.445    11451.517    10683.871     5248.272        3.275        1.369      194.541       67.510        0.120      347.921       27.238      859.996
09/09/2014  16:55:00     -212.030      140.307      -13.172      154.961      102.317       82.965    24012.962    10468.865     6883.228        5.308        2.068      254.250       78.129        0.094      347.972       27.324      859.994
09/09/2014  16:56:00     -212.548       41.070      -25.421       84.123      142.185       69.312     7076.650    20216.691     4804.150        3.980        1.605      216.480       52.983        0.060      348.046       27.453      859.998
09/09/2014  16:57:00     -147.265       69.562      -16.237       81.819      137.400       57.260     6694.294    18878.793     3278.656        2.782        1.443      162.868       54.516        0.112      348.055       27.469      860.033
09/09/2014  16:58:00     -228.879       97.461      -35.897      137.776      142.835       62.680    18982.116    20401.882     3928.800        5.324        2.166      248.766       66.282        0.071      347.968       27.319      860.026
09/09/2014  16:59:00     -196.462      156.214      -36.066      126.111      173.093       68.714    15904.011    29961.285     4721.632        5.744        2.529      250.998       65.780        0.069      347.918       27.231      860.030
09/09/2014  17:00:00     -242.206       96.584      -25.257      157.428      133.857       79.757    24783.667    17917.812     6361.124        5.884        2.453      260.753       82.587        0.100      347.983       27.344      860.030
09/09/2014  17:01:00     -353.864      115.861      -58.493      158.247      122.362       69.742    25042.191    14972.554     4863.922        9.346        2.244      372.349       65.524        0.031      347.933       27.257      860.027
09/09/2014  17:02:00     -180.411       95.809      -12.444      114.820       82.210       62.821    13183.535     6758.419     3946.505        3.288        1.194      204.273       53.283        0.068      347.975       27.331      860.023
09/09/2014  17:03:00     -120.105       74.903      -10.304      135.930      127.646       70.887    18476.996    16293.539     5025.000        2.996        1.990      141.548       71.663        0.256      348.046       27.455      860.016
09/09/2014  17:04:00     -139.637      111.509      -17.224       89.522      158.005       67.832     8014.115    24965.696     4601.122        3.490        1.879      178.698       61.055        0.117      348.063       27.482      860.019
09/09/2014  17:05:00     -241.572       48.651      -28.124      175.276      120.874       72.684    30721.691    14610.461     5282.909        5.606        2.531      246.422       70.112        0.081      348.018       27.404      860.013
09/09/2014  17:06:00     -244.741      194.001      -51.079       90.641      102.896       59.029     8215.847    10587.525     3484.453        6.121        1.114      312.305       58.186        0.035      347.980       27.339      860.012
09/09/2014  17:07:00     -195.113      235.320      -55.201      126.428      163.603       74.745    15984.141    26765.843     5586.886        7.241        2.417      305.687       81.812        0.072      347.913       27.223      860.016
09/09/2014  17:08:00     -235.475       43.240      -16.071      180.597      121.946       72.957    32615.438    14870.898     5322.754        5.518        2.640      239.412       70.260        0.086      348.020       27.409      859.996
09/09/2014  17:09:00     -276.846      198.912      -45.310      146.961      123.741       70.639    21597.410    15311.871     4989.812        8.007        2.095      340.896       66.569        0.038      347.930       27.253      859.994
09/09/2014  17:10:00     -267.942      145.818      -24.483      157.508      126.048       83.764    24808.804    15888.076     7016.468        7.068        2.386      305.050       75.862        0.062      347.933       27.258      860.018
09/09/2014  17:11:00     -174.973       45.067      -10.790      169.263      156.136       85.965    28650.085    24378.491     7389.934        4.658        3.021      180.683       84.381        0.218      347.924       27.243      860.011
09/09/2014  17:12:00     -191.838       32.136      -17.041      111.583      102.722       59.451    12450.762    10551.782     3534.385        3.233        1.327      194.511       46.849        0.058      347.958       27.304      859.978
09/09/2014  17:13:00     -420.353      -77.396      -40.029      171.894      126.268       78.536    29547.547    15943.532     6167.975       11.797        2.583      427.419       80.724        0.036      347.866       27.141      859.977
09/09/2014  17:14:00     -299.303       18.352      -29.779      139.765      140.224       59.554    19534.299    19662.876     3546.695        6.677        2.137      299.866       62.768        0.044      347.933       27.259      859.996
09/09/2014  17:15:00     -197.970      156.246      -19.757      125.345      138.673       83.032    15711.484    19230.223     6894.283        5.291        2.092      252.200       72.636        0.083      348.010       27.391      860.019
09/09/2014  17:16:00     -154.289      307.744      -28.113      148.399      150.146       78.768    22022.119    22543.688     6204.353        8.503        2.539      344.255       73.734        0.046      347.912       27.220      860.030
09/09/2014  17:17:00     -299.117      311.504      -57.934      148.858      158.091       90.565    22158.815    24992.686     8202.024       12.260        2.768      431.863       83.055        0.037      347.789       27.009      860.055
09/09/2014  17:18:00     -183.988      244.190      -21.267      119.567      175.105       79.436    14296.341    30661.689     6310.134        7.259        2.563      305.746       74.676        0.060      347.842       27.101      860.051
09/09/2014  17:19:00     -148.500      284.698      -26.980      143.292      163.600       75.412    20532.626    26764.831     5686.963        7.840        2.649      321.100       87.601        0.074      347.779       26.992      860.049
09/09/2014  17:20:00     -192.864      290.841      -35.694       97.231      169.065       70.989     9453.926    28583.123     5039.384        8.306        2.154      348.977       76.091        0.048      347.852       27.118      860.057
09/09/2014  17:21:00      -49.433       92.073      -12.067       62.731       71.407       37.963     3935.191     5098.971     1441.203        1.077        0.524      104.504       29.829        0.081      347.899       27.201      860.065
09/09/2014  17:22:00      -70.318      144.110       -0.701       59.188      101.557       47.443     3503.225    10313.911     2250.873        2.089        0.803      160.351       28.572        0.032      347.959       27.303      860.056
09/09/2014  17:23:00     -149.008      147.516      -26.636       93.213      106.487       50.512     8688.623    11339.428     2551.455        3.362        1.129      209.677       36.080        0.030      347.844       27.105      860.058
09/09/2014  17:24:00     -218.372       -0.523      -24.884      144.077      108.637       69.485    20758.197    11802.033     4828.145        4.284        1.869      218.372       81.580        0.140      347.947       27.282      860.062
09/09/2014  17:25:00     -247.165      144.830      -41.264      164.764      190.407       80.060    27147.229    36254.894     6409.572        7.678        3.491      286.472       78.040        0.074      347.805       27.038      860.102
09/09/2014  17:26:00     -254.781      107.469      -38.706      141.246      118.384       82.040    19950.340    14014.828     6730.529        5.932        2.035      276.519       71.762        0.067      347.794       27.019      860.093
09/09/2014  17:27:00     -214.111      143.462      -14.679      105.069      158.131       73.749    11039.508    25005.526     5438.983        5.406        2.074      257.731       58.018        0.051      347.844       27.102      860.128
09/09/2014  17:28:00     -139.620      175.088      -27.084      128.735      136.265       82.676    16572.818    18568.186     6835.270        4.642        2.099      223.941       71.595        0.102      347.766       26.970      860.143
09/09/2014  17:29:00     -167.526      312.563      -34.920       81.919      127.538       70.516     6710.644    16266.044     4972.488        7.746        1.397      354.628       67.404        0.036      347.723       26.896      860.127
09/09/2014  17:30:00     -154.043      204.941      -26.347       90.294      121.770       60.873     8152.959    14827.856     3705.498        4.655        1.334      256.379       72.109        0.079      347.805       27.038      860.130
09/09/2014  17:31:00     -244.913       85.163      -42.790       78.122      128.448       54.711     6103.017    16498.937     2993.288        4.733        1.280      259.298       52.409        0.041      347.872       27.152      860.136
09/09/2014  17:32:00     -217.817      -32.165      -18.147      102.057      109.369       61.520    10415.564    11961.547     3784.656        3.748        1.308      220.179       50.833        0.053      347.974       27.329      860.142
09/09/2014  17:33:00     -204.725        6.506       -6.493      125.280      140.262       71.779    15694.985    19673.362     5152.253        4.125        2.026      204.829       53.077        0.067      347.831       27.083      860.143
09/09/2014  17:34:00     -103.369       85.659        5.885      104.764       97.711       69.220    10975.456     9547.505     4791.394        2.168        1.266      134.248       58.051        0.187      347.899       27.200      860.165
09/09/2014  17:35:00     -109.222      101.697      -14.611      107.109       85.841       61.178    11472.405     7368.730     3742.718        2.253        1.129      149.237       68.065        0.208      347.843       27.103      860.163
09/09/2014  17:36:00     -225.970       13.791      -35.052      167.699      148.629       70.809    28122.926    22090.503     5013.865        5.384        2.761      226.390       65.005        0.082      347.829       27.079      860.165
09/09/2014  17:37:00     -354.922       79.485      -51.280      158.973      128.995       90.615    25272.261    16639.733     8211.019        9.251        2.506      363.713       80.996        0.050      347.717       26.885      860.155
09/09/2014  17:38:00     -195.072       87.430      -34.929      170.077       93.024       74.324    28926.094     8653.529     5524.073        4.500        2.155      213.769       90.894        0.181      347.732       26.912      860.166
09/09/2014  17:39:00     -132.676      112.921      -22.150       97.887       89.208       57.104     9581.886     7958.109     3260.834        2.582        1.040      174.224       51.247        0.087      347.757       26.955      860.147
09/09/2014  17:40:00     -132.705      228.395      -23.336       88.108      118.894       64.695     7763.106    14135.761     4185.472        4.820        1.304      264.149       47.373        0.032      347.751       26.944      860.145
09/09/2014  17:41:00     -249.608      346.563      -72.130      119.079      114.534       62.463    14179.924    13118.113     3901.673       10.940        1.560      427.095       64.434        0.023      347.682       26.825      860.161
09/09/2014  17:42:00     -188.171      271.746      -42.850       91.786      115.946       64.839     8424.688    13443.373     4204.115        6.858        1.304      330.536       63.395        0.037      347.695       26.847      860.160
09/09/2014  17:43:00     -159.025      209.252      -30.802      105.537       87.747       70.531    11138.160     7699.605     4974.561        4.691        1.191      262.822       61.312        0.054      347.710       26.873      860.163
09/09/2014  17:44:00     -154.728      222.265      -27.969      100.798      122.840       54.545    10160.177    15089.573     2975.143        5.117        1.411      270.818       38.320        0.020      347.709       26.871      860.130
09/09/2014  17:45:00     -166.555       16.360      -20.703       89.759      110.136       49.042     8056.693    12129.951     2405.083        2.551        1.130      167.357       40.260        0.058      347.817       27.059      860.126
09/09/2014  17:46:00     -133.469       67.248      -30.063       97.643       95.172       44.572     9534.193     9057.772     1986.699        2.191        1.029      149.453       38.572        0.067      347.806       27.038      860.115
09/09/2014  17:47:00     -118.253       96.106      -12.008      116.573       93.344       57.880    13589.160     8713.129     3350.146        2.450        1.283      152.381       62.727        0.169      347.808       27.044      860.131
09/09/2014  17:48:00     -174.999      256.671      -33.417      141.493      149.936       71.640    20020.179    22480.906     5132.334        7.262        2.382      310.652       84.998        0.075      347.678       26.819      860.135
09/09/2014  17:49:00     -178.198       79.604      -30.812      102.375      181.287       72.609    10480.680    32864.855     5272.114        4.382        2.431      195.170       74.229        0.145      347.735       26.916      860.122
09/09/2014  17:50:00     -214.260      131.384      -34.136      164.174      149.382       71.289    26953.078    22314.885     5082.094        5.933        2.718      251.334       90.352        0.129      347.696       26.849      860.130
09/09/2014  17:51:00     -139.133       97.956      -12.498      114.656      115.591       65.509    13146.002    13361.369     4291.463        2.995        1.540      170.157       59.198        0.121      347.732       26.913      860.130
09/09/2014  17:52:00     -226.758      124.550      -36.403      161.970      144.432       74.553    26234.434    20860.551     5558.182        6.045        2.633      258.712       93.464        0.131      347.659       26.787      860.150
09/09/2014  17:53:00     -230.358       89.306      -34.627      166.878       97.756       61.516    27848.389     9556.198     3784.203        5.171        2.059      247.064       74.325        0.091      347.633       26.742      860.143
09/09/2014  17:54:00     -127.907       66.310      -26.030      103.810      157.001       87.692    10776.440    24649.322     7689.897        3.227        2.156      144.074       69.511        0.233      347.620       26.718      860.137
09/09/2014  17:55:00     -253.703       33.810      -25.532      102.614      110.504       71.708    10529.730    12211.092     5141.968        4.702        1.394      255.946       60.709        0.056      347.600       26.682      860.138
09/09/2014  17:56:00     -230.489      147.316      -40.609      117.508      147.374       78.580    13808.067    21719.163     6174.824        5.908        2.085      273.545       68.117        0.062      347.537       26.573      860.143
09/09/2014  17:57:00     -208.686       33.855      -18.730      147.553      130.103       70.299    21771.811    16926.789     4941.893        4.434        2.182      211.414       76.631        0.131      347.561       26.617      860.141
09/09/2014  17:58:00     -216.418       73.662      -13.192      129.631      156.975       61.829    16804.263    24641.119     3822.820        4.885        2.263      228.611       57.483        0.063      347.559       26.614      860.169
09/09/2014  17:59:00     -125.899       81.026       -2.831      107.337      110.087       67.600    11521.128    12119.064     4569.819        2.531        1.411      149.719       67.181        0.201      347.603       26.691      860.159
09/09/2014  18:00:00     -173.034      134.243      -32.442      110.315       94.154       57.951    12169.431     8864.932     3358.349        3.670        1.220      219.002       56.403        0.066      347.610       26.702      860.171
09/09/2014  18:01:00     -205.547       25.680        2.718      163.931      123.266       80.988    26873.536    15194.591     6559.032        4.576        2.431      207.145       72.365        0.122      347.578       26.646      860.169
09/09/2014  18:02:00     -169.201        4.645      -25.148       84.997       71.427       44.114     7224.518     5101.774     1946.045        2.178        0.714      169.265       22.218        0.017      347.581       26.653      860.170
09/09/2014  18:03:00     -112.670      109.777       -7.953       74.034      104.535       50.403     5481.088    10927.623     2540.499        2.188        0.947      157.307       37.898        0.058      347.578       26.647      860.178
09/09/2014  18:04:00     -173.455       96.017      -25.125      124.671       91.442       53.003    15542.893     8361.709     2809.269        3.332        1.336      198.258       55.577        0.079      347.599       26.684      860.192
09/09/2014  18:05:00     -245.637        2.121      -55.911      156.249      123.447       71.248    24413.812    15239.282     5076.262        5.409        2.236      245.647       78.157        0.101      347.531       26.564      860.175
09/09/2014  18:06:00     -138.180       33.464      -19.007      143.449       98.765       56.084    20577.652     9754.447     3145.412        2.702        1.674      142.174       56.378        0.157      347.536       26.573      860.174
09/09/2014  18:07:00     -212.516      110.924      -20.649      132.090       76.409       58.721    17447.821     5838.283     3448.208        4.231        1.337      239.723       54.202        0.051      347.488       26.490      860.177
09/09/2014  18:08:00     -147.575      162.467      -27.553      111.252       98.307       53.665    12377.076     9664.364     2879.958        3.692        1.246      219.486       63.594        0.084      347.499       26.510      860.171
09/09/2014  18:09:00     -118.436       82.097      -33.171       78.386       94.573       42.376     6144.362     8944.011     1795.712        1.937        0.844      144.108       44.993        0.097      347.529       26.563      860.169
09/09/2014  18:10:00     -193.320        4.436       -2.654      128.572      129.202       58.588    16530.805    16693.260     3432.561        3.702        1.833      193.371       53.539        0.077      347.527       26.558      860.154
09/09/2014  18:11:00      -73.767      -18.469        1.571      114.545       82.589       54.054    13120.626     6821.007     2921.878        1.432        1.143       76.044       46.636        0.376      347.528       26.562      860.170
09/09/2014  18:12:00      -72.155       92.828       -6.580       64.316       84.642       43.381     4136.491     7164.278     1881.884        1.352        0.659      117.573       37.839        0.104      347.485       26.488      860.178
09/09/2014  18:13:00     -120.947       82.864      -20.358       92.857       75.885       44.566     8622.474     5758.545     1986.146        1.914        0.818      146.611       49.835        0.116      347.506       26.522      860.191
09/09/2014  18:14:00     -187.048       26.121      -28.521       73.537       63.630       40.551     5407.744     4048.771     1644.404        2.379        0.555      188.864       30.896        0.027      347.494       26.502      860.197
09/09/2014  18:15:00     -129.652       87.935      -15.454       65.229      130.129       48.295     4254.851    16933.531     2332.403        2.415        1.176      156.659       48.769        0.097      347.479       26.476      860.208
09/09/2014  18:16:00     -171.316       65.968      -48.769       73.087       73.038       47.429     5341.691     5334.550     2249.538        2.450        0.646      183.578       39.314        0.046      347.468       26.455      860.210
09/09/2014  18:17:00     -190.076       96.476      -32.871      125.495       72.088       55.002    15748.924     5196.614     3025.240        3.524        1.199      213.158       41.927        0.039      347.454       26.433      860.233
09/09/2014  18:18:00     -181.208       79.794      -21.261       91.594       82.883       50.174     8389.523     6869.541     2517.390        2.871        0.889      197.999       49.714        0.063      347.425       26.380      860.252
09/09/2014  18:19:00     -184.295       39.911      -10.147      112.356      136.141       52.605    12623.924    18534.409     2767.318        3.479        1.696      188.567       47.138        0.062      347.395       26.331      860.250
09/09/2014  18:20:00     -220.007      -60.772      -25.817      132.360       90.837       56.741    17519.300     8251.360     3219.579        4.087        1.450      228.247       54.180        0.056      347.342       26.240      860.249
09/09/2014  18:21:00     -270.350      -74.267      -33.064      111.799       92.558       57.882    12499.108     8566.896     3350.291        5.205        1.221      280.365       37.265        0.018      347.313       26.186      860.247
09/09/2014  18:22:00     -200.125      -58.605      -14.430      107.464       86.317       48.997    11548.417     7450.630     2400.670        3.254        1.070      208.530       39.396        0.036      347.274       26.120      860.264
09/09/2014  18:23:00     -233.590      -45.534      -23.084      127.565      100.146       52.132    16272.828    10029.143     2717.735        4.309        1.451      237.986       43.150        0.033      347.310       26.185      860.254
09/09/2014  18:24:00     -226.749      -62.230      -28.410       47.410       47.378       29.696     2247.727     2244.700      881.869        3.073        0.269      235.133       17.958        0.006      347.244       26.071      860.276
09/09/2014  18:25:00     -117.451      -36.046       -4.101      103.611       86.547       41.497    10735.313     7490.411     1722.042        1.753        0.997      122.858       33.867        0.076      347.262       26.102      860.275
09/09/2014  18:26:00     -153.249      -36.368      -14.288       95.717       81.598       51.003     9161.791     6658.308     2601.257        2.171        0.921      157.505       51.497        0.107      347.253       26.085      860.271
09/09/2014  18:27:00     -121.602       28.603      -13.134       66.162      102.219       56.839     4377.452    10448.643     3230.632        1.691        0.903      124.921       43.422        0.121      347.338       26.235      860.271
09/09/2014  18:28:00     -155.991       28.528      -13.188       63.050       59.114       43.550     3975.335     3494.447     1896.630        1.734        0.468      158.578       26.181        0.027      347.293       26.156      860.264
09/09/2014  18:29:00      -70.118        3.136      -14.737       80.283       69.696       45.084     6445.289     4857.504     2032.553        0.924        0.667       70.188       32.794        0.218      347.297       26.163      860.258
09/09/2014  18:30:00     -228.414       54.059      -22.966      124.318       94.657       58.592    15455.032     8959.935     3433.050        4.173        1.392      234.724       74.699        0.101      347.243       26.068      860.272
09/09/2014  18:31:00     -181.224      -42.126      -31.793       71.499       74.118       42.533     5112.076     5493.434     1809.029        2.402        0.621      186.056       35.671        0.037      347.237       26.058      860.273
09/09/2014  18:32:00     -180.568      -72.037      -14.213      103.406       91.139       50.225    10692.888     8306.298     2522.523        2.976        1.076      194.407       43.770        0.051      347.184       25.966      860.276
09/09/2014  18:33:00     -225.092      -54.066      -12.141       93.312       94.640       50.233     8707.143     8956.757     2523.364        3.696        1.009      231.494       45.512        0.039      347.172       25.947      860.282
09/09/2014  18:34:00     -246.973      -51.910      -43.193      102.604       84.063       54.962    10527.579     7066.621     3020.832        4.308        1.031      252.369       55.048        0.048      347.188       25.972      860.276
09/09/2014  18:35:00     -249.634      -22.973      -10.538       88.023       67.219       50.889     7748.080     4518.330     2589.728        3.890        0.743      250.689       45.882        0.033      347.155       25.915      860.280
09/09/2014  18:36:00     -213.115      -26.357      -18.022       78.633       70.133       46.173     6183.210     4918.603     2131.938        2.983        0.662      214.739       41.431        0.037      347.130       25.875      860.293
09/09/2014  18:37:00     -213.829       21.388      -26.917       92.651       68.307       44.080     8584.185     4665.869     1943.002        3.105        0.760      214.896       40.949        0.036      347.139       25.891      860.298
09/09/2014  18:38:00     -166.608      -46.657       -0.433       99.215       67.857       37.215     9843.577     4604.593     1384.953        2.288        0.792      173.017       42.360        0.060      347.086       25.797      860.292
09/09/2014  18:39:00     -165.079        3.243      -22.386       72.230       61.914       33.336     5217.145     3833.360     1111.295        1.896        0.508      165.111       31.617        0.037      347.147       25.905      860.295
09/09/2014  18:40:00     -116.335       10.623      -12.512       74.132       41.629       41.291     5495.572     1732.948     1704.930        1.137        0.447      116.819       39.954        0.117      347.103       25.831      860.283
09/09/2014  18:41:00     -186.415      -36.809       -6.273      101.961       68.862       39.771    10396.092     4742.002     1581.747        2.643        0.836      190.015       34.944        0.034      347.085       25.796      860.281
09/09/2014  18:42:00     -175.412       29.263      -26.744       76.548       57.829       37.998     5859.624     3344.248     1443.869        2.149        0.532      177.836       39.654        0.050      347.104       25.829      860.283
09/09/2014  18:43:00     -181.035      -11.982      -21.650       89.015      109.025       42.968     7923.602    11886.405     1846.259        2.752        1.083      181.431       31.025        0.029      347.052       25.741      860.285
09/09/2014  18:44:00     -171.643      -37.289      -24.429       96.417       61.910       44.309     9296.171     3832.895     1963.258        2.327        0.755      175.646       47.078        0.072      347.039       25.717      860.282
09/09/2014  18:45:00     -216.050      -76.813      -12.073       78.892       70.290       40.847     6223.896     4940.743     1668.480        3.278        0.642      229.299       37.653        0.027      346.966       25.590      860.286
09/09/2014  18:46:00     -232.962      -47.494       -7.009      114.616       79.473       49.409    13136.860     6315.901     2441.290        3.923        1.095      237.754       51.326        0.047      346.935       25.536      860.296
09/09/2014  18:47:00     -181.606      -14.902      -16.624       98.900      101.302       57.374     9781.185    10262.094     3291.732        2.840        1.167      182.216       46.685        0.066      346.953       25.568      860.293
09/09/2014  18:48:00     -122.507        0.044       -1.203       77.857       86.830       48.660     6061.789     7539.393     2367.832        1.549        0.798      122.507       44.182        0.130      346.943       25.552      860.298
09/09/2014  18:49:00     -193.763      -26.164       -4.925       65.059       60.055       38.793     4232.652     3606.646     1504.929        2.380        0.467      195.522       28.036        0.021      346.919       25.510      860.309
09/09/2014  18:50:00     -178.906      -54.680      -13.415      114.983       80.079       42.502    13221.034     6412.676     1806.437        2.831        1.072      187.075       45.789        0.060      346.926       25.523      860.300
09/09/2014  18:51:00     -304.001      -34.113      -23.914       94.813       55.730       44.892     8989.568     3105.879     2015.292        5.413        0.706      305.909       36.591        0.014      346.925       25.519      860.294
09/09/2014  18:52:00     -211.091      -38.945       -5.098      100.697       65.881       43.997    10139.896     4340.338     1935.752        3.126        0.821      214.653       42.583        0.039      346.934       25.536      860.282
09/09/2014  18:53:00     -197.699      -38.145      -18.289       71.773       56.897       34.219     5151.327     3237.268     1170.938        2.522        0.478      201.346       29.869        0.022      346.883       25.447      860.293
09/09/2014  18:54:00     -149.529      -69.444       -1.926       71.554       59.737       36.167     5119.969     3568.501     1308.017        1.859        0.500      164.868       34.614        0.044      346.828       25.355      860.294
09/09/2014  18:55:00     -114.340      -57.378       -6.973       78.476       50.575       38.114     6158.507     2557.800     1452.675        1.329        0.508      127.929       38.227        0.089      346.773       25.261      860.286
09/09/2014  18:56:00     -174.853      -15.393      -19.980       79.189       82.416       36.445     6270.941     6792.378     1328.238        2.280        0.720      175.530       35.611        0.041      346.777       25.268      860.275
09/09/2014  18:57:00     -192.872      -49.898       -2.379       94.073       90.473       59.336     8849.818     8185.437     3520.730        3.012        1.028      199.222       48.466        0.059      346.806       25.316      860.276
09/09/2014  18:58:00     -180.815      -60.450      -10.769       77.653       65.193       38.649     6029.996     4250.192     1493.755        2.412        0.589      190.652       32.695        0.029      346.801       25.308      860.282
09/09/2014  18:59:00     -155.356      -75.817      -11.365       78.180       58.446       36.062     6112.162     3415.930     1300.434        2.042        0.541      172.869       35.279        0.042      346.750       25.221      860.280
09/09/2014  19:00:00     -165.438      -39.899       -5.685       70.150       55.101       38.565     4921.084     3036.175     1487.230        1.922        0.472      170.182       37.229        0.048      346.724       25.175      860.279
09/09/2014  19:01:00     -235.337      -85.205       -7.549       90.498       68.991       38.647     8189.806     4759.766     1493.583        3.857        0.722      250.287       44.544        0.032      346.765       25.244      860.280
09/09/2014  19:02:00     -209.074      -70.286        1.544       82.084       73.192       45.799     6737.782     5357.121     2097.547        3.142        0.710      220.572       44.827        0.041      346.757       25.231      860.293
09/09/2014  19:03:00     -161.962      -39.995       -8.613       91.006       67.303       51.573     8282.169     4529.710     2659.791        2.169        0.774      166.827       47.429        0.081      346.799       25.304      860.291
09/09/2014  19:04:00     -275.822     -103.821       -9.389      115.063       72.760       51.573    13239.549     5294.000     2659.759        5.407        1.060      294.715       57.215        0.038      346.802       25.307      860.292
09/09/2014  19:05:00     -228.896      -76.370      -13.951       99.069       79.896       51.835     9814.653     6383.396     2686.828        3.865        0.944      241.300       49.641        0.042      346.774       25.260      860.297
09/09/2014  19:06:00     -207.616     -104.919       -8.888       81.158       62.030       44.268     6586.613     3847.743     1959.632        3.329        0.620      232.621       27.250        0.014      346.755       25.227      860.307
09/09/2014  19:07:00     -209.412      -69.390      -12.835       76.186       52.172       41.236     5804.375     2721.870     1700.444        2.953        0.511      220.609       34.891        0.025      346.769       25.252      860.308
09/09/2014  19:08:00     -198.350      -96.408       -5.563       60.876       52.842       32.026     3705.837     2792.284     1025.676        2.809        0.376      220.538       28.985        0.017      346.736       25.196      860.305
09/09/2014  19:09:00     -226.685      -54.561       -1.282       90.465       56.619       34.991     8183.951     3205.659     1224.372        3.349        0.631      233.159       36.543        0.025      346.743       25.208      860.309
09/09/2014  19:10:00     -180.356      -34.997       -7.458       70.617       45.866       29.435     4986.758     2103.651      866.403        2.088        0.398      183.720       30.524        0.028      346.731       25.188      860.324
09/09/2014  19:11:00     -192.328      -67.698       -2.228       68.130       65.414       36.729     4641.643     4278.993     1349.009        2.592        0.513      203.895       39.338        0.037      346.659       25.064      860.320
09/09/2014  19:12:00     -179.884      -58.169        8.382       86.101       52.733       37.575     7413.358     2780.796     1411.878        2.371        0.580      189.055       37.740        0.040      346.626       25.006      860.325
09/09/2014  19:13:00     -215.613      -70.159       -5.576       79.681       55.161       37.246     6349.066     3042.757     1387.292        3.111        0.539      226.741       43.014        0.036      346.639       25.028      860.334
09/09/2014  19:14:00     -179.523      -59.655       -9.265       74.877       65.827       39.768     5606.600     4333.226     1581.528        2.370        0.576      189.175       38.924        0.042      346.633       25.019      860.333
09/09/2014  19:15:00     -218.801      -44.970       -6.549       56.953       57.163       38.585     3243.614     3267.639     1488.828        2.897        0.400      223.375       38.599        0.030      346.622       24.998      860.334
09/09/2014  19:16:00     -169.155      -42.349       -1.811       62.040       65.136       30.509     3848.974     4242.732      930.816        1.971        0.451      174.375       25.005        0.021      346.548       24.874      860.353
09/09/2014  19:17:00     -156.410      -62.628       -3.625       73.445       64.157       31.213     5394.150     4116.156      974.281        1.944        0.524      168.483       36.246        0.046      346.595       24.954      860.352
09/09/2014  19:18:00     -223.706      -54.484      -12.976       88.529       52.533       45.547     7837.464     2759.719     2074.489        3.292        0.634      230.245       48.694        0.045      346.565       24.899      860.362
09/09/2014  19:19:00     -211.429      -40.325      -12.823       93.804       56.730       41.922     8799.262     3218.340     1757.435        3.013        0.689      215.240       46.454        0.047      346.583       24.931      860.373
09/09/2014  19:20:00     -186.506      -55.704       -1.157       67.569       60.919       35.165     4565.595     3711.076     1236.547        2.370        0.476      194.647       32.585        0.028      346.547       24.871      860.380
09/09/2014  19:21:00     -199.005      -77.330      -10.002       47.708       58.582       31.144     2276.009     3431.843      969.966        2.618        0.334      213.502       25.153        0.014      346.515       24.814      860.400
09/09/2014  19:22:00     -174.146      -30.466       -5.784       58.439       51.453       33.137     3415.169     2647.397     1098.039        1.922        0.358      176.790       34.045        0.037      346.457       24.717      860.413
09/09/2014  19:23:00     -130.192      -23.716        7.685       62.569       47.426       31.388     3914.898     2249.265      985.197        1.236        0.357      132.335       34.468        0.068      346.362       24.553      860.432
09/09/2014  19:24:00     -101.646      -26.064        2.806       82.041       48.096       33.311     6730.778     2313.242     1109.591        1.058        0.508      104.934       39.191        0.139      346.388       24.598      860.440
09/09/2014  19:25:00     -179.648      -78.338       -0.536       65.556       66.876       39.283     4297.549     4472.348     1543.147        2.436        0.516      195.986       29.088        0.022      346.417       24.647      860.450
09/09/2014  19:26:00     -152.625      -53.938        8.093       77.194       65.767       37.836     5958.850     4325.274     1431.537        1.899        0.586      161.876       39.725        0.060      346.341       24.518      860.456
09/09/2014  19:27:00     -231.506      -86.201       -7.801       63.674       57.679       37.661     4054.433     3326.809     1418.342        3.494        0.440      247.034       38.106        0.024      346.408       24.630      860.467
09/09/2014  19:28:00     -194.518      -73.334       -8.230       69.880       55.942       33.472     4883.151     3129.485     1120.358        2.621        0.457      207.883       32.041        0.024      346.357       24.542      860.469
09/09/2014  19:29:00     -249.665      -52.221       -8.414      118.261       59.541       45.196    13985.622     3545.124     2042.635        4.235        0.979      255.068       44.963        0.031      346.376       24.577      860.493
09/09/2014  19:30:00     -315.059      -49.727      -27.030       74.314       65.946       43.054     5522.564     4348.931     1853.672        5.709        0.586      318.959       40.113        0.016      346.373       24.570      860.495
09/09/2014  19:31:00     -213.964      -64.683      -18.027       98.336       56.508       44.821     9669.988     3193.124     2008.880        3.258        0.744      223.528       51.798        0.054      346.289       24.425      860.498
09/09/2014  19:32:00     -178.533      -44.385        4.925       78.515       75.249       47.315     6164.563     5662.370     2238.739        2.396        0.703      183.968       35.674        0.038      346.258       24.373      860.499
09/09/2014  19:33:00     -188.923      -99.041       -5.705       90.095       57.955       47.353     8117.171     3358.769     2242.296        2.962        0.686      213.310       42.923        0.040      346.279       24.409      860.506
09/09/2014  19:34:00     -237.718      -18.881      -11.745       99.166       88.878       49.592     9833.837     7899.231     2459.348        3.859        1.010      238.466       44.191        0.034      346.271       24.395      860.513
09/09/2014  19:35:00     -171.510      -57.398        0.642       76.005       58.890       37.813     5776.728     3468.079     1429.807        2.169        0.534      180.859       36.101        0.040      346.248       24.356      860.510
09/09/2014  19:36:00     -171.643      -29.400       -2.570       91.549       59.888       40.673     8381.136     3586.575     1654.319        2.197        0.681      174.143       36.177        0.043      346.240       24.343      860.500
09/09/2014  19:37:00     -211.974      -82.191       -9.253       53.618       69.533       39.392     2874.937     4834.872     1551.730        3.052        0.463      227.351       33.092        0.021      346.247       24.353      860.508
09/09/2014  19:38:00     -203.032      -63.171        0.110       70.376       51.030       33.851     4952.742     2604.076     1145.857        2.696        0.435      212.633       35.082        0.027      346.218       24.303      860.510
09/09/2014  19:39:00     -237.393      -31.317      -10.030       85.400       82.059       38.894     7293.085     6733.760     1512.711        3.649        0.777      239.449       41.957        0.031      346.249       24.357      860.518
09/09/2014  19:40:00     -205.990      -16.050      -14.165       75.370       60.609       41.147     5680.624     3673.456     1693.115        2.697        0.552      206.615       45.226        0.048      346.236       24.335      860.529
09/09/2014  19:41:00     -107.511      -38.635       -3.287       87.305       56.038       34.578     7622.128     3140.287     1195.654        1.251        0.598      114.242       38.755        0.115      346.099       24.104      860.539
09/09/2014  19:42:00     -230.625      -78.234       -8.606       76.361       49.423       37.722     5831.030     2442.625     1422.986        3.454        0.485      243.534       31.930        0.017      346.199       24.270      860.555
09/09/2014  19:43:00     -139.286     -127.187        1.718       82.443       81.042       40.839     6796.838     6567.777     1667.817        2.530        0.752      188.619       44.506        0.056      346.170       24.222      860.568
09/09/2014  19:44:00     -134.626     -106.156        0.205       81.917       60.187       41.330     6710.453     3622.469     1708.178        2.072        0.602      171.445       36.645        0.046      346.169       24.221      860.580
09/09/2014  19:45:00     -150.660     -124.860       -2.977       70.550       63.990       39.236     4977.249     4094.659     1539.492        2.445        0.531      195.674       39.867        0.042      346.158       24.200      860.582
09/09/2014  19:46:00     -207.513      -80.985       -7.594       89.657       71.455       42.595     8038.362     5105.855     1814.351        3.232        0.748      222.756       41.195        0.034      346.153       24.191      860.578
09/09/2014  19:47:00     -202.083     -107.732        2.200      105.338       64.222       44.261    11096.184     4124.512     1959.072        3.481        0.859      229.006       32.159        0.020      346.144       24.176      860.582
09/09/2014  19:48:00     -231.558     -148.570        5.276      119.722       92.672       58.159    14333.417     8588.046     3382.471        5.101        1.315      275.123       57.438        0.044      346.135       24.159      860.576
09/09/2014  19:49:00     -268.790     -189.789        3.188      129.678      115.245       73.546    16816.258    13281.414     5409.024        7.189        1.775      329.041       73.560        0.050      346.106       24.111      860.587
09/09/2014  19:50:00     -359.466     -153.258      -17.012      100.943       77.549       48.482    10189.413     6013.878     2350.488        8.577        0.928      390.773       43.481        0.012      346.119       24.132      860.607
09/09/2014  19:51:00     -304.526     -163.965       -5.283      140.402       76.763       61.947    19712.605     5892.482     3837.477        7.454        1.472      345.862       65.560        0.036      346.084       24.074      860.626
09/09/2014  19:52:00     -333.335     -142.227       -8.698      114.460       97.278       52.116    13101.013     9462.985     2716.028        7.834        1.264      362.410       48.034        0.018      346.122       24.139      860.641
09/09/2014  19:53:00     -333.555     -197.256      -14.591      119.346       90.075       63.910    14243.470     8113.591     4084.468        8.841        1.322      387.517       67.602        0.030      346.103       24.105      860.668
09/09/2014  19:54:00     -246.643     -125.748       -8.556      136.634      116.353       60.820    18668.847    13537.934     3699.082        5.631        1.795      276.849       71.493        0.067      346.052       24.018      860.686
09/09/2014  19:55:00     -278.125     -115.838       -3.913      125.337       91.884       59.967    15709.435     8442.588     3596.002        5.926        1.387      301.284       58.083        0.037      346.074       24.056      860.698
09/09/2014  19:56:00     -208.525     -126.581        1.897      137.619      112.232       63.539    18939.006    12595.925     4037.149        4.753        1.779      243.938       77.582        0.101      346.030       23.981      860.707
09/09/2014  19:57:00     -295.328     -144.600      -16.658      117.418      104.062       54.872    13786.947    10828.852     3010.889        6.801        1.381      328.828       59.260        0.032      345.996       23.922      860.751
09/09/2014  19:58:00     -298.628     -120.788      -14.799      115.431       94.973       53.966    13324.287     9019.821     2912.340        6.462        1.263      322.131       56.539        0.031      345.974       23.883      860.794
09/09/2014  19:59:00     -199.114      -42.767      -22.277      113.237       95.337       49.513    12822.711     9089.177     2451.504        3.316        1.218      203.655       51.724        0.065      345.939       23.824      860.820
09/09/2014  20:00:00     -183.086       -2.639       -3.941       83.251       66.671       38.316     6930.677     4445.086     1468.130        2.319        0.642      183.105       38.282        0.044      345.836       23.649      860.852
09/09/2014  20:01:00     -230.676      -46.206       -6.978       86.831       57.927       39.145     7539.541     3355.501     1532.320        3.391        0.621      235.258       38.414        0.027      345.830       23.637      860.850
09/09/2014  20:02:00     -251.363      -61.633       -9.095       80.307      102.314       45.665     6449.207    10468.224     2085.318        4.303        0.950      258.809       43.052        0.028      345.814       23.611      860.861
09/09/2014  20:03:00     -245.970      -68.124        3.192      117.753      107.966       62.377    13865.880    11656.636     3890.907        4.728        1.471      255.230       58.395        0.052      345.795       23.578      860.864
09/09/2014  20:04:00     -264.695      -71.374        1.812      112.879       80.548       55.354    12741.598     6487.993     3064.094        4.872        1.115      274.149       54.683        0.040      345.771       23.535      860.879
09/09/2014  20:05:00     -240.519      -67.841        2.022      126.248      105.647       59.988    15938.638    11161.326     3598.525        4.657        1.535      249.903       64.278        0.066      345.798       23.582      860.881
09/09/2014  20:06:00     -240.387      -92.114       -6.994      133.083       99.705       57.008    17711.097     9941.171     3249.859        4.861        1.545      257.431       62.118        0.058      345.793       23.574      860.898
09/09/2014  20:07:00     -215.169      -49.127       -5.312      114.401       96.842       46.762    13087.671     9378.309     2186.643        3.669        1.233      220.706       47.329        0.046      345.761       23.521      860.912
09/09/2014  20:08:00     -193.185      -99.256       -9.549      120.497       84.372       45.979    14519.601     7118.609     2114.101        3.550        1.188      217.192       47.572        0.048      345.774       23.541      860.933
09/09/2014  20:09:00     -130.057      -20.504       -1.433       90.051       65.616       38.346     8109.097     4305.433     1470.451        1.561        0.694      131.663       41.859        0.101      345.720       23.448      860.939
09/09/2014  20:10:00     -333.773      -69.060      -13.793      128.053      101.631       55.177    16397.597    10328.946     3044.528        7.306        1.489      340.842       49.584        0.021      345.757       23.512      860.970
09/09/2014  20:11:00     -264.202      -61.075        9.150      169.554       95.781       71.796    28748.665     9173.950     5154.714        5.834        2.154      271.169       80.182        0.087      345.700       23.416      861.006
09/09/2014  20:12:00     -381.669      -50.523      -27.060      154.364       98.157       71.959    23828.178     9634.747     5178.169        9.379        1.932      384.998       82.751        0.046      345.800       23.586      861.042
09/09/2014  20:13:00     -364.892      -46.498      -19.900      192.087      112.905       64.615    36897.322    12747.508     4175.150        9.475        2.691      367.843       82.660        0.050      345.754       23.507      861.060
09/09/2014  20:14:00     -373.929      -62.797      -21.421      156.130      137.275       65.233    24376.706    18844.428     4255.325        9.584        2.374      379.165       73.056        0.037      345.790       23.569      861.063
09/09/2014  20:15:00     -326.082      -18.650      -12.712      125.662       80.269       56.189    15791.042     6443.044     3157.239        6.611        1.270      326.614       60.890        0.035      345.740       23.484      861.085
09/09/2014  20:16:00     -373.587     -106.204       -9.572      118.132      106.718       68.038    13955.238    11388.757     4629.193        9.045        1.499      388.390       71.490        0.034      345.814       23.610      861.101
09/09/2014  20:17:00     -413.259      -59.158      -17.992      109.738      105.265       58.838    12042.373    11080.735     3461.854       10.059        1.329      417.472       58.053        0.019      345.798       23.582      861.113
09/09/2014  20:18:00     -365.174      -44.760      -17.792      135.871      132.288       55.884    18460.875    17500.065     3123.004        8.737        1.954      367.907       46.299        0.016      345.797       23.582      861.136
09/09/2014  20:19:00     -316.768      -79.825       -2.168      146.182       87.053       59.621    21369.321     7578.222     3554.695        6.961        1.625      326.671       65.367        0.040      345.748       23.498      861.149
09/09/2014  20:20:00     -263.565     -103.502       -5.141      131.704       63.380       47.419    17345.874     4016.975     2248.556        5.190        1.181      283.159       57.286        0.041      345.724       23.455      861.165
09/09/2014  20:21:00     -251.131      -96.427        0.881      141.706      106.865       62.767    20080.520    11420.122     3939.694        5.390        1.772      269.007       67.206        0.062      345.699       23.414      861.167
09/09/2014  20:22:00     -298.108      -50.750       -3.027      125.099       79.863       54.121    15649.691     6378.178     2929.066        5.820        1.248      302.397       58.077        0.037      345.666       23.358      861.186
09/09/2014  20:23:00     -350.428      -58.909        1.379      173.459      104.006       71.588    30087.965    10817.294     5124.832        8.614        2.302      355.345       85.916        0.058      345.682       23.384      861.197
09/09/2014  20:24:00     -309.837      -16.402      -15.795      116.778       78.839       54.885    13637.042     6215.612     3012.344        5.969        1.143      310.271       50.080        0.026      345.654       23.335      861.218
09/09/2014  20:25:00     -300.041      -61.644      -12.145      103.293       80.140       55.541    10669.394     6422.441     3084.755        5.707        1.009      306.308       54.537        0.032      345.605       23.250      861.225
09/09/2014  20:26:00     -294.763      -55.286      -16.330       95.781      105.513       51.246     9174.007    11133.027     2626.174        5.657        1.147      299.903       39.642        0.017      345.610       23.259      861.234
09/09/2014  20:27:00     -312.318       -9.455      -18.908      104.269      118.032       60.230    10872.030    13931.507     3627.672        6.321        1.422      312.461       54.299        0.030      345.619       23.275      861.240
09/09/2014  20:28:00     -269.696      -68.244      -17.603      154.603       88.077       63.156    23902.149     7757.565     3988.681        5.667        1.782      278.197       75.954        0.075      345.603       23.248      861.245
09/09/2014  20:29:00     -403.000      -42.953      -57.979      137.268       98.499       58.023    18842.439     9702.018     3366.683        9.976        1.596      405.282       58.592        0.021      345.679       23.377      861.256
09/09/2014  20:30:00     -407.958      -64.557      -22.289      133.446      145.457       73.877    17807.794    21157.758     5457.880       10.775        2.221      413.034       77.336        0.035      345.647       23.324      861.264
09/09/2014  20:31:00     -303.255      -42.562      -16.032      125.409       98.326       51.294    15727.349     9667.942     2631.090        6.102        1.401      306.227       57.781        0.036      345.593       23.229      861.286
09/09/2014  20:32:00     -358.594      -35.217      -27.475      108.497      101.995       51.990    11771.634    10403.074     2702.991        7.773        1.244      360.319       55.470        0.024      345.600       23.241      861.304
09/09/2014  20:33:00     -268.610      -23.489      -16.366      132.331      103.347       54.996    17511.409    10680.572     3024.555        5.209        1.561      269.636       66.759        0.061      345.573       23.197      861.327
09/09/2014  20:34:00     -333.582      -58.968      -25.938      142.784      132.615       63.536    20387.402    17586.757     4036.795        7.871        2.101      338.754       68.230        0.041      345.537       23.134      861.325
09/09/2014  20:35:00     -241.994      -74.360       -7.979      117.131       97.098       55.734    13719.556     9428.098     3106.250        4.520        1.313      253.161       50.253        0.039      345.497       23.066      861.336
09/09/2014  20:36:00     -302.797      -41.385      -24.856       99.542       83.709       61.525     9908.606     7007.258     3785.310        5.736        1.035      305.612       58.513        0.037      345.519       23.104      861.339
09/09/2014  20:37:00     -299.885      -64.329      -34.772      139.152       73.611       54.190    19363.357     5418.610     2936.544        6.149        1.386      306.707       61.635        0.040      345.583       23.213      861.355
09/09/2014  20:38:00     -124.251      -35.547        1.102       71.716       80.315       43.162     5143.146     6450.438     1863.001        1.508        0.673      129.236       36.294        0.079      345.451       22.990      861.361
09/09/2014  20:39:00     -195.372      -44.164      -21.206       80.027       72.722       48.540     6404.340     5288.532     2356.160        2.731        0.702      200.301       45.579        0.052      345.470       23.020      861.361
09/09/2014  20:40:00     -233.384       -5.699      -38.765       75.138       95.432       46.444     5645.648     9107.297     2157.029        3.645        0.845      233.453       30.800        0.017      345.437       22.962      861.371
09/09/2014  20:41:00     -277.463      -77.581       -3.765      165.023       94.035       60.030    27232.715     8842.521     3603.659        6.134        1.984      288.105       72.702        0.064      345.382       22.869      861.365
09/09/2014  20:42:00     -316.343      -18.592      -25.967      104.094      103.831       54.772    10835.621    10780.782     2999.979        6.285        1.231      316.889       52.181        0.027      345.437       22.962      861.375
09/09/2014  20:43:00     -294.744      -40.683      -15.550       86.360       84.072       44.079     7458.031     7068.058     1942.971        5.262        0.823      297.538       38.910        0.017      345.399       22.897      861.395
09/09/2014  20:44:00     -280.908     -131.892      -11.152       93.705       87.711       51.160     8780.556     7693.271     2617.352        5.776        0.955      310.331       45.256        0.021      345.395       22.892      861.387
09/09/2014  20:45:00     -210.764      -76.575      -18.295       82.738       71.280       42.082     6845.556     5080.784     1770.923        3.216        0.685      224.244       31.528        0.020      345.341       22.799      861.402
09/09/2014  20:46:00     -212.128      -93.054      -21.800       89.223       71.779       43.123     7960.669     5152.253     1859.555        3.455        0.749      231.641       42.685        0.034      345.324       22.770      861.392
09/09/2014  20:47:00     -249.491      -88.256      -27.880      103.983       87.570       63.642    10812.448     7668.546     4050.320        4.667        1.127      264.641       51.245        0.037      345.383       22.870      861.386
09/09/2014  20:48:00     -201.839       -5.933      -26.010      115.285       89.872       43.011    13290.656     8076.998     1849.927        3.233        1.161      201.927       43.864        0.047      345.379       22.864      861.391
09/09/2014  20:49:00     -189.187      -82.770       -6.617       75.395       68.020       45.658     5684.367     4626.714     2084.653        2.754        0.620      206.501       37.923        0.034      345.291       22.713      861.386
09/09/2014  20:50:00     -188.791      -43.199      -11.104       84.870       79.629       48.846     7202.838     6340.729     2385.947        2.678        0.796      193.670       36.314        0.035      345.289       22.710      861.400
09/09/2014  20:51:00     -173.600      -19.267       -8.854       66.899       70.437       41.919     4475.542     4961.338     1757.194        2.089        0.560      174.666       34.617        0.039      345.258       22.658      861.407
09/09/2014  20:52:00     -123.401      -40.255      -24.445       78.221       62.220       41.155     6118.545     3871.377     1693.747        1.456        0.584      129.801       35.824        0.076      345.222       22.595      861.409
09/09/2014  20:53:00     -195.375     -116.052      -21.305      106.344      101.229       49.449    11309.149    10247.310     2445.220        3.804        1.200      227.243       46.129        0.041      345.199       22.556      861.427
09/09/2014  20:54:00     -274.821      -57.179      -11.500      123.790       84.097       56.574    15323.950     7072.223     3200.579        5.226        1.280      280.706       60.097        0.046      345.230       22.608      861.432
09/09/2014  20:55:00     -322.319      -27.158      -40.595       97.874      103.947       51.329     9579.309    10805.017     2634.615        6.464        1.151      323.461       44.278        0.019      345.258       22.656      861.425
09/09/2014  20:56:00     -308.810      -37.907      -25.172       86.527       98.831       50.666     7486.897     9767.650     2567.094        5.862        0.991      311.128       44.015        0.020      345.264       22.665      861.419
09/09/2014  20:57:00     -280.175      -82.164      -16.759      109.706       93.684       58.936    12035.445     8776.780     3473.506        5.490        1.214      291.974       59.721        0.042      345.278       22.690      861.399
09/09/2014  20:58:00     -451.467      -87.415      -22.903      172.342      108.706       69.836    29701.688    11817.086     4877.102       12.918        2.320      459.852       58.719        0.016      345.357       22.827      861.409
09/09/2014  20:59:00     -192.187      -45.246       -2.658      150.643       87.810       67.741    22693.447     7710.610     4588.787        3.699        1.750      197.441       78.398        0.158      345.331       22.782      861.397
09/09/2014  21:00:00     -275.119      -84.954        2.119      120.025      138.151       62.735    14405.957    19085.678     3935.713        6.016        1.871      287.936       59.836        0.043      345.318       22.757      861.392
09/09/2014  21:01:00     -462.579      -18.600      -25.164      157.342       91.927       75.790    24756.388     8450.513     5744.064       12.695        1.948      462.953       79.678        0.030      345.410       22.916      861.397
09/09/2014  21:02:00     -301.888      -77.604      -13.854      130.879      105.160       60.470    17129.182    11058.674     3656.640        6.459        1.592      311.703       56.897        0.033      345.367       22.842      861.406
09/09/2014  21:03:00     -215.605      -56.454        9.220      142.523      110.298       67.255    20312.761    12165.677     4523.272        4.337        1.850      222.873       73.196        0.108      345.337       22.792      861.403
09/09/2014  21:04:00     -141.655      -34.994        9.774       96.420       80.218       56.872     9296.881     6435.005     3234.446        2.017        0.948      145.913       61.751        0.179      345.332       22.784      861.422
09/09/2014  21:05:00     -286.017      -78.972       -9.354       95.563      122.331       52.690     9132.335    14964.795     2776.193        5.750        1.344      296.719       49.886        0.028      345.351       22.813      861.439
09/09/2014  21:06:00     -317.951      -58.056      -19.369      120.790       82.972       59.135    14590.132     6884.390     3496.905        6.490        1.249      323.208       60.516        0.035      345.275       22.683      861.447
09/09/2014  21:07:00     -235.272      -56.980       -1.070      111.620       76.622       45.270    12459.017     5870.943     2049.381        3.949        1.019      242.074       57.106        0.056      345.204       22.563      861.474
09/09/2014  21:08:00     -303.346      -66.849       -4.628      186.328      102.317       66.288    34718.279    10468.766     4394.121        7.304        2.479      310.625       73.583        0.056      345.331       22.781      861.473
09/09/2014  21:09:00     -190.144      -59.784        1.330      114.499      104.762       58.947    13109.994    10974.987     3474.729        3.364        1.378      199.321       51.418        0.067      345.297       22.724      861.471
09/09/2014  21:10:00     -243.123      -66.976       -2.189      188.321      125.629       67.862    35464.846    15782.723     4605.208        5.972        2.793      252.179       84.639        0.113      345.312       22.750      861.499
09/09/2014  21:11:00     -203.159      -66.020       -6.831      152.745      118.189       76.655    23331.104    13968.610     5876.034        4.442        2.159      213.617       71.121        0.111      345.349       22.813      861.499
09/09/2014  21:12:00     -405.241      -80.634      -21.466      163.409      105.813       66.830    26702.466    11196.387     4466.252       10.677        2.118      413.185       70.703        0.029      345.371       22.850      861.521
09/09/2014  21:13:00     -417.626      -63.099      -21.447      143.661      112.192       65.521    20638.526    12587.093     4293.000       10.818        1.876      422.365       70.572        0.028      345.345       22.805      861.542
09/09/2014  21:14:00     -286.702      -73.555      -21.852      130.662      128.687       58.876    17072.520    16560.350     3466.435        6.259        1.855      295.987       63.015        0.045      345.279       22.691      861.556
09/09/2014  21:15:00     -353.579      -95.294      -10.976      139.803      115.157       63.645    19544.761    13261.067     4050.685        8.553        1.843      366.196       72.769        0.039      345.331       22.781      861.577
09/09/2014  21:16:00     -270.854     -127.563        0.611      122.956      101.370       55.707    15118.240    10275.820     3103.221        5.906        1.425      299.390       61.972        0.043      345.276       22.686      861.566
09/09/2014  21:17:00     -273.558      -55.087       -4.964      133.077       95.944       57.862    17709.380     9205.319     3348.022        5.407        1.513      279.049       60.821        0.048      345.256       22.653      861.582
09/09/2014  21:18:00     -290.600      -44.228      -23.058      106.750      103.943       56.089    11395.518    10804.082     3145.995        5.614        1.267      293.946       59.610        0.041      345.261       22.661      861.578
09/09/2014  21:19:00     -247.743      -19.124      -20.542      114.497       88.902       46.530    13109.595     7903.556     2165.080        4.267        1.159      248.480       50.240        0.041      345.247       22.638      861.579
09/09/2014  21:20:00     -220.140      -93.769      -14.606      142.549      133.455       59.832    20320.262    17810.277     3579.896        4.958        2.086      239.278       59.522        0.062      345.269       22.676      861.572
09/09/2014  21:21:00     -261.356      -59.015       -7.653       92.001      100.936       49.601     8464.132    10188.043     2460.257        4.648        1.056      267.937       45.123        0.028      345.238       22.621      861.589
09/09/2014  21:22:00     -241.539      -30.695      -19.082      144.120      117.604       56.279    20770.677    13830.732     3167.324        4.870        1.888      243.481       46.999        0.037      345.244       22.635      861.595
09/09/2014  21:23:00     -241.741      -14.931       -1.727      176.775      140.574       61.258    31249.506    19761.077     3752.564        5.670        2.738      242.202       72.232        0.089      345.204       22.565      861.607
09/09/2014  21:24:00     -298.419      -22.940       -8.671      148.462      110.657       61.864    22040.921    12244.965     3827.170        6.388        1.906      299.300       73.003        0.059      345.196       22.549      861.608
09/09/2014  21:25:00     -201.103      -17.821      -13.095      110.514       90.599       53.511    12213.259     8208.192     2863.401        3.210        1.164      201.891       50.089        0.062      345.180       22.525      861.607
09/09/2014  21:26:00     -247.327      -75.930      -11.502      131.728       70.234       50.554    17352.370     4932.788     2555.723        4.595        1.242      258.720       55.419        0.046      345.241       22.628      861.602
09/09/2014  21:27:00     -274.089      -20.446       -9.958       68.049       71.747       40.340     4630.695     5147.701     1627.320        4.352        0.570      274.850       34.379        0.016      345.242       22.627      861.603
09/09/2014  21:28:00     -197.262      -50.580        2.232      123.974       66.173       51.675    15369.626     4378.818     2670.279        3.194        1.121      203.643       62.405        0.094      345.133       22.443      861.624
09/09/2014  21:29:00     -292.329     -101.881      -21.667       78.022       80.014       40.720     6087.410     6402.193     1658.142        5.522        0.707      309.574       26.258        0.007      345.231       22.609      861.650
09/09/2014  21:30:00     -301.007      -36.008      -25.815       98.612       71.339       51.087     9724.258     5089.272     2609.851        5.499        0.871      303.153       51.243        0.029      345.320       22.761      861.640
09/09/2014  21:31:00     -176.872      -48.727      -12.414      106.090      105.542       53.466    11255.056    11139.023     2858.568        2.953        1.263      183.462       63.618        0.120      345.252       22.647      861.635
09/09/2014  21:32:00     -204.524      -82.230        8.705      134.752       91.921       51.328    18158.233     8449.496     2634.544        3.895        1.462      220.436       64.903        0.087      345.155       22.481      861.656
09/09/2014  21:33:00     -311.167      -82.322      -12.507      110.886      100.505       57.244    12295.730    10101.191     3276.920        6.471        1.284      321.873       50.872        0.025      345.216       22.582      861.641
09/09/2014  21:34:00     -192.400      -91.136        0.183      113.147      101.654       63.226    12802.189    10333.515     3997.559        3.622        1.357      212.893       64.782        0.093      345.173       22.511      861.645
09/09/2014  21:35:00     -254.782      -77.189       -1.322      144.100      104.366       56.752    20764.867    10892.193     3220.823        5.287        1.744      266.218       60.262        0.051      345.187       22.534      861.669
09/09/2014  21:36:00     -304.629      -26.162      -14.416      115.912       95.701       50.724    13435.570     9158.658     2572.876        5.942        1.258      305.751       57.778        0.036      345.236       22.620      861.683
09/09/2014  21:37:00     -341.235       27.007      -33.008       78.836       81.346       52.003     6215.141     6617.185     2704.332        6.690        0.777      342.302       39.871        0.014      345.242       22.628      861.693
09/09/2014  21:38:00     -193.964      -28.187       -4.798       81.626       74.817       43.673     6662.825     5597.593     1907.313        2.630        0.708      196.001       32.088        0.027      345.179       22.521      861.702
09/09/2014  21:39:00     -292.287      -46.279      -16.111       92.073       97.498       44.569     8477.491     9505.833     1986.407        5.390        0.998      295.928       40.161        0.018      345.188       22.535      861.714
09/09/2014  21:40:00     -287.994      -12.276      -15.543       86.812      112.778       56.130     7536.273    12718.888     3150.609        5.337        1.170      288.256       50.077        0.030      345.155       22.480      861.720
09/09/2014  21:41:00     -230.253       -2.933      -16.838       61.077       80.757       35.539     3730.348     6521.746     1263.043        3.241        0.576      230.272       32.706        0.020      345.133       22.443      861.729
09/09/2014  21:42:00     -259.760      -26.907      -31.839       71.897       54.588       32.517     5169.167     2979.869     1057.341        3.921        0.460      261.150       36.107        0.019      345.106       22.396      861.746
09/09/2014  21:43:00     -181.656      -22.050      -19.849       85.164       56.792       41.328     7252.861     3225.387     1707.979        2.303        0.609      182.989       36.602        0.040      345.079       22.351      861.762
09/09/2014  21:44:00     -127.045      -41.384       -1.120       62.966       61.360       33.233     3964.724     3765.087     1104.420        1.334        0.442      133.616       23.254        0.030      345.029       22.268      861.779
09/09/2014  21:45:00     -138.128      -33.026        8.336       88.341       71.881       47.456     7804.114     5166.876     2252.065        1.773        0.761      142.021       40.524        0.081      345.014       22.242      861.777
09/09/2014  21:46:00      -99.181      -32.322       -2.985       69.885       53.100       39.466     4883.933     2819.572     1557.562        1.007        0.463      104.315       42.248        0.164      344.993       22.205      861.794
09/09/2014  21:47:00     -166.717      -86.581      -10.390       78.667       58.212       35.523     6188.428     3388.586     1261.911        2.312        0.542      187.859       32.819        0.031      344.944       22.121      861.805
09/09/2014  21:48:00     -173.084       13.725      -17.198       76.057       84.720       33.728     5784.640     7177.559     1137.597        2.227        0.705      173.628       35.244        0.041      345.002       22.220      861.806
09/09/2014  21:49:00     -102.726       68.674       -9.564       52.891       39.701       30.955     2797.501     1576.131      958.192        1.035        0.267      123.566       23.981        0.038      345.008       22.231      861.823
09/09/2014  21:50:00     -132.947       68.312      -16.633       62.401       53.625       37.707     3893.908     2875.662     1421.817        1.540        0.410      149.470       22.786        0.023      344.965       22.157      861.834
09/09/2014  21:51:00      -90.219       98.789      -24.571       44.024       38.256       27.922     1938.108     1463.542      779.663        1.134        0.209      133.787       25.259        0.036      345.012       22.239      861.843
09/09/2014  21:52:00      -67.220       51.157       -2.594       33.141       32.804       26.068     1098.329     1076.121      679.528        0.500        0.143       84.472       17.707        0.044      344.918       22.078      861.861
09/09/2014  21:53:00      -99.760      125.094      -23.430       58.474       74.394       34.996     3419.267     5534.531     1224.749        1.816        0.509      160.001       34.962        0.048      345.006       22.229      861.866
09/09/2014  21:54:00      -87.341      188.672      -24.724       45.075       96.290       29.374     2031.716     9271.843      862.816        2.800        0.608      207.907       33.603        0.026      344.994       22.206      861.864
09/09/2014  21:55:00      -43.018      177.951      -19.193       67.488       98.812       36.877     4554.678     9763.720     1359.934        2.478        0.784      183.077       41.393        0.051      344.932       22.101      861.850
09/09/2014  21:56:00      -56.388      209.379      -24.220       53.905      101.397       36.585     2905.746    10281.451     1338.496        3.106        0.726      216.839       40.386        0.035      344.937       22.108      861.855
09/09/2014  21:57:00      -70.035      143.910      -16.348       55.266       71.043       34.375     3054.303     5047.163     1181.662        1.758        0.464      160.047       23.219        0.021      344.948       22.128      861.867
09/09/2014  21:58:00     -101.006      109.264      -21.436       42.394       57.408       32.886     1797.242     3295.625     1081.493        1.439        0.309      148.798       27.139        0.033      345.015       22.243      861.875
09/09/2014  21:59:00      -52.657       33.554      -18.328       46.510       62.334       19.830     2163.146     3885.529      393.241        0.534        0.322       62.439       20.058        0.103      344.945       22.124      861.875
09/09/2014  22:00:00      -63.432      118.445       -9.339       39.327       58.482       25.438     1546.632     3420.151      647.101        1.188        0.281      134.360       13.107        0.010      344.913       22.069      861.875
09/09/2014  22:01:00      -67.114       37.827       -9.655       30.081       40.328       21.516      904.855     1626.321      462.934        0.451        0.150       77.040       13.374        0.030      344.816       21.903      861.903
09/09/2014  22:02:00      -93.789        0.129      -17.904       20.746       26.733       14.026      430.409      714.630      196.734        0.523        0.067       93.789        9.910        0.011      344.736       21.765      861.928
09/09/2014  22:03:00      -85.683       74.917      -11.973       55.955       41.081       22.254     3130.931     1687.611      495.228        0.920        0.266      113.816       17.845        0.025      344.931       22.100      861.943
09/09/2014  22:04:00      -14.704      162.493      -23.191       42.484       52.086       20.191     1804.856     2713.001      407.670        1.604        0.246      163.157       23.676        0.021      344.778       21.837      861.953
09/09/2014  22:05:00      -45.327      174.406      -28.549       45.365       68.300       22.286     2057.968     4664.948      496.677        2.025        0.361      180.200       19.820        0.012      344.665       21.643      861.971
09/09/2014  22:06:00      -70.560      118.564      -19.766       27.132       53.725       24.611      736.159     2886.402      605.688        1.183        0.211      137.972       24.662        0.032      344.628       21.581      861.983
09/09/2014  22:07:00      -68.842      108.438      -17.288       26.140       40.571       15.993      683.278     1646.026      255.762        0.969        0.129      128.445       13.944        0.012      344.769       21.824      861.983
09/09/2014  22:08:00      -15.060      133.648      -24.001       35.192       39.562       14.260     1238.510     1565.123      203.336        1.084        0.150      134.494       16.858        0.016      344.855       21.971      861.987
09/09/2014  22:09:00      -98.731       48.973      -14.987       69.327       73.955       19.484     4806.205     5469.394      379.626        1.151        0.533      110.210       16.019        0.021      344.708       21.719      861.991
09/09/2014  22:10:00     -108.251      -16.677      -13.664       40.400       27.273       17.784     1632.194      743.839      316.267        0.744        0.135      109.528       18.258        0.028      344.468       21.310      862.007
09/09/2014  22:11:00     -122.641      -48.832       -4.081       30.357       28.764       13.706      921.553      827.342      187.845        0.969        0.097      132.005       11.443        0.008      344.550       21.448      862.000
09/09/2014  22:12:00      -99.051      -36.048        1.903       65.779       62.036       23.432     4326.927     3848.406      549.064        0.992        0.436      105.407       23.401        0.049      344.563       21.473      862.016
09/09/2014  22:13:00      -44.171      117.618      -15.167       23.012       33.943       18.070      529.557     1152.148      326.509        0.901        0.100      125.639       11.952        0.009      344.762       21.810      862.025
09/09/2014  22:14:00      -78.392       65.024      -15.278       31.698       26.507       16.862     1004.742      702.635      284.323        0.630        0.100      101.850       10.863        0.011      344.786       21.853      862.033
09/09/2014  22:15:00     -103.662       87.587      -23.022       38.069       44.693       20.751     1449.221     1997.483      430.624        1.141        0.194      135.711       17.324        0.016      344.770       21.825      862.056
09/09/2014  22:16:00     -102.313      135.537      -29.506       39.284       41.538       24.316     1543.267     1725.389      591.289        1.678        0.193      169.818       23.121        0.019      344.857       21.974      862.072
09/09/2014  22:17:00     -128.827      110.534      -25.682       50.546       53.421       39.047     2554.949     2853.794     1524.655        1.820        0.347      169.747       42.064        0.061      344.845       21.951      862.078
09/09/2014  22:18:00     -130.734       25.884      -25.618       26.017       45.832       24.255      676.866     2100.593      588.322        1.089        0.168      133.272       24.901        0.035      344.742       21.776      862.080
09/09/2014  22:19:00      -48.230       26.109       -1.011       20.424       39.019       18.689      417.128     1522.513      349.260        0.265        0.114       54.843       14.304        0.068      344.653       21.623      862.077
09/09/2014  22:20:00     -107.876       -8.580       -9.917       43.010       42.438       19.967     1849.843     1800.989      398.692        0.793        0.202      108.217       18.577        0.029      344.483       21.335      862.083
09/09/2014  22:21:00     -116.639      -20.401       -2.632       52.910       38.375       21.991     2799.433     1472.647      483.606        0.939        0.238      118.410       17.091        0.021      344.322       21.059      862.113
09/09/2014  22:22:00      -84.494       87.964      -21.569       36.146       32.758       20.618     1306.505     1073.103      425.095        0.907        0.140      121.971       17.659        0.021      344.561       21.467      862.125
09/09/2014  22:23:00     -102.897      107.461      -23.376       33.221       25.718       21.192     1103.622      661.431      449.102        1.245        0.111      148.780       11.630        0.006      344.712       21.726      862.123
09/09/2014  22:24:00      -93.602      105.759      -18.619       36.845       52.830       22.443     1357.558     2790.972      503.679        1.247        0.233      141.231       22.148        0.025      344.554       21.455      862.136
09/09/2014  22:25:00      -78.573       36.419       -9.739       28.354       51.908       22.651      803.933     2694.394      513.078        0.580        0.201       86.603       25.552        0.087      344.422       21.231      862.158
09/09/2014  22:26:00      -51.121       34.580       -0.863       29.350       37.385       18.300      861.426     1397.652      334.877        0.320        0.130       61.718       10.108        0.027      344.363       21.127      862.165
09/09/2014  22:27:00      -26.071       77.425      -12.782       13.675       18.420        9.955      187.014      339.305       99.097        0.373        0.031       81.697        6.967        0.007      344.584       21.507      862.162
09/09/2014  22:28:00      -11.546       87.613      -14.916       11.037       14.698        6.246      121.826      216.041       39.011        0.420        0.019       88.370        4.585        0.003      344.434       21.251      862.164
09/09/2014  22:29:00      -24.691      114.928      -22.987       29.433       24.458       12.892      866.302      598.172      166.208        0.799        0.082      117.550        9.004        0.006      344.331       21.073      862.175
09/09/2014  22:30:00      -28.757      109.170      -19.430       18.068       21.604       12.462      326.460      466.745      155.296        0.704        0.047      112.894       11.187        0.010      344.284       20.993      862.190
09/09/2014  22:31:00      -21.379       88.266      -15.496       10.512       24.763        7.862      110.501      613.187       61.814        0.464        0.039       90.818        7.782        0.007      344.331       21.074      862.193
09/09/2014  22:32:00      -41.216       23.684       -7.819       13.758       30.893        8.163      189.269      954.379       66.637        0.177        0.061       47.536       12.566        0.070      344.245       20.927      862.198
09/09/2014  22:33:00      -55.734      -24.585      -12.156       20.246       14.235        9.283      409.917      202.639       86.168        0.228        0.035       60.916        6.694        0.012      344.200       20.849      862.198
09/09/2014  22:34:00      -79.404        0.427       -3.838       24.744       20.205       12.063      612.260      408.243      145.515        0.374        0.058       79.405       11.372        0.021      343.934       20.395      862.203
09/09/2014  22:35:00      -97.412      -20.630       -9.314       21.051       20.978       13.928      443.162      440.064      193.977        0.554        0.054       99.572       10.477        0.011      343.837       20.230      862.202
09/09/2014  22:36:00      -66.747      -46.539       -1.000       32.363       12.247       12.971     1047.380      149.992      168.241        0.399        0.068       81.370       13.815        0.029      343.878       20.300      862.207
09/09/2014  22:37:00       -3.578      -25.418        4.858       23.335       10.954       12.363      544.541      119.995      152.843        0.075        0.041       25.669        8.643        0.113      343.918       20.367      862.203
09/09/2014  22:38:00       -9.146      -29.240       -5.576       20.825       24.963       10.628      433.699      623.150      112.959        0.107        0.058       30.637        8.815        0.083      344.129       20.729      862.195
09/09/2014  22:39:00      -17.436      -47.660       -2.564       54.974       24.141       19.963     3022.099      582.795      398.517        0.329        0.200       50.750       21.715        0.183      344.061       20.611      862.206
09/09/2014  22:40:00     -115.588      -75.958      -15.127       20.225       25.528       14.610      409.032      651.684      213.464        1.032        0.064      138.311        8.902        0.004      344.184       20.822      862.225
09/09/2014  22:41:00      -68.302      -46.044       -1.091       30.960       26.247       15.487      958.537      688.880      239.863        0.434        0.094       82.372       15.516        0.035      344.090       20.662      862.241
09/09/2014  22:42:00      -83.160      -16.865       -7.195       26.993       20.515       11.555      728.631      420.870      133.523        0.427        0.064       84.852       12.556        0.022      344.086       20.654      862.241
09/09/2014  22:43:00        5.424      -35.490        5.145       18.743       16.817       10.786      351.317      282.823      116.334        0.103        0.038       35.902        9.013        0.063      343.960       20.441      862.232
09/09/2014  22:44:00       -3.633      -48.518      -11.806       13.884       19.362        8.382      192.767      374.893       70.261        0.157        0.032       48.654        6.228        0.016      343.990       20.491      862.230
09/09/2014  22:45:00      -11.387      -12.470        0.587       17.985       11.323        7.574      323.446      128.204       57.367        0.040        0.025       16.887        5.734        0.115      343.937       20.399      862.233
09/09/2014  22:46:00      -16.279        0.295        4.908       16.968       13.183        6.474      287.901      173.783       41.919        0.040        0.025       16.282        8.858        0.296      343.765       20.107      862.235
09/09/2014  22:47:00       14.587       39.080        2.774       15.846       15.613       13.239      251.110      243.778      175.279        0.121        0.034       41.714        9.231        0.049      343.728       20.043      862.232
09/09/2014  22:48:00       41.163       15.681       -2.579        6.912       18.220        9.074       47.774      331.972       82.337        0.120        0.023       44.049        5.241        0.014      343.790       20.150      862.231
09/09/2014  22:49:00       26.729        0.283        5.242       29.019       15.658        9.813      842.093      245.182       96.287        0.096        0.059       26.730        9.658        0.131      343.779       20.133      862.234
09/09/2014  22:50:00       -5.609      -54.679       -3.107       21.845       18.140       13.820      477.207      329.042      190.982        0.201        0.050       54.966        7.464        0.018      344.014       20.535      862.235
09/09/2014  22:51:00       -2.750      -24.014       15.442       12.628       20.191       13.205      159.467      407.663      174.384        0.078        0.037       24.171        5.350        0.049      344.022       20.547      862.236
09/09/2014  22:52:00       -9.019        1.335       -4.031        8.221        6.800        8.800       67.586       46.242       77.441        0.015        0.010        9.117        4.212        0.213      343.900       20.337      862.251
09/09/2014  22:53:00      -15.845       37.284       -1.646        9.853       15.927        5.129       97.083      253.679       26.307        0.101        0.019       40.511        3.791        0.009      344.002       20.512      862.254
09/09/2014  22:54:00      -43.469       82.321      -15.231       29.430       43.200       12.754      866.152     1866.212      162.661        0.590        0.145       93.093       13.302        0.020      343.668       19.942      862.258
09/09/2014  22:55:00      -59.858       31.674      -12.529       22.779       19.449       11.557      518.887      378.245      133.556        0.289        0.052       67.721        9.666        0.020      343.601       19.828      862.265
09/09/2014  22:56:00      -64.612       65.736      -20.037       14.408       26.197        7.984      207.593      686.265       63.746        0.493        0.048       92.173        5.749        0.004      343.743       20.070      862.278
09/09/2014  22:57:00      -97.020        2.755      -11.798       40.009       30.501       21.036     1600.723      930.284      442.493        0.627        0.149       97.059       19.374        0.040      343.192       19.131      862.300
09/09/2014  22:58:00      -83.368       27.951      -14.334       38.074       22.873       17.896     1449.607      523.181      320.259        0.511        0.115       87.929       19.327        0.048      343.273       19.268      862.316
09/09/2014  22:59:00      -31.534       -7.087       -5.424       17.545       11.580        7.889      307.816      134.107       62.232        0.079        0.025       32.321        5.887        0.033      343.563       19.762      862.318
09/09/2014  23:00:00      -32.009       -7.894      -14.220       13.448       19.855        8.468      180.854      394.213       71.706        0.097        0.032       32.968        9.274        0.079      344.171       20.799      862.325
09/09/2014  23:01:00      -27.256      -30.585       -4.136       21.735       12.251        9.736      472.398      150.082       94.791        0.121        0.036       40.968        5.008        0.015      343.933       20.394      862.327
09/09/2014  23:02:00      -69.021      -20.123       -8.392        9.109        8.005        6.305       82.969       64.073       39.748        0.271        0.009       71.895        5.665        0.006      343.467       19.599      862.335
09/09/2014  23:03:00      -73.127      -21.297       -6.426       16.935       20.186       12.825      286.809      407.465      164.471        0.335        0.043       76.165        6.753        0.008      343.294       19.305      862.352
09/09/2014  23:04:00      -74.635      -51.655       -4.416       18.902       14.800       12.035      357.298      219.055      144.852        0.449        0.036       90.767        4.676        0.003      343.303       19.319      862.364
09/09/2014  23:05:00      -58.126      -46.550       -3.904       24.640       14.464       12.978      607.125      209.216      168.428        0.327        0.049       74.468       10.351        0.019      343.274       19.271      862.360
09/09/2014  23:06:00      -37.071     -124.918       -7.791       22.736       30.442       13.620      516.904      926.692      185.506        0.933        0.081      130.303        5.675        0.002      344.260       20.952      862.356
09/09/2014  23:07:00       16.648     -102.721       -8.628       42.938       35.609       30.307     1843.711     1268.031      918.516        0.747        0.202      104.062       26.429        0.065      343.957       20.436      862.337
09/09/2014  23:08:00      -54.181      -85.688       -4.546       42.549       41.487       23.238     1810.383     1721.182      539.996        0.718        0.204      101.381       13.331        0.017      343.893       20.326      862.331
09/09/2014  23:09:00     -113.709      -58.524        0.169       54.010       50.368       28.951     2917.054     2536.886      838.176        1.132        0.315      127.886       20.060        0.025      343.858       20.265      862.355
09/09/2014  23:10:00     -126.348      -19.426      -11.741       51.876       46.808       25.124     2691.086     2190.974      631.218        1.100        0.276      127.833       24.215        0.036      343.365       19.425      862.400
09/09/2014  23:11:00      -42.163      -24.422       -5.019       45.361       41.603       24.600     2057.579     1730.806      605.139        0.340        0.220       48.725        9.830        0.041      342.955       18.728      862.427
09/09/2014  23:12:00      -17.295      -31.306        6.653       22.345       24.297       14.756      499.283      590.334      217.750        0.132        0.065       35.766        7.651        0.046      342.965       18.745      862.434
09/09/2014  23:13:00      -87.152        2.484       -9.172       38.073       29.255       16.700     1449.581      855.858      278.901        0.513        0.129       87.187       17.881        0.042      342.906       18.642      862.452
09/09/2014  23:14:00     -141.798       -6.599      -17.561       41.391       35.797       22.445     1713.230     1281.404      503.792        1.198        0.175      141.951       17.148        0.015      342.843       18.537      862.476
09/09/2014  23:15:00     -107.712        8.136      -16.573       29.154       32.611       16.668      849.960     1063.461      277.831        0.707        0.110      108.019       13.285        0.015      343.010       18.821      862.486
09/09/2014  23:16:00      -95.262        2.018      -10.079       26.571       20.079       18.851      705.995      403.160      355.347        0.532        0.073       95.283       11.641        0.015      343.016       18.831      862.497
09/09/2014  23:17:00      -43.413      -13.766        2.101       35.410       14.749       11.340     1253.858      217.542      128.602        0.184        0.080       45.544       11.694        0.066      342.921       18.669      862.515
09/09/2014  23:18:00       19.868      -20.226        0.295       18.896       14.497       10.441      357.073      210.154      109.024        0.074        0.034       28.352        9.553        0.114      342.917       18.660      862.531
09/09/2014  23:19:00       -3.659      -20.414       -0.591       18.405       10.936       10.127      338.728      119.599      102.565        0.050        0.028       20.739        8.726        0.177      343.132       19.030      862.522
09/09/2014  23:20:00       20.376      -22.576        7.939       13.214       19.929        9.275      174.618      397.160       86.019        0.082        0.033       30.411        9.609        0.100      343.114       19.000      862.518
09/09/2014  23:21:00       16.155      -22.058       -2.914       18.692       21.905       19.645      349.377      479.826      385.922        0.099        0.061       27.341       13.620        0.248      343.211       19.160      862.505
09/09/2014  23:22:00        5.347      -53.154       -8.091       32.168       34.641       20.599     1034.779     1200.028      424.299        0.279        0.133       53.422       20.249        0.144      343.229       19.194      862.494
09/09/2014  23:23:00      -31.749       -3.497       -4.350       17.459       21.179       11.559      304.803      448.567      133.605        0.096        0.044       31.941        9.193        0.083      343.080       18.939      862.520
09/09/2014  23:24:00      -68.552      -29.644        6.247       39.250       29.936       19.702     1540.532      896.141      388.165        0.422        0.141       74.687       18.343        0.060      342.963       18.741      862.555
09/09/2014  23:25:00     -104.171      -23.095       -2.620       34.162       26.095       15.671     1167.040      680.926      245.585        0.674        0.105      106.700       13.559        0.016      342.955       18.726      862.567
09/09/2014  23:26:00      -56.792      -32.663       -4.321       20.722       23.887        8.306      429.400      570.592       68.992        0.269        0.053       65.515        7.507        0.013      343.083       18.944      862.573
09/09/2014  23:27:00       10.631      -14.828       -1.457       39.305       14.224        8.788     1544.917      202.327       77.236        0.108        0.091       18.245        5.955        0.107      343.275       19.272      862.577
09/09/2014  23:28:00       55.867      -19.016       -1.514       14.499       20.653       10.019      210.216      426.536      100.389        0.211        0.037       59.015        6.544        0.012      343.649       19.909      862.576
09/09/2014  23:29:00       17.521       -3.889       21.919       27.620       23.253       21.283      762.840      540.690      452.962        0.128        0.088       17.947       23.608        1.730      343.430       19.536      862.582
09/09/2014  23:30:00       -1.012        7.603       23.941        8.272       11.575       13.110       68.422      133.985      171.872        0.050        0.019        7.670        8.587        1.253      343.082       18.943      862.610
09/09/2014  23:31:00       -2.415       30.771       -8.089       25.197       27.863       14.742      634.865      776.330      217.321        0.132        0.081       30.866       14.396        0.218      342.565       18.064      862.636
09/09/2014  23:32:00      -42.047       14.722       -6.275       24.532       29.578       13.522      601.802      874.881      182.837        0.184        0.083       44.550       15.589        0.122      342.683       18.264      862.635
09/09/2014  23:33:00      -58.184       35.478       -6.072       11.551       29.981       11.925      133.429      898.848      142.203        0.293        0.059       68.148       14.658        0.046      342.833       18.520      862.640
09/09/2014  23:34:00      -51.777       62.707      -17.017       13.653       11.574        6.480      186.401      133.966       41.985        0.363        0.018       81.321        3.336        0.002      343.074       18.930      862.653
09/09/2014  23:35:00      -48.285       44.178      -10.957       13.087       23.622       10.498      171.266      558.008      110.204        0.262        0.042       65.446       10.106        0.024      343.283       19.284      862.656
09/09/2014  23:36:00      -27.662        6.639       -8.202       12.491        7.103        5.996      156.033       50.449       35.953        0.056        0.012       28.448        3.897        0.019      343.464       19.592      862.665
09/09/2014  23:37:00      -43.239       10.740      -10.139        7.373       10.618        7.053       54.357      112.751       49.749        0.115        0.011       44.553        3.582        0.006      343.327       19.360      862.672
09/09/2014  23:38:00      -49.572        0.995       -7.784       10.086        7.744        5.434      101.732       59.975       29.529        0.136        0.010       49.582        4.083        0.007      343.312       19.337      862.686
09/09/2014  23:39:00      -64.857       -7.206      -14.161       14.207       13.343        8.946      201.843      178.047       80.028        0.246        0.023       65.256        8.154        0.016      342.644       18.198      862.695
09/09/2014  23:40:00      -44.767      -17.191       -9.722       21.201       17.748        8.303      449.493      314.987       68.941        0.161        0.042       47.954        9.051        0.036      342.667       18.237      862.708
09/09/2014  23:41:00        5.658      -15.272       -6.029       15.014       14.345        4.806      225.410      205.785       23.095        0.038        0.023       16.287        3.677        0.051      343.098       18.971      862.697
09/09/2014  23:42:00       46.220       17.171        1.897       10.108       13.670        5.538      102.174      186.859       30.671        0.138        0.016       49.306        5.076        0.011      343.239       19.210      862.693
09/09/2014  23:43:00       49.305       38.973       10.864        6.062        5.492        5.127       36.754       30.159       26.287        0.208        0.005       62.849        3.287        0.003      343.392       19.473      862.703
09/09/2014  23:44:00       28.045       65.389       -7.056       10.541       19.970        8.861      111.116      398.788       78.518        0.285        0.029       71.149       11.159        0.025      343.408       19.498      862.709
09/09/2014  23:45:00       -4.242       90.863      -13.812       10.258       11.737        5.937      105.231      137.766       35.245        0.437        0.014       90.962        2.694        0.001      343.209       19.159      862.721
09/09/2014  23:46:00      -30.339       23.532       -9.144       20.756       45.034       10.952      430.831     2028.033      119.937        0.207        0.129       38.395       16.123        0.176      342.922       18.672      862.719
09/09/2014  23:47:00      -96.567      -34.234      -11.701       32.007       22.185       14.434     1024.452      492.188      208.327        0.618        0.086      102.456        5.571        0.003      342.245       17.518      862.711
09/09/2014  23:48:00     -148.187       -4.262      -18.453       36.216       23.924       17.793     1311.632      572.344      316.591        1.226        0.110      148.248       10.956        0.005      342.085       17.249      862.722
09/09/2014  23:49:00     -114.997       25.852       -6.781       45.560       31.974       24.063     2075.755     1022.333      579.031        0.881        0.184      117.867       21.230        0.032      342.127       17.319      862.751
09/09/2014  23:50:00     -125.911       67.260       -4.729       48.711       32.641       30.242     2372.738     1065.426      914.552        1.238        0.218      142.750       20.793        0.021      342.504       17.959      862.774
09/09/2014  23:51:00     -110.243        4.260      -19.303       23.351       35.718       17.528      545.282     1275.811      307.235        0.734        0.106      110.325       18.453        0.028      342.461       17.887      862.778
09/09/2014  23:52:00      -70.726       -2.344      -11.898       33.581       24.356       15.554     1127.651      593.200      241.922        0.356        0.098       70.765       12.943        0.033      342.246       17.521      862.777
09/09/2014  23:53:00       -2.292       12.585       -5.408       29.164       28.432       10.302      850.549      808.393      106.138        0.098        0.088       12.792        4.913        0.148      342.736       18.353      862.766
09/09/2014  23:54:00      -35.796       13.873       -4.599       27.805       27.689       13.147      773.133      766.666      172.847        0.160        0.086       38.390       13.981        0.133      342.778       18.426      862.763
09/09/2014  23:55:00     -114.849      -10.192      -11.988       25.661       21.867       15.299      658.487      478.144      234.049        0.740        0.069      115.300        7.320        0.004      342.300       17.611      862.791
09/09/2014  23:56:00     -174.295       36.081      -15.987       78.153       55.590       31.986     6107.909     3090.202     1023.101        2.108        0.511      177.990       32.558        0.033      342.211       17.460      862.821
09/09/2014  23:57:00     -132.358      -20.310      -13.689       34.475       48.887       21.212     1188.548     2389.927      449.956        1.107        0.201      133.907       18.768        0.020      342.135       17.331      862.822
09/09/2014  23:58:00      -57.963      -22.616       -7.393       33.005       19.064       13.533     1089.350      363.436      183.155        0.278        0.082       62.219        9.195        0.022      342.142       17.345      862.812
09/09/2014  23:59:00      -88.635       -7.471      -13.357        8.626        8.998        9.331       74.414       80.961       87.074        0.417        0.012       88.950        4.654        0.003      342.391       17.768      862.792
